LiveATC.Net - Listen to live air traffic control over the Internet!
Airport/ARTCC Code
Frequency Search
(e.g., 124.400, 128.75)
Site-wide search
 


Browse Feeds
Top 50 Feeds
HF Oceanic Feeds
Coverage Map
Bad Weather Areas

LiveATC FAQ
Offer LiveATC feed
Contact LiveATC.net
Press Inquiries

LiveATC on iPhone
LiveATC on Android

LiveATC Mobile
(Mobile browser)

ATC Audio Archives
Interesting Recordings

LiveATC Forums

Home Page
About LiveATC.net


Terms of Use
Privacy Policy

AIRMETs/SIGMETs

FAA Airport Status
NAS Status
Arrival Demand


Server Software By:
Icecast.org
Liquidsoap

Select an area of interest:
U.S. Feeds: Class B Airports | Class C Airports | Class D/Other Airports | ARTCC (Centers)
International Feeds: Canada | Europe | Oceania | Asia | South America | North/Central America | Africa
Misc Feeds: HF Feeds
Search by ICAO/IATA airport code:   (e.g., kbos, kjfk, lax, eham, etc.)


Currently Available Live Feeds: 3029
Status Updated: Sun May 22 2022 21:14:21 UTC


NOTICE

Unauthorized use prohibited. See LiveATC.net Terms of Service

International Airport Feeds

 

BGGH AFIS (Archives)
Nuuk, Greenland

Feed Status: UP
Listen in your browser - HTML5 player(in browser, HTML5)
Click here to listen with your own player(launches your MP3 player)

BGGH 222050Z 18032G42KT 4000 -SHRASN SCT010 BKN030 02/M01 Q0992


Listeners: 4 out of 1746 total


EFJY Tower (Archives)
Jyvaskyla, Finland

Feed Status: UP
Listen in your browser - HTML5 player(in browser, HTML5)
Click here to listen with your own player(launches your MP3 player)

EFJY 222050Z AUTO 25001KT CAVOK 07/02 Q1012

EFJY Flight Activity (Flightaware)

Listeners: 1 out of 1746 total

Jyvaskyla Tower: 118.000
Jyvaskyla Tower: 119.700

EFKU Tower/Approach (Archives)
Siilinjarvi, Finland

Feed Status: UP
Listen in your browser - HTML5 player(in browser, HTML5)
Click here to listen with your own player(launches your MP3 player)

EFKU 222050Z AUTO 12006KT CAVOK 09/03 Q1012

EFKU Flight Activity (Flightaware)

Listeners: 2 out of 1746 total

Kuopio Approach: 130.600
Kuopio Tower: 120.150

Dutch Mil Radar (Archives)
Amsterdam, Netherlands

Feed Status: UP
Listen in your browser - HTML5 player(in browser, HTML5)
Click here to listen with your own player(launches your MP3 player)

EHLE 222055Z AUTO 10006KT 070V130 9999 NSC 16/10 Q1010

EHLE Flight Activity (Flightaware)

Listeners: 4 out of 1746 total

Approach: 124.530
Dutch Mil Flight Info: 264.325
Dutch Mil Radar: 128.355
Dutch Mil Radar: 132.350

EHAA Radar ARTIP (Archives)
Amsterdam, Netherlands

Feed Status: UP
Listen in your browser - HTML5 player(in browser, HTML5)
Click here to listen with your own player(launches your MP3 player)

EHAM 222055Z 09005KT CAVOK 16/11 Q1010 NOSIG

EHAM Flight Activity (Flightaware)

Listeners: 0 out of 1746 total

EHAA Radar Sector 1 ARTIP: 120.550

EHAA Radar East Inbound
Amsterdam, Netherlands

Feed Status: DOWN
Offline since: 2022-03-16 17:45:38 UTC

EHAM 222055Z 09005KT CAVOK 16/11 Q1010 NOSIG

EHAA Radar Sector 2 East Inbound: 128.575

EHAA Radar East Outbound (Archives)
Amsterdam, Netherlands

Feed Status: UP
Listen in your browser - HTML5 player(in browser, HTML5)
Click here to listen with your own player(launches your MP3 player)

EHAM 222055Z 09005KT CAVOK 16/11 Q1010 NOSIG

EHAM Flight Activity (Flightaware)

Listeners: 0 out of 1746 total

EHAA Radar Sector 2 East Outbound: 124.875

EHAA Radar North
Amsterdam, Netherlands

Feed Status: DOWN
Offline since: 2022-03-10 10:29:38 UTC

EHAM 222055Z 09005KT CAVOK 16/11 Q1010 NOSIG

EHAA Radar Sector 1 North: 134.375

EHAA Radar Northwest (Archives)
Amsterdam, Netherlands

Feed Status: UP
Listen in your browser - HTML5 player(in browser, HTML5)
Click here to listen with your own player(launches your MP3 player)

EHAM 222055Z 09005KT CAVOK 16/11 Q1010 NOSIG

EHAM Flight Activity (Flightaware)

Listeners: 0 out of 1746 total

EHAA Radar Sector 5 Northwest: 123.705

EHAA Radar RIVER
Amsterdam, Netherlands

Feed Status: DOWN
Offline since: 2022-03-16 17:45:38 UTC

EHAM 222055Z 09005KT CAVOK 16/11 Q1010 NOSIG

EHAA Radar Sector 3 RIVER: 130.950

EHAA Radar South (Archives)
Amsterdam, Netherlands

Feed Status: UP
Listen in your browser - HTML5 player(in browser, HTML5)
Click here to listen with your own player(launches your MP3 player)

EHAM 222055Z 09005KT CAVOK 16/11 Q1010 NOSIG

EHAM Flight Activity (Flightaware)

Listeners: 0 out of 1746 total

EHAA Radar Sector 3 South: 123.850

EHAA Radar South (Backup) (Archives)
Amsterdam, Netherlands

Feed Status: UP
Listen in your browser - HTML5 player(in browser, HTML5)
Click here to listen with your own player(launches your MP3 player)

EHAM 222055Z 09005KT CAVOK 16/11 Q1010 NOSIG

EHAM Flight Activity (Flightaware)

Listeners: 0 out of 1746 total

EHAA Radar Sector 3 South Backup : 127.775

EHAA Radar Southwest (Archives)
Amsterdam, Netherlands

Feed Status: UP
Listen in your browser - HTML5 player(in browser, HTML5)
Click here to listen with your own player(launches your MP3 player)

EHAM 222055Z 09005KT CAVOK 16/11 Q1010 NOSIG

EHAM Flight Activity (Flightaware)

Listeners: 0 out of 1746 total

EHAA Radar Sector 4 Southwest: 125.750

EHAA Radar SUGOL (Archives)
Amsterdam, Netherlands

Feed Status: UP
Listen in your browser - HTML5 player(in browser, HTML5)
Click here to listen with your own player(launches your MP3 player)

EHAM 222055Z 09005KT CAVOK 16/11 Q1010 NOSIG

EHAM Flight Activity (Flightaware)

Listeners: 0 out of 1746 total

EHAA Radar Sector 5 SUGOL: 118.800

EHAM Airside Ops Mgr (AOM)
Amsterdam, Netherlands

Feed Status: DOWN
Offline since: 2022-03-16 17:45:38 UTC

EHAM 222055Z 09005KT CAVOK 16/11 Q1010 NOSIG

Schiphol Airside Operations Manager: 130.475

EHAM App/Dep Backup (Archives)
Amsterdam, Netherlands

Feed Status: UP
Listen in your browser - HTML5 player(in browser, HTML5)
Click here to listen with your own player(launches your MP3 player)

EHAM 222055Z 09005KT CAVOK 16/11 Q1010 NOSIG

EHAM Flight Activity (Flightaware)

Listeners: 0 out of 1746 total

Schiphol App/Dep Backup: 118.075

EHAM App/Dep TMA East (Archives)
Amsterdam, Netherlands

Feed Status: UP
Listen in your browser - HTML5 player(in browser, HTML5)
Click here to listen with your own player(launches your MP3 player)

EHAM 222055Z 09005KT CAVOK 16/11 Q1010 NOSIG

EHAM Flight Activity (Flightaware)

Listeners: 6 out of 1746 total

Amsterdam Approach/Departure TMA East: 119.055

EHAM App/Dep TMA West (Archives)
Amsterdam, Netherlands

Feed Status: UP
Listen in your browser - HTML5 player(in browser, HTML5)
Click here to listen with your own player(launches your MP3 player)

EHAM 222055Z 09005KT CAVOK 16/11 Q1010 NOSIG

EHAM Flight Activity (Flightaware)

Listeners: 3 out of 1746 total

Amsterdam Approach/Departure TMA West: 121.200

EHAM Apron (North) (Archives)
Amsterdam, Netherlands

Feed Status: UP
Listen in your browser - HTML5 player(in browser, HTML5)
Click here to listen with your own player(launches your MP3 player)

EHAM 222055Z 09005KT CAVOK 16/11 Q1010 NOSIG

EHAM Flight Activity (Flightaware)

Listeners: 0 out of 1746 total

Schiphol Apron (North): 121.880

EHAM Apron (South) (Archives)
Amsterdam, Netherlands

Feed Status: UP
Listen in your browser - HTML5 player(in browser, HTML5)
Click here to listen with your own player(launches your MP3 player)

EHAM 222055Z 09005KT CAVOK 16/11 Q1010 NOSIG

EHAM Flight Activity (Flightaware)

Listeners: 0 out of 1746 total

Schiphol Apron (South): 121.780

EHAM Arrival (Primary) (Archives)
Amsterdam, Netherlands

Feed Status: UP
Listen in your browser - HTML5 player(in browser, HTML5)
Click here to listen with your own player(launches your MP3 player)

EHAM 222055Z 09005KT CAVOK 16/11 Q1010 NOSIG

EHAM Flight Activity (Flightaware)

Listeners: 0 out of 1746 total

Amsterdam Arrival : 118.400

EHAM Arrival (Secondary)
Amsterdam, Netherlands

Feed Status: DOWN
Offline since: 2022-03-10 11:40:38 UTC

EHAM 222055Z 09005KT CAVOK 16/11 Q1010 NOSIG

Amsterdam Arrival (Secondary): 131.150

EHAM Arrival (Secondary/Backup)
Amsterdam, Netherlands

Feed Status: DOWN
Offline since: 2022-03-10 10:29:38 UTC

EHAM 222055Z 09005KT CAVOK 16/11 Q1010 NOSIG

Amsterdam Arrival (Secondary Backup): 131.275

EHAM Arrival Backup/Discrete (Archives)
Amsterdam, Netherlands

Feed Status: UP
Listen in your browser - HTML5 player(in browser, HTML5)
Click here to listen with your own player(launches your MP3 player)

EHAM 222055Z 09005KT CAVOK 16/11 Q1010 NOSIG

EHAM Flight Activity (Flightaware)

Listeners: 0 out of 1746 total

Schiphol Arrival Backup: 126.675

EHAM ATIS (Arrival)
Amsterdam, Netherlands

Feed Status: DOWN
Offline since: 2022-03-10 10:29:38 UTC

EHAM 222055Z 09005KT CAVOK 16/11 Q1010 NOSIG

Schiphol ATIS (Arrival): 132.980

EHAM ATIS (Departure) (Archives)
Amsterdam, Netherlands

Feed Status: UP
Listen in your browser - HTML5 player(in browser, HTML5)
Click here to listen with your own player(launches your MP3 player)

EHAM 222055Z 09005KT CAVOK 16/11 Q1010 NOSIG

EHAM Flight Activity (Flightaware)

Listeners: 0 out of 1746 total

Schiphol ATIS (Departure): 122.205

EHAM Clearance Delivery (Archives)
Amsterdam, Netherlands

Feed Status: UP
Listen in your browser - HTML5 player(in browser, HTML5)
Click here to listen with your own player(launches your MP3 player)

EHAM 222055Z 09005KT CAVOK 16/11 Q1010 NOSIG

EHAM Flight Activity (Flightaware)

Listeners: 0 out of 1746 total

Schiphol Clearance Delivery: 121.980

EHAM Ground (Backup) (Archives)
Amsterdam, Netherlands

Feed Status: UP
Listen in your browser - HTML5 player(in browser, HTML5)
Click here to listen with your own player(launches your MP3 player)

EHAM 222055Z 09005KT CAVOK 16/11 Q1010 NOSIG

EHAM Flight Activity (Flightaware)

Listeners: 0 out of 1746 total

Schiphol Ground (Backup): 122.425

EHAM Ground (North) (Archives)
Amsterdam, Netherlands

Feed Status: UP
Listen in your browser - HTML5 player(in browser, HTML5)
Click here to listen with your own player(launches your MP3 player)

EHAM 222055Z 09005KT CAVOK 16/11 Q1010 NOSIG

EHAM Flight Activity (Flightaware)

Listeners: 0 out of 1746 total

Schiphol Ground (North): 121.805

EHAM Ground (South) (Archives)
Amsterdam, Netherlands

Feed Status: UP
Listen in your browser - HTML5 player(in browser, HTML5)
Click here to listen with your own player(launches your MP3 player)

EHAM 222055Z 09005KT CAVOK 16/11 Q1010 NOSIG

EHAM Flight Activity (Flightaware)

Listeners: 0 out of 1746 total

Schiphol Ground (South): 121.705

EHAM Ground (West) (Archives)
Amsterdam, Netherlands

Feed Status: UP
Listen in your browser - HTML5 player(in browser, HTML5)
Click here to listen with your own player(launches your MP3 player)

EHAM 222055Z 09005KT CAVOK 16/11 Q1010 NOSIG

EHAM Flight Activity (Flightaware)

Listeners: 0 out of 1746 total

Schiphol Ground (West): 121.560

EHAM Info North Sea (North) (Archives)
Amsterdam, Netherlands

Feed Status: UP
Listen in your browser - HTML5 player(in browser, HTML5)
Click here to listen with your own player(launches your MP3 player)

EHAM 222055Z 09005KT CAVOK 16/11 Q1010 NOSIG

EHAM Flight Activity (Flightaware)

Listeners: 0 out of 1746 total

Amsterdam Info North Sea (North): 119.175

EHAM Info North Sea (Over Land) (Archives)
Amsterdam, Netherlands

Feed Status: UP
Listen in your browser - HTML5 player(in browser, HTML5)
Click here to listen with your own player(launches your MP3 player)

EHAM 222055Z 09005KT CAVOK 16/11 Q1010 NOSIG

EHAM Flight Activity (Flightaware)

Listeners: 2 out of 1746 total

Amsterdam Info North Sea (Over Land): 124.300

EHAM Info North Sea (South)
Amsterdam, Netherlands

Feed Status: DOWN
Offline since: 2022-03-10 10:29:38 UTC

EHAM 222055Z 09005KT CAVOK 16/11 Q1010 NOSIG

Amsterdam Info North Sea (South): 136.650

EHAM Schiphol Outbound Planner (Archives)
Amsterdam, Netherlands

Feed Status: UP
Listen in your browser - HTML5 player(in browser, HTML5)
Click here to listen with your own player(launches your MP3 player)

EHAM 222055Z 09005KT CAVOK 16/11 Q1010 NOSIG

EHAM Flight Activity (Flightaware)

Listeners: 0 out of 1746 total

Schiphol Outbound Planner: 121.655

EHAM Tow Traffic
Amsterdam, Netherlands

Feed Status: DOWN
Offline since: 2022-03-10 10:29:38 UTC

EHAM 222055Z 09005KT CAVOK 16/11 Q1010 NOSIG

Schiphol Tow Traffic: 134.875

EHAM Tower (06/24) (Archives)
Amsterdam, Netherlands

Feed Status: UP
Listen in your browser - HTML5 player(in browser, HTML5)
Click here to listen with your own player(launches your MP3 player)

EHAM 222055Z 09005KT CAVOK 16/11 Q1010 NOSIG

EHAM Flight Activity (Flightaware)

Listeners: 1 out of 1746 total

Schiphol Tower Main 06/24: 135.110

EHAM Tower (18C/36C-27/09) (Archives)
Amsterdam, Netherlands

Feed Status: UP
Listen in your browser - HTML5 player(in browser, HTML5)
Click here to listen with your own player(launches your MP3 player)

EHAM 222055Z 09005KT CAVOK 16/11 Q1010 NOSIG

EHAM Flight Activity (Flightaware)

Listeners: 4 out of 1746 total

Schiphol Tower Main 18C/36C - 27/09: 118.100

EHAM Tower (18L/36R-22/04) (Archives)
Amsterdam, Netherlands

Feed Status: UP
Listen in your browser - HTML5 player(in browser, HTML5)
Click here to listen with your own player(launches your MP3 player)

EHAM 222055Z 09005KT CAVOK 16/11 Q1010 NOSIG

EHAM Flight Activity (Flightaware)

Listeners: 1 out of 1746 total

Schiphol Tower Main 18L/36R - 22/04: 119.225

EHAM Tower Backup (Archives)
Amsterdam, Netherlands

Feed Status: UP
Listen in your browser - HTML5 player(in browser, HTML5)
Click here to listen with your own player(launches your MP3 player)

EHAM 222055Z 09005KT CAVOK 16/11 Q1010 NOSIG

EHAM Flight Activity (Flightaware)

Listeners: 0 out of 1746 total

Schiphol Tower Backup: 119.905

EHAM Tower West (18R/36L) (Archives)
Amsterdam, Netherlands

Feed Status: UP
Listen in your browser - HTML5 player(in browser, HTML5)
Click here to listen with your own player(launches your MP3 player)

EHAM 222055Z 09005KT CAVOK 16/11 Q1010 NOSIG

EHAM Flight Activity (Flightaware)

Listeners: 0 out of 1746 total

Schiphol Tower West 18R/36L: 118.280

EHBK ATIS (Archives)
Beek, Netherlands

Feed Status: UP
Listen in your browser - HTML5 player(in browser, HTML5)
Click here to listen with your own player(launches your MP3 player)

EHBK 222055Z AUTO 06006KT 9999 NSC 18/09 Q1010 NOSIG

EHBK Flight Activity (Flightaware)

Listeners: 0 out of 1746 total

Beek ATIS: 124.575

EHBK Gnd/Twr/App (Archives)
Beek, Netherlands

Feed Status: UP
Listen in your browser - HTML5 player(in browser, HTML5)
Click here to listen with your own player(launches your MP3 player)

EHBK 222055Z AUTO 06006KT 9999 NSC 18/09 Q1010 NOSIG

EHBK Flight Activity (Flightaware)

Listeners: 1 out of 1746 total

Beek Approach: 120.200
Beek Approach: 123.975
Beek Ground: 121.825
Beek Tower: 119.475
Beek Tower: 119.700

MUAC/Eurocontrol Delta High (Archives)
Beek, Netherlands

Feed Status: UP
Listen in your browser - HTML5 player(in browser, HTML5)
Click here to listen with your own player(launches your MP3 player)

EHBK 222055Z AUTO 06006KT 9999 NSC 18/09 Q1010 NOSIG

EHBK Flight Activity (Flightaware)

Listeners: 0 out of 1746 total

MUAC Delta High Sector: 132.085

MUAC/Eurocontrol Koksy (Archives)
Beek, Netherlands

Feed Status: UP
Listen in your browser - HTML5 player(in browser, HTML5)
Click here to listen with your own player(launches your MP3 player)

EHBK 222055Z AUTO 06006KT 9999 NSC 18/09 Q1010 NOSIG

EHBK Flight Activity (Flightaware)

Listeners: 0 out of 1746 total

MUAC Koksy Sector: 132.205

MUAC/Eurocontrol Koksy High (Archives)
Beek, Netherlands

Feed Status: UP
Listen in your browser - HTML5 player(in browser, HTML5)
Click here to listen with your own player(launches your MP3 player)

EHBK 222055Z AUTO 06006KT 9999 NSC 18/09 Q1010 NOSIG

EHBK Flight Activity (Flightaware)

Listeners: 1 out of 1746 total

MUAC Koksy High Sector: 132.755

MUAC/Eurocontrol Lux High (Archives)
Beek, Netherlands

Feed Status: UP
Listen in your browser - HTML5 player(in browser, HTML5)
Click here to listen with your own player(launches your MP3 player)

EHBK 222055Z AUTO 06006KT 9999 NSC 18/09 Q1010 NOSIG

EHBK Flight Activity (Flightaware)

Listeners: 1 out of 1746 total

MUAC Lux High Sector: 132.315

MUAC/Eurocontrol Lux Low (Archives)
Beek, Netherlands

Feed Status: UP
Listen in your browser - HTML5 player(in browser, HTML5)
Click here to listen with your own player(launches your MP3 player)

EHBK 222055Z AUTO 06006KT 9999 NSC 18/09 Q1010 NOSIG

EHBK Flight Activity (Flightaware)

Listeners: 1 out of 1746 total

MUAC Lux Low Sector: 133.355

MUAC/Eurocontrol Olno Low (Archives)
Beek, Netherlands

Feed Status: UP
Listen in your browser - HTML5 player(in browser, HTML5)
Click here to listen with your own player(launches your MP3 player)

EHBK 222055Z AUTO 06006KT 9999 NSC 18/09 Q1010 NOSIG

EHBK Flight Activity (Flightaware)

Listeners: 0 out of 1746 total

MUAC Olno Low Sector: 132.855

MUAC/Eurocontrol Ruhr (Archives)
Beek, Netherlands

Feed Status: UP
Listen in your browser - HTML5 player(in browser, HTML5)
Click here to listen with your own player(launches your MP3 player)

EHBK 222055Z AUTO 06006KT 9999 NSC 18/09 Q1010 NOSIG

EHBK Flight Activity (Flightaware)

Listeners: 2 out of 1746 total

MUAC Ruhr Sector: 132.515

EHEH Approach #1 (Archives)
Eindhoven, Netherlands

Feed Status: UP
Listen in your browser - HTML5 player(in browser, HTML5)
Click here to listen with your own player(launches your MP3 player)

EHEH 222055Z AUTO 07005KT 030V130 9999 OVC120 19/10 Q1009 BLU NOSIG

EHEH Flight Activity (Flightaware)

Listeners: 2 out of 1746 total

DutchMil Info: 132.355
DutchMil Info UHF: 341.600
DutchMil RAPCON South: 123.180
Eindhoven Arrival: 125.530
Eindhoven Arrival (UHF): 265.975
Emergency/Guard: 121.500
Rapcon South UHF: 388.525
Volkel Arrival UHF: 291.200

EHEH Tower #1 (Archives)
Eindhoven, Netherlands

Feed Status: UP
Listen in your browser - HTML5 player(in browser, HTML5)
Click here to listen with your own player(launches your MP3 player)

EHEH 222055Z AUTO 07005KT 030V130 9999 OVC120 19/10 Q1009 BLU NOSIG

EHEH Flight Activity (Flightaware)

Listeners: 1 out of 1746 total

Eindhoven Tower: 131.005
Eindhoven Tower (UHF): 241.550
Generic Tower: 122.100
Generic Tower (UHF): 257.800
Volkel Tower: 136.080
Volkel Tower (UHF): 291.100

EHGG Approach (Archives)
Groningen, Netherlands

Feed Status: UP
Listen in your browser - HTML5 player(in browser, HTML5)
Click here to listen with your own player(launches your MP3 player)

EHGG 222055Z AUTO 10005KT 070V130 9999 NSC 15/09 Q1011 NOSIG

EHGG Flight Activity (Flightaware)

Listeners: 0 out of 1746 total

Eelde Approach: 120.305

EHGG ATIS (Archives)
Groningen, Netherlands

Feed Status: UP
Listen in your browser - HTML5 player(in browser, HTML5)
Click here to listen with your own player(launches your MP3 player)

EHGG 222055Z AUTO 10005KT 070V130 9999 NSC 15/09 Q1011 NOSIG

EHGG Flight Activity (Flightaware)

Listeners: 0 out of 1746 total

Groningen ATIS: 133.555

EHGG Ground (Archives)
Groningen, Netherlands

Feed Status: UP
Listen in your browser - HTML5 player(in browser, HTML5)
Click here to listen with your own player(launches your MP3 player)

EHGG 222055Z AUTO 10005KT 070V130 9999 NSC 15/09 Q1011 NOSIG

EHGG Flight Activity (Flightaware)

Listeners: 0 out of 1746 total

Eelde Clearance Delivery/Ground: 121.705

EHGG Guard/Emergency (Archives)
Groningen, Netherlands

Feed Status: UP
Listen in your browser - HTML5 player(in browser, HTML5)
Click here to listen with your own player(launches your MP3 player)

EHGG 222055Z AUTO 10005KT 070V130 9999 NSC 15/09 Q1011 NOSIG

EHGG Flight Activity (Flightaware)

Listeners: 0 out of 1746 total

Emergency/Guard: 121.500

EHGG Tower (Archives)
Groningen, Netherlands

Feed Status: UP
Listen in your browser - HTML5 player(in browser, HTML5)
Click here to listen with your own player(launches your MP3 player)

EHGG 222055Z AUTO 10005KT 070V130 9999 NSC 15/09 Q1011 NOSIG

EHGG Flight Activity (Flightaware)

Listeners: 3 out of 1746 total

Eelde Tower: 118.705

EHGG Twr/App (Secondary) (Archives)
Groningen, Netherlands

Feed Status: UP
Listen in your browser - HTML5 player(in browser, HTML5)
Click here to listen with your own player(launches your MP3 player)

EHGG 222055Z AUTO 10005KT 070V130 9999 NSC 15/09 Q1011 NOSIG

EHGG Flight Activity (Flightaware)

Listeners: 0 out of 1746 total

Eelde Tower/App (Backup): 119.705

MUAC/Eurocontrol (EHGG Area) (Archives)
Groningen, Netherlands

Feed Status: UP
Listen in your browser - HTML5 player(in browser, HTML5)
Click here to listen with your own player(launches your MP3 player)

EHGG 222055Z AUTO 10005KT 070V130 9999 NSC 15/09 Q1011 NOSIG

EHGG Flight Activity (Flightaware)

Listeners: 1 out of 1746 total

MUAC Holstein High Sector: 132.775
MUAC Holstein Sector: 120.9333
MUAC Javer High Sector: 134.700
MUAC Jever Sector: 136.4666

EHGR Ground (Archives)
Breda, Netherlands

Feed Status: UP
Listen in your browser - HTML5 player(in browser, HTML5)
Click here to listen with your own player(launches your MP3 player)

EHGR 222055Z AUTO 09003KT 9999 ////// 18/11 Q1009 BLU

EHGR Flight Activity (Flightaware)

Listeners: 0 out of 1746 total

Gilze Rijen Ground: 121.680

EHGR Ground/Tower (Archives)
Breda, Netherlands

Feed Status: UP
Listen in your browser - HTML5 player(in browser, HTML5)
Click here to listen with your own player(launches your MP3 player)

EHGR 222055Z AUTO 09003KT 9999 ////// 18/11 Q1009 BLU

EHGR Flight Activity (Flightaware)

Listeners: 0 out of 1746 total

Gilze Rijen Ground: 121.680
Gilze Rijen Tower: 125.330

EHGR Tower (Archives)
Breda, Netherlands

Feed Status: UP
Listen in your browser - HTML5 player(in browser, HTML5)
Click here to listen with your own player(launches your MP3 player)

EHGR 222055Z AUTO 09003KT 9999 ////// 18/11 Q1009 BLU

EHGR Flight Activity (Flightaware)

Listeners: 0 out of 1746 total

Gilze Rijen Tower: 125.330

EHHV CTAF (Archives)
Hilversum, Netherlands

Feed Status: UP
Listen in your browser - HTML5 player(in browser, HTML5)
Click here to listen with your own player(launches your MP3 player)

EHHV Flight Activity (Flightaware)

Listeners: 1 out of 1746 total

Hilversum Radio: 131.030

EHKD ATIS (Archives)
Den Helder, Netherlands

Feed Status: UP
Listen in your browser - HTML5 player(in browser, HTML5)
Click here to listen with your own player(launches your MP3 player)

EHKD 222055Z AUTO 12006KT 9999 FEW073 OVC230 16/11 Q1010 BLU

EHKD Flight Activity (Flightaware)

Listeners: out of 1746 total

De Kooy ATIS: 133.015

EHKD Ground/Tower
Den Helder, Netherlands

Feed Status: DOWN
Offline since: 2022-05-15 05:00:39 UTC

EHKD 222055Z AUTO 12006KT 9999 FEW073 OVC230 16/11 Q1010 BLU

De Kooy Ground: 121.730
De Kooy Tower: 120.130

Approach/Dutch Mil Radar (Archives)
Lelystad, Netherlands

Feed Status: UP
Listen in your browser - HTML5 player(in browser, HTML5)
Click here to listen with your own player(launches your MP3 player)

EHLE 222055Z AUTO 10006KT 070V130 9999 NSC 16/10 Q1010

EHLE Flight Activity (Flightaware)

Listeners: 4 out of 1746 total

Approach: 124.530
Dutch Mil Flight Info: 264.325
Dutch Mil Radar: 128.355
Dutch Mil Radar: 132.350

EHLE App/Dep (Archives)
Lelystad, Netherlands

Feed Status: UP
Listen in your browser - HTML5 player(in browser, HTML5)
Click here to listen with your own player(launches your MP3 player)

EHLE 222055Z AUTO 10006KT 070V130 9999 NSC 16/10 Q1010

EHLE Flight Activity (Flightaware)

Listeners: 0 out of 1746 total

Lelystad Approach: 134.530

EHLE Clearance Delivery (Archives)
Lelystad, Netherlands

Feed Status: UP
Listen in your browser - HTML5 player(in browser, HTML5)
Click here to listen with your own player(launches your MP3 player)

EHLE 222055Z AUTO 10006KT 070V130 9999 NSC 16/10 Q1010

EHLE Flight Activity (Flightaware)

Listeners: 0 out of 1746 total

Lelystad Clearance Delivery: 123.680

EHLE FIC (Archives)
Lelystad, Netherlands

Feed Status: UP
Listen in your browser - HTML5 player(in browser, HTML5)
Click here to listen with your own player(launches your MP3 player)

EHLE 222055Z AUTO 10006KT 070V130 9999 NSC 16/10 Q1010

EHLE Flight Activity (Flightaware)

Listeners: 0 out of 1746 total

FIC Amsterdam Information: 124.300

EHLE Tower (Archives)
Lelystad, Netherlands

Feed Status: UP
Listen in your browser - HTML5 player(in browser, HTML5)
Click here to listen with your own player(launches your MP3 player)

EHLE 222055Z AUTO 10006KT 070V130 9999 NSC 16/10 Q1010

EHLE Flight Activity (Flightaware)

Listeners: 0 out of 1746 total

Lelystad Tower: 135.180
Lelystad Tower: 123.830

EHMM CTAF (Archives)
Middenmeer, Netherlands

Feed Status: UP
Listen in your browser - HTML5 player(in browser, HTML5)
Click here to listen with your own player(launches your MP3 player)

EHMM Flight Activity (Flightaware)

Listeners: 0 out of 1746 total

Middenmeer CTAF: 123.425

EHMZ (Archives)
Middelburg, Netherlands

Feed Status: UP
Listen in your browser - HTML5 player(in browser, HTML5)
Click here to listen with your own player(launches your MP3 player)

EHMZ Flight Activity (Flightaware)

Listeners: 0 out of 1746 total

Midden-Zeeland Radio: 119.255

EHRD Approach (Archives)
Rotterdam, Netherlands

Feed Status: UP
Listen in your browser - HTML5 player(in browser, HTML5)
Click here to listen with your own player(launches your MP3 player)

EHRD 222055Z AUTO 09006KT 9999 NSC 18/11 Q1009 NOSIG

EHRD Flight Activity (Flightaware)

Listeners: 4 out of 1746 total

Rotterdam Approach: 122.990
Rotterdam Approach: 124.535
Rotterdam Approach: 281.050

EHRD Clearance Delivery (Archives)
Rotterdam, Netherlands

Feed Status: UP
Listen in your browser - HTML5 player(in browser, HTML5)
Click here to listen with your own player(launches your MP3 player)

EHRD 222055Z AUTO 09006KT 9999 NSC 18/11 Q1009 NOSIG

EHRD Flight Activity (Flightaware)

Listeners: 2 out of 1746 total

Rotterdam Del/Gnd: 122.180

EHRD Del/Twr (Archives)
Rotterdam, Netherlands

Feed Status: UP
Listen in your browser - HTML5 player(in browser, HTML5)
Click here to listen with your own player(launches your MP3 player)

EHRD 222055Z AUTO 09006KT 9999 NSC 18/11 Q1009 NOSIG

EHRD Flight Activity (Flightaware)

Listeners: 5 out of 1746 total

Rotterdam Del/Gnd: 122.180
Rotterdam Tower: 118.205

EHRD Gnd/Twr/App (Archives)
Rotterdam, Netherlands

Feed Status: UP
Listen in your browser - HTML5 player(in browser, HTML5)
Click here to listen with your own player(launches your MP3 player)

EHRD 222055Z AUTO 09006KT 9999 NSC 18/11 Q1009 NOSIG

EHRD Flight Activity (Flightaware)

Listeners: 0 out of 1746 total

Adam Info: 124.300
Regional Guard: 119.705
Rotterdam Approach: 127.025
Rotterdam Del/Gnd: 122.180
Rotterdam Tower: 118.205
SAR: 123.100
SAR: 282.800

EHRD Tower (Archives)
Rotterdam, Netherlands

Feed Status: UP
Listen in your browser - HTML5 player(in browser, HTML5)
Click here to listen with your own player(launches your MP3 player)

EHRD 222055Z AUTO 09006KT 9999 NSC 18/11 Q1009 NOSIG

EHRD Flight Activity (Flightaware)

Listeners: 2 out of 1746 total

Rotterdam Tower: 118.205
Rotterdam Tower: 362.300

EHRD Twr/App
Rotterdam, Netherlands

Feed Status: DOWN
Offline since: 2020-03-14 14:15:39 UTC

EHRD 222055Z AUTO 09006KT 9999 NSC 18/11 Q1009 NOSIG

Rotterdam Approach: 127.025
Rotterdam Tower: 118.205

EHTX Gnd/Twr
Texel, Netherlands

Feed Status: DOWN
Offline since: 2021-06-08 14:20:38 UTC

Texel Radio (Ground/Tower): 119.300

EHVL CTAF/Range Control
Vlieland, Netherlands

Feed Status: DOWN
Offline since: 2021-06-08 14:20:38 UTC

EHVL 222055Z AUTO 12009KT 9999 OVC250 16/13 Q1010 BLU

Cornfield VHF (CTAF): 122.100
Range Controller (Primary): 291.650
Range Controller (Secondary): 370.300
Range Controller VHF: 138.075

EICK Approach/Departure (Archives)
Cork, Ireland

Feed Status: UP
Listen in your browser - HTML5 player(in browser, HTML5)
Click here to listen with your own player(launches your MP3 player)

EICK 222030Z 23009KT 210V270 9999 FEW018CB 10/09 Q1007 NOSIG

EICK Flight Activity (Flightaware)

Listeners: 0 out of 1746 total

Cork Approach: 119.900

EICK Gnd/Twr/App/Dep (Archives)
Cork, Ireland

Feed Status: UP
Listen in your browser - HTML5 player(in browser, HTML5)
Click here to listen with your own player(launches your MP3 player)

EICK 222030Z 23009KT 210V270 9999 FEW018CB 10/09 Q1007 NOSIG

EICK Flight Activity (Flightaware)

Listeners: 2 out of 1746 total

Cork Approach: 119.900
Cork Ground: 121.850
Cork Tower: 119.300

EICK Ground/Tower (Archives)
Cork, Ireland

Feed Status: UP
Listen in your browser - HTML5 player(in browser, HTML5)
Click here to listen with your own player(launches your MP3 player)

EICK 222030Z 23009KT 210V270 9999 FEW018CB 10/09 Q1007 NOSIG

EICK Flight Activity (Flightaware)

Listeners: 0 out of 1746 total

Cork Ground: 121.850
Cork Tower: 119.300

EIDW Approach (Archives)
Dublin, Ireland

Feed Status: UP
Listen in your browser - HTML5 player(in browser, HTML5)
Click here to listen with your own player(launches your MP3 player)

EIDW 222030Z 23007KT 9999 FEW018CB SCT250 13/10 Q1004 NOSIG

EIDW Flight Activity (Flightaware)

Listeners: 4 out of 1746 total

Dublin Approach: 121.100

EIDW Approach (Final) (Archives)
Dublin, Ireland

Feed Status: UP
Listen in your browser - HTML5 player(in browser, HTML5)
Click here to listen with your own player(launches your MP3 player)

EIDW 222030Z 23007KT 9999 FEW018CB SCT250 13/10 Q1004 NOSIG

EIDW Flight Activity (Flightaware)

Listeners: 1 out of 1746 total

Dublin Approach (Final): 119.925

EIDW Clearance Delivery (Archives)
Dublin, Ireland

Feed Status: UP
Listen in your browser - HTML5 player(in browser, HTML5)
Click here to listen with your own player(launches your MP3 player)

EIDW 222030Z 23007KT 9999 FEW018CB SCT250 13/10 Q1004 NOSIG

EIDW Flight Activity (Flightaware)

Listeners: 2 out of 1746 total

Dublin Clearance Delivery: 121.875

EIDW Del/Gnd/Twr/App/Center (Archives)
Dublin, Ireland

Feed Status: UP
Listen in your browser - HTML5 player(in browser, HTML5)
Click here to listen with your own player(launches your MP3 player)

EIDW 222030Z 23007KT 9999 FEW018CB SCT250 13/10 Q1004 NOSIG

EIDW Flight Activity (Flightaware)

Listeners: 4 out of 1746 total

Dublin Approach: 121.100
Dublin Approach (backup): 119.550
Dublin Centre North: 129.175
Dublin Centre South: 126.250
Dublin Clearance Delivery: 121.875
Dublin FIS: 118.500
Dublin Ground: 121.800
Dublin Tower: 118.600

EIDW Ground (Archives)
Dublin, Ireland

Feed Status: UP
Listen in your browser - HTML5 player(in browser, HTML5)
Click here to listen with your own player(launches your MP3 player)

EIDW 222030Z 23007KT 9999 FEW018CB SCT250 13/10 Q1004 NOSIG

EIDW Flight Activity (Flightaware)

Listeners: 1 out of 1746 total

Dublin Ground: 121.800

EIDW Ground (North) (Archives)
Dublin, Ireland

Feed Status: UP
Listen in your browser - HTML5 player(in browser, HTML5)
Click here to listen with your own player(launches your MP3 player)

EIDW 222030Z 23007KT 9999 FEW018CB SCT250 13/10 Q1004 NOSIG

EIDW Flight Activity (Flightaware)

Listeners: 2 out of 1746 total

Dublin Ground (North): 118.750

EIDW Tower #1 (Archives)
Dublin, Ireland

Feed Status: UP
Listen in your browser - HTML5 player(in browser, HTML5)
Click here to listen with your own player(launches your MP3 player)

EIDW 222030Z 23007KT 9999 FEW018CB SCT250 13/10 Q1004 NOSIG

EIDW Flight Activity (Flightaware)

Listeners: 1 out of 1746 total

Dublin Tower: 118.600

EIDW Tower #2 (Archives)
Dublin, Ireland

Feed Status: UP
Listen in your browser - HTML5 player(in browser, HTML5)
Click here to listen with your own player(launches your MP3 player)

EIDW 222030Z 23007KT 9999 FEW018CB SCT250 13/10 Q1004 NOSIG

EIDW Flight Activity (Flightaware)

Listeners: 0 out of 1746 total

Dublin Tower: 118.600

EIKN Gnd/Twr/App (Archives)
Charlestown, Ireland

Feed Status: UP
Listen in your browser - HTML5 player(in browser, HTML5)
Click here to listen with your own player(launches your MP3 player)


EIKN Flight Activity (Flightaware)

Listeners: 0 out of 1746 total

Connaught Ground: 121.900
Connaught Tower: 130.700
Shannon Low Level: 119.075

EINN Shannon Control High (East) (Archives)
Shannon, Ireland

Feed Status: UP
Listen in your browser - HTML5 player(in browser, HTML5)
Click here to listen with your own player(launches your MP3 player)

EINN 222030Z 26010KT 9000 -SHRA SCT010 FEW018CB BKN035 12/10 Q1006 NOSIG

EINN Flight Activity (Flightaware)

Listeners: 3 out of 1746 total

Shannon Clearance (Oceanic only): 121.700
Shannon Control: 134.260
Shannon Control: 134.630
Shannon Control: 135.230
Shannon Control: 135.600
Shannon Control: 136.255
Shannon Control (BABAN/DEVOL Sector): 132.150

EINN Shannon Control High (West/Coastal) (Archives)
Shannon, Ireland

Feed Status: UP
Listen in your browser - HTML5 player(in browser, HTML5)
Click here to listen with your own player(launches your MP3 player)

EINN 222030Z 26010KT 9000 -SHRA SCT010 FEW018CB BKN035 12/10 Q1006 NOSIG

EINN Flight Activity (Flightaware)

Listeners: 3 out of 1746 total

Shannon Control: 131.150
Shannon Control: 125.880
Shannon Control: 120.040
Shannon Control: 122.980
Shannon Control: 127.130
Shannon Control: 129.665
Shannon Control: 133.360

EINN Shannon Control Low (Archives)
Shannon, Ireland

Feed Status: UP
Listen in your browser - HTML5 player(in browser, HTML5)
Click here to listen with your own player(launches your MP3 player)

EINN 222030Z 26010KT 9000 -SHRA SCT010 FEW018CB BKN035 12/10 Q1006 NOSIG

EINN Flight Activity (Flightaware)

Listeners: 1 out of 1746 total

Shannon Control (Low): 119.080
Shannon Control Low: 124.700

EINN Twr/App #1 (Archives)
Shannon, Ireland

Feed Status: UP
Listen in your browser - HTML5 player(in browser, HTML5)
Click here to listen with your own player(launches your MP3 player)

EINN 222030Z 26010KT 9000 -SHRA SCT010 FEW018CB BKN035 12/10 Q1006 NOSIG

EINN Flight Activity (Flightaware)

Listeners: 5 out of 1746 total

Aer Lingus Ops: 131.500
Service Air Ops: 131.450
Shannon Approach Radar: 121.400
Shannon Control: Misc
Shannon Ground: 121.800
Shannon Tower: 118.700
Sig Ops (Pre-Clearance): 131.590

ENAL Twr/App (Archives)
Alesund, Norway

Feed Status: UP
Listen in your browser - HTML5 player(in browser, HTML5)
Click here to listen with your own player(launches your MP3 player)

ENAL 222050Z 06003KT 9999 -RA FEW010 BKN055 10/09 Q1007

ENAL Flight Activity (Flightaware)

Listeners: 0 out of 1746 total

More Approach: 129.325
More Approach: 119.350
Vigra Tower: 118.100

ENAT Twr/App/Control (Archives)
Alta, Norway

Feed Status: UP
Listen in your browser - HTML5 player(in browser, HTML5)
Click here to listen with your own player(launches your MP3 player)

ENAT 222050Z VRB03KT 9999 FEW040 BKN049 09/02 Q1013 RMK WIND 700FT 14008KT

ENAT Flight Activity (Flightaware)

Listeners: 0 out of 1746 total

Alta Tower (to boat, Harbour Channel 12): 156.600
Alta Tower (to vehicle): 462.400
Alta Tower/Approach: 120.400
Norway Control: 126.700

ENBO Approach (Archives)
Bodo, Norway

Feed Status: UP
Listen in your browser - HTML5 player(in browser, HTML5)
Click here to listen with your own player(launches your MP3 player)

ENBO 222050Z VRB02KT 9999 FEW005 SCT028 BKN058 08/08 Q1011

ENBO Flight Activity (Flightaware)

Listeners: 0 out of 1746 total

Bodo Approach: 119.700

ENBO Tower (Archives)
Bodo, Norway

Feed Status: UP
Listen in your browser - HTML5 player(in browser, HTML5)
Click here to listen with your own player(launches your MP3 player)

ENBO 222050Z VRB02KT 9999 FEW005 SCT028 BKN058 08/08 Q1011

ENBO Flight Activity (Flightaware)

Listeners: 0 out of 1746 total

Bodo Tower: 118.100

ENCN Tower/Approach (Archives)
Kristiansand, Norway

Feed Status: UP
Listen in your browser - HTML5 player(in browser, HTML5)
Click here to listen with your own player(launches your MP3 player)

ENCN 222050Z 19007KT CAVOK 11/10 Q1012

ENCN Flight Activity (Flightaware)

Listeners: 1 out of 1746 total

Kjevik Tower: 118.100
Kjevik Tower/Approach: 119.950

ENGM App/Polaris ACC (Archives)
Honefoss, Norway

Feed Status: UP
Listen in your browser - HTML5 player(in browser, HTML5)
Click here to listen with your own player(launches your MP3 player)

ENEG Flight Activity (Flightaware)

Listeners: 1 out of 1746 total

ENGM Approach (East): 118.475
ENGM Approach (West): 120.450
Polaris ACC Sector 4: 118.875
Polaris ACC Sector 7: 124.775
Polaris ACC Sector 8: 134.350

ENEV Twr/App/ACC (Archives)
Evenes, Norway

Feed Status: UP
Listen in your browser - HTML5 player(in browser, HTML5)
Click here to listen with your own player(launches your MP3 player)

ENEV 222050Z 36003KT 9999 BKN088 09/07 Q1012 RMK WIND 1400FT 07004KT

ENEV Flight Activity (Flightaware)

Listeners: 0 out of 1746 total

Evenes Approach: 120.100
Evenes Tower: 118.000
Norway ACC (Bodo Sector 25): 126.450

ENGK Info (Archives)
Arendal, Norway

Feed Status: UP
Listen in your browser - HTML5 player(in browser, HTML5)
Click here to listen with your own player(launches your MP3 player)


ENGK Flight Activity (Flightaware)

Listeners: 0 out of 1746 total

Gullknapp Info: 129.900

ENGM App/Director/Final (Archives)
Oslo, Norway

Feed Status: UP
Listen in your browser - HTML5 player(in browser, HTML5)
Click here to listen with your own player(launches your MP3 player)

ENGM 222050Z 19004KT CAVOK 10/08 Q1011 NOSIG

ENGM Flight Activity (Flightaware)

Listeners: 4 out of 1746 total

Oslo Approach: 120.450
Oslo Approach: 118.475
Oslo Approach (Final): 128.900
Oslo Director: 136.400
Oslo Director: 119.975

ENGM App/Polaris ACC (Archives)
Oslo, Norway

Feed Status: UP
Listen in your browser - HTML5 player(in browser, HTML5)
Click here to listen with your own player(launches your MP3 player)

ENEG Flight Activity (Flightaware)

Listeners: 1 out of 1746 total

ENGM Approach (East): 118.475
ENGM Approach (West): 120.450
Polaris ACC Sector 4: 118.875
Polaris ACC Sector 7: 124.775
Polaris ACC Sector 8: 134.350

ENGM Tower (Archives)
Oslo, Norway

Feed Status: UP
Listen in your browser - HTML5 player(in browser, HTML5)
Click here to listen with your own player(launches your MP3 player)

ENGM 222050Z 19004KT CAVOK 10/08 Q1011 NOSIG

ENGM Flight Activity (Flightaware)

Listeners: 0 out of 1746 total

Oslo Tower (East): 120.100
Oslo Tower (West): 118.300

ENHD Tower (Archives)
Haugesund, Norway

Feed Status: UP
Listen in your browser - HTML5 player(in browser, HTML5)
Click here to listen with your own player(launches your MP3 player)

ENHD 222050Z 15014KT 9999 -DZ BKN045 13/08 Q1008

ENHD Flight Activity (Flightaware)

Listeners: 0 out of 1746 total

Karmoy Tower: 120.500

ENJB CTAF (Archives)
Tonsberg, Norway

Feed Status: UP
Listen in your browser - HTML5 player(in browser, HTML5)
Click here to listen with your own player(launches your MP3 player)

ENTO 222050Z 17005KT CAVOK 10/10 Q1012 NOSIG

ENTO Flight Activity (Flightaware)

Listeners: 0 out of 1746 total

Jarlsberg CTAF: 122.300

ENLI CTAF (Archives)
Farsund, Norway

Feed Status: UP
Listen in your browser - HTML5 player(in browser, HTML5)
Click here to listen with your own player(launches your MP3 player)

ENLI Flight Activity (Flightaware)

Listeners: 0 out of 1746 total

Lista Traffic/Lista Radio: 126.450

ENOR Sector 8
Moss, Norway

Feed Status: DOWN
Offline since: 2022-03-03 14:42:39 UTC

Norway Center (FIR) Sector 8: 118.875

ENRY Tower
Moss, Norway

Feed Status: DOWN
Offline since: 2022-03-03 14:42:39 UTC

ENRY 222050Z AUTO 16005KT 9999NDV NCD 10/08 Q1012

Rygge Tower: 119.500

ENTC Tower/App
Langnes, Norway

Feed Status: DOWN
Offline since: 2022-01-24 03:03:38 UTC

ENTC 222050Z 05005KT 9999 FEW040 BKN060 09/04 Q1012 NOSIG RMK WIND 2600FT 14003KT

Langnes Tower: 118.300
Langnes VDF (Approach): 123.750

ENTO App/Dep (Archives)
Sandefjord, Norway

Feed Status: UP
Listen in your browser - HTML5 player(in browser, HTML5)
Click here to listen with your own player(launches your MP3 player)

ENTO 222050Z 17005KT CAVOK 10/10 Q1012 NOSIG

ENTO Flight Activity (Flightaware)

Listeners: 0 out of 1746 total

Sandefjord Approach (TMA): 134.050

ENTO Control Sector 4 (Archives)
Sandefjord, Norway

Feed Status: UP
Listen in your browser - HTML5 player(in browser, HTML5)
Click here to listen with your own player(launches your MP3 player)

ENTO 222050Z 17005KT CAVOK 10/10 Q1012 NOSIG

ENTO Flight Activity (Flightaware)

Listeners: 1 out of 1746 total

Norway control Sector 4: 118.875

ENTO Tower (Archives)
Sandefjord, Norway

Feed Status: UP
Listen in your browser - HTML5 player(in browser, HTML5)
Click here to listen with your own player(launches your MP3 player)

ENTO 222050Z 17005KT CAVOK 10/10 Q1012 NOSIG

ENTO Flight Activity (Flightaware)

Listeners: 0 out of 1746 total

Sandefjord Tower: 118.650

ENTO Tower/App (Archives)
Sandefjord, Norway

Feed Status: UP
Listen in your browser - HTML5 player(in browser, HTML5)
Click here to listen with your own player(launches your MP3 player)

ENTO 222050Z 17005KT CAVOK 10/10 Q1012 NOSIG

ENTO Flight Activity (Flightaware)

Listeners: 0 out of 1746 total

ENJB Tonsberg Airport - Jarlsberg - CTAF: 122.300
Farris Approach (TCA): 134.050
Sandefjord Tower: 118.650

ENTO Twr/App (Archives)
Sandefjord, Norway

Feed Status: UP
Listen in your browser - HTML5 player(in browser, HTML5)
Click here to listen with your own player(launches your MP3 player)

ENTO 222050Z 17005KT CAVOK 10/10 Q1012 NOSIG

ENTO Flight Activity (Flightaware)

Listeners: 0 out of 1746 total

Sandefjord Approach (TMA): 134.050
Sandefjord Tower: 118.650

ENVA Gnd/Twr/App (Archives)
Trondheim, Norway

Feed Status: UP
Listen in your browser - HTML5 player(in browser, HTML5)
Click here to listen with your own player(launches your MP3 player)

ENVA 222050Z 14005KT CAVOK 13/06 Q1008 RMK WIND 670FT 15010KT

ENVA Flight Activity (Flightaware)

Listeners: 2 out of 1746 total

Trondheim Approach: 118.600
Trondheim Ground: 121.600
Trondheim Tower: 119.400

ENZV Gnd/Twr/App (Archives)
Stavanger, Norway

Feed Status: UP
Listen in your browser - HTML5 player(in browser, HTML5)
Click here to listen with your own player(launches your MP3 player)

ENZV 222050Z 15010KT 9999 VCSH SCT049 BKN062 13/09 Q1009

ENZV Flight Activity (Flightaware)

Listeners: 1 out of 1746 total

Sola Approach/Departure: 119.600
Sola Ground: 121.750
Sola Tower: 118.350

EPGD Tower/Approach
Gdansk, Poland

Feed Status: DOWN
Offline since: 2022-02-08 12:55:38 UTC

EPGD 222030Z 26003KT CAVOK 08/03 Q1014

Gdansk Approach: 127.275
Gdansk Tower: 118.100

EPKK Tower/App (Archives)
Krakow, Poland

Feed Status: UP
Listen in your browser - HTML5 player(in browser, HTML5)
Click here to listen with your own player(launches your MP3 player)

EPKK 222030Z 31007KT 9999 BKN060 12/08 Q1014

EPKK Flight Activity (Flightaware)

Listeners: 4 out of 1746 total

Krakow Approach: 121.075
Krakow Approach: 123.255
Krakow Tower: 123.255

EPKR CTAF (Archives)
Krosno, Poland

Feed Status: UP
Listen in your browser - HTML5 player(in browser, HTML5)
Click here to listen with your own player(launches your MP3 player)

EPKR Flight Activity (Flightaware)

Listeners: 0 out of 1746 total

Krosno CTAF: 119.555

EPKT Del/Twr/App (Archives)
Katowice, Poland

Feed Status: UP
Listen in your browser - HTML5 player(in browser, HTML5)
Click here to listen with your own player(launches your MP3 player)

EPKT 222030Z 26001KT 9999 MIFG NSC 08/07 Q1014

EPKT Flight Activity (Flightaware)

Listeners: 0 out of 1746 total

Katowice Delivery: 121.800
Katowice Tower: 129.250
Krakow Approach: 135.400
Krakow Approach: 121.075

EPKT Delivery/Approach (Archives)
Katowice, Poland

Feed Status: UP
Listen in your browser - HTML5 player(in browser, HTML5)
Click here to listen with your own player(launches your MP3 player)

EPKT 222030Z 26001KT 9999 MIFG NSC 08/07 Q1014

EPKT Flight Activity (Flightaware)

Listeners: 0 out of 1746 total

Katowice Delivery: 121.800
Krakow Approach: 121.075

EPKT Tower/Approach (Archives)
Katowice, Poland

Feed Status: UP
Listen in your browser - HTML5 player(in browser, HTML5)
Click here to listen with your own player(launches your MP3 player)

EPKT 222030Z 26001KT 9999 MIFG NSC 08/07 Q1014

EPKT Flight Activity (Flightaware)

Listeners: 0 out of 1746 total

Katowice Tower: 129.250
Krakow Approach: 135.400

EPLL Tower (Archives)
Lodz, Poland

Feed Status: UP
Listen in your browser - HTML5 player(in browser, HTML5)
Click here to listen with your own player(launches your MP3 player)

EPLL 222030Z 34002KT CAVOK 11/07 Q1013

EPLL Flight Activity (Flightaware)

Listeners: 1 out of 1746 total

Lodz Tower: 124.230

EPLS CTAF/Radio (Archives)
Leszno, Poland

Feed Status: UP
Listen in your browser - HTML5 player(in browser, HTML5)
Click here to listen with your own player(launches your MP3 player)

EPLS Flight Activity (Flightaware)

Listeners: 1 out of 1746 total

Leszno Radio: 122.305

EPPO Twr/App/FIS (Archives)
Poznan, Poland

Feed Status: UP
Listen in your browser - HTML5 player(in browser, HTML5)
Click here to listen with your own player(launches your MP3 player)

EPPO 222030Z 31004KT CAVOK 11/09 Q1015

EPPO Flight Activity (Flightaware)

Listeners: 0 out of 1746 total

Poznan Approach: 129.025
Poznan Approach: 127.225
Poznan FIS: 126.300
Poznan Tower: 119.975

EPRZ Del/Twr/EPWW Radar
Jasionka, Poland

Feed Status: DOWN
Offline since: 2022-02-26 08:35:38 UTC

EPRZ 222030Z 28007KT 9999 BKN036 12/07 Q1012

EPWW Radar: 134.175
EPWW Radar: 120.950
Rzeszow Delivery: 121.800
Rzeszow Tower: 126.800

EPWA Approach #1 (Archives)
Warsaw, Poland

Feed Status: UP
Listen in your browser - HTML5 player(in browser, HTML5)
Click here to listen with your own player(launches your MP3 player)

EPWA 222030Z 33013KT 9999 BKN024 11/06 Q1012 NOSIG

EPWA Flight Activity (Flightaware)

Listeners: 7 out of 1746 total

Warsaw Approach: 128.805

EPWA Approach #2 (Archives)
Warsaw, Poland

Feed Status: UP
Listen in your browser - HTML5 player(in browser, HTML5)
Click here to listen with your own player(launches your MP3 player)

EPWA 222030Z 33013KT 9999 BKN024 11/06 Q1012 NOSIG

EPWA Flight Activity (Flightaware)

Listeners: 0 out of 1746 total

Warsaw Approach: 125.055

EPWA Ground (Archives)
Warsaw, Poland

Feed Status: UP
Listen in your browser - HTML5 player(in browser, HTML5)
Click here to listen with your own player(launches your MP3 player)

EPWA 222030Z 33013KT 9999 BKN024 11/06 Q1012 NOSIG

EPWA Flight Activity (Flightaware)

Listeners: 0 out of 1746 total

Warsaw Ground: 121.900

EPWA Tower (Archives)
Warsaw, Poland

Feed Status: UP
Listen in your browser - HTML5 player(in browser, HTML5)
Click here to listen with your own player(launches your MP3 player)

EPWA 222030Z 33013KT 9999 BKN024 11/06 Q1012 NOSIG

EPWA Flight Activity (Flightaware)

Listeners: 2 out of 1746 total

Warsaw Tower: 118.300

EPWR Twr/App (Archives)
Wroclaw, Poland

Feed Status: UP
Listen in your browser - HTML5 player(in browser, HTML5)
Click here to listen with your own player(launches your MP3 player)

EPPO 222030Z 31004KT CAVOK 11/09 Q1015

EPPO Flight Activity (Flightaware)

Listeners: 5 out of 1746 total

Poznan Approach (South): 127.225

EPRZ Del/Twr/EPWW Radar
Jasionka, Poland

Feed Status: DOWN
Offline since: 2022-02-26 08:35:38 UTC

EPRZ 222030Z 28007KT 9999 BKN036 12/07 Q1012

EPWW Radar: 134.175
EPWW Radar: 120.950
Rzeszow Delivery: 121.800
Rzeszow Tower: 126.800

ESMQ Tower (Archives)
Kalmar, Sweden

Feed Status: UP
Listen in your browser - HTML5 player(in browser, HTML5)
Click here to listen with your own player(launches your MP3 player)

ESMQ 222050Z 00000KT CAVOK ///// Q1014

ESMQ Flight Activity (Flightaware)

Listeners: 3 out of 1746 total

Kalmar Tower: 130.805

ESMS Radar (Archives)
Svedala, Sweden

Feed Status: UP
Listen in your browser - HTML5 player(in browser, HTML5)
Click here to listen with your own player(launches your MP3 player)

ESMS 222050Z VRB02KT CAVOK 08/07 Q1014

ESMS Flight Activity (Flightaware)

Listeners: 1 out of 1746 total

Sweden Control (Sector L, Malmo): 134.980

ESMS Tower (Archives)
Svedala, Sweden

Feed Status: UP
Listen in your browser - HTML5 player(in browser, HTML5)
Click here to listen with your own player(launches your MP3 player)

ESMS 222050Z VRB02KT CAVOK 08/07 Q1014

ESMS Flight Activity (Flightaware)

Listeners: 0 out of 1746 total

Malmo Tower: 118.800

ESOE Tower/Control
Orebro, Sweden

Feed Status: DOWN
Offline since: 2022-05-14 03:53:38 UTC

ESOE 222050Z AUTO 16003KT 9999 NCD 10/05 Q1013

Orebro Tower: 120.275
Orebro Tower: 120.280
Sweden Control: 131.125
Sweden Control (aircraft only): 131.125

ESOW Twr/CTAF/Control (Archives)
Stockholm, Sweden

Feed Status: UP
Listen in your browser - HTML5 player(in browser, HTML5)
Click here to listen with your own player(launches your MP3 player)

ESOW 222050Z AUTO 15006KT 9999 NCD 09/02 Q1014

ESOW Flight Activity (Flightaware)

Listeners: 2 out of 1746 total

Arlanda Approach: 123.750
Arlanda Approach: 126.655
Arlanda Approach: 130.325
Arlanda Departure: 124.100
Arlanda Tower: 118.505
Arlanda Tower: 128.725
Enkoping/Langtora: 123.525
Eskilstuna: 126.850
Frolunda: 123.400
Johannisberg CTAF: 123.650
Ska Edeby: 123.350
Stockholm Control: 120.155
Stockholm Control: 118.405
Stockholm Control: 118.280
Sweden Control: 133.260
Sweden Control: 129.175
Sweden Control: 131.130
Uppsala Tower: 119.200
Uppsala/Sundbro: 123.350
Vasteras Control: 125.955
Vasteras Tower: 130.600

ESPA Twr/Control (Archives)
Lulea, Sweden

Feed Status: UP
Listen in your browser - HTML5 player(in browser, HTML5)
Click here to listen with your own player(launches your MP3 player)

ESPA 222050Z VRB02KT CAVOK 10/04 Q1011

ESPA Flight Activity (Flightaware)

Listeners: 0 out of 1746 total

Emergency/Guard: 121.500
Kallax Control: 125.450
Kallax Tower: 128.200
Sweden Control North: 131.050

ESSG Misc (Archives)
Ludvika, Sweden

Feed Status: UP
Listen in your browser - HTML5 player(in browser, HTML5)
Click here to listen with your own player(launches your MP3 player)

ESSG Flight Activity (Flightaware)

Listeners: 1 out of 1746 total

Borlange Tower: 127.305
Club Frequency: 123.375
Club Frequency: 123.450
Club Frequency: 123.425
Club Frequency: 123.525
Club Frequency: 123.350
Club Frequency: 123.300
Club Frequency: 123.200
Club Frequency: 123.550
Club Frequency: 123.600
Club Frequency: 123.650
Emergency/Guard: 121.500
Hagfors Airport: 122.230
Karlstad Airport: 119.455
Ludvika Club Freq: 123.150
Mora Airport: 119.055
Orebro Airport: 120.280
Orsa Club Frequency: 123.400
Orsa Club Frequency: 123.500
Scandinavian Mountains Airport: 124.460
Search and Rescue: 123.100
Sweden Control: 131.055
Sweden Control: 131.125
Sweden Control: 131.155
Sweden Control: 132.765
Sweden Control: 131.130
Sweden Control: 129.180
Sweden Control: 128.630
Sweden Control: 132.150
Torsby Airport: 122.055
Vasteras Control: 125.955

ESSL Twr/App/Control (Archives)
Linkoping, Sweden

Feed Status: UP
Listen in your browser - HTML5 player(in browser, HTML5)
Click here to listen with your own player(launches your MP3 player)

ESSL 222050Z 14003KT CAVOK 11/M00 Q1013

ESSL Flight Activity (Flightaware)

Listeners: 0 out of 1746 total

Emergency/Guard: 121.500
Linkoping Tower: 118.800
Linkoping Tower (Secondary): 123.400
Ostgota Control: 127.350
Ostgota Control: 126.400
Ostgota Control: 135.850
Ostgota Control: 132.950
Ostgota Control: 128.700
Ostgota Control (Malmen Sector): 133.100
Ostgota Control/Sweden Control: 118.400

ESSP Twr/App/Control (Archives)
Norrkoping, Sweden

Feed Status: UP
Listen in your browser - HTML5 player(in browser, HTML5)
Click here to listen with your own player(launches your MP3 player)

ESSP 222050Z AUTO 08005KT 9999 NCD 07/02 Q1014

ESSP Flight Activity (Flightaware)

Listeners: 0 out of 1746 total

Kungsangen Tower: 120.355
Osgota Approach/Departure: 132.955
Sweden Control: 118.280
Sweden Control: 118.405
Sweden Control: 134.455

ESVQ CTAF
Koping, Sweden

Feed Status: DOWN
Offline since: 2021-09-28 07:56:21 UTC

Koping CTAF: 123.150

EVRA Approach (Archives)
Riga, Latvia

Feed Status: UP
Listen in your browser - HTML5 player(in browser, HTML5)
Click here to listen with your own player(launches your MP3 player)

EVRA 222050Z 30003KT 270V330 CAVOK 09/06 Q1011 NOSIG

EVRA Flight Activity (Flightaware)

Listeners: 0 out of 1746 total

Riga Approach: 129.925

EVRA CTAF (Archives)
Riga, Latvia

Feed Status: UP
Listen in your browser - HTML5 player(in browser, HTML5)
Click here to listen with your own player(launches your MP3 player)

EVRA 222050Z 30003KT 270V330 CAVOK 09/06 Q1011 NOSIG

EVRA Flight Activity (Flightaware)

Listeners: 0 out of 1746 total

Riga Approach (evenings): 134.850
Riga CTAF: 123.950

EVRA FIC (Archives)
Riga, Latvia

Feed Status: UP
Listen in your browser - HTML5 player(in browser, HTML5)
Click here to listen with your own player(launches your MP3 player)

EVRA 222050Z 30003KT 270V330 CAVOK 09/06 Q1011 NOSIG

EVRA Flight Activity (Flightaware)

Listeners: 0 out of 1746 total

Riga FIC: 120.225

EVRA Tower/Guard (Archives)
Riga, Latvia

Feed Status: UP
Listen in your browser - HTML5 player(in browser, HTML5)
Click here to listen with your own player(launches your MP3 player)

EVRA 222050Z 30003KT 270V330 CAVOK 09/06 Q1011 NOSIG

EVRA Flight Activity (Flightaware)

Listeners: 0 out of 1746 total

Emergency/Guard: 121.500
Riga Tower: 118.100

EYVI Twr/App/Misc (Archives)
Vilnius, Lithuania

Feed Status: UP
Listen in your browser - HTML5 player(in browser, HTML5)
Click here to listen with your own player(launches your MP3 player)

EYVI 222050Z 02002KT CAVOK 09/04 Q1009 NOSIG

EYVI Flight Activity (Flightaware)

Listeners: 0 out of 1746 total

Emergency / GUARD: 121.500
FlyLAL, AirBaltic transit services: 131.900
FlyLAL, AirBaltic transit services: 131.600
FlyLAL, AirBaltic transit services: 131.500
Kaunas Approach (EYKA): 124.200
Vilnius Approach: 120.700
Vilnius Control: 132.275
Vilnius Control: 133.425
Vilnius Control: 133.300
Vilnius FIS: 123.850
Vilnius Tower: 118.200
Zokniai A/G (mil): 122.775

FIMP Twr/App/Ctr #1 (Archives)
Plaine Magnien, Mauritius

Feed Status: UP
Listen in your browser - HTML5 player(in browser, HTML5)
Click here to listen with your own player(launches your MP3 player)

FIMP 222000Z 14007KT 9999 VCSH BKN017 24/18 Q1018


Listeners: 0 out of 1746 total

FIMP Approach: 119.100
FIMP Tower: 118.100
FMEE Approach/Departure: 127.200
Mauritius Centre: 129.300

FIMP Twr/App/Ctr #2 (Archives)
Plaine Magnien, Mauritius

Feed Status: UP
Listen in your browser - HTML5 player(in browser, HTML5)
Click here to listen with your own player(launches your MP3 player)

FIMP 222000Z 14007KT 9999 VCSH BKN017 24/18 Q1018


Listeners: 0 out of 1746 total

FIMP Approach: 119.100
FIMP Tower: 118.100
Mauritius Centre: 129.300

FMEP Info (Archives)
Saint-Pierre, Reunion

Feed Status: UP
Listen in your browser - HTML5 player(in browser, HTML5)
Click here to listen with your own player(launches your MP3 player)

FMEP 222030Z AUTO 09006KT 030V140 CAVOK 22/16 Q1017


Listeners: 0 out of 1746 total

Saint-Pierre Info: 122.400

FMMI Twr/App/Center (Archives)
Antananarivo, Madagascar

Feed Status: UP
Listen in your browser - HTML5 player(in browser, HTML5)
Click here to listen with your own player(launches your MP3 player)

FMMI 222030Z 10004KT 9999 FEW020 14/14 Q1022 NOSIG


Listeners: 1 out of 1746 total

Ivato Approach: 125.700
Ivato Tower: 120.100
Tana Control: 128.900

GOBD Gnd/Twr/App (Archives)
Dakar, Senegal

Feed Status: UP
Listen in your browser - HTML5 player(in browser, HTML5)
Click here to listen with your own player(launches your MP3 player)

GOBD 222030Z 33011KT 9999 FEW013 21/18 Q1013 NOSIG


Listeners: 0 out of 1746 total

Dakar Approach/Departure: 120.500
Dakar Ground: 121.800
Dakar Tower: 118.800

LBBG Twr/App (Archives)
Burgas, Bulgaria

Feed Status: UP
Listen in your browser - HTML5 player(in browser, HTML5)
Click here to listen with your own player(launches your MP3 player)

LBBG 222100Z AUTO 01003KT 9999 NCD 14/09 Q1008 NOSIG

LBBG Flight Activity (Flightaware)

Listeners: 0 out of 1746 total

Burgas Approach: 125.100
Burgas Tower: 118.000

LBPD Tower (Archives)
Plovdiv, Bulgaria

Feed Status: UP
Listen in your browser - HTML5 player(in browser, HTML5)
Click here to listen with your own player(launches your MP3 player)

LBSF 222100Z AUTO 01003KT 320V070 9999 NCD 15/10 Q1012 NOSIG

LBSF Flight Activity (Flightaware)

Listeners: 0 out of 1746 total

Plovdiv Tower: 125.500
Plovdiv Tower: 133.600

LBSF ATIS (Archives)
Sofia, Bulgaria

Feed Status: UP
Listen in your browser - HTML5 player(in browser, HTML5)
Click here to listen with your own player(launches your MP3 player)

LBSF 222100Z AUTO 01003KT 320V070 9999 NCD 15/10 Q1012 NOSIG

LBSF Flight Activity (Flightaware)

Listeners: 0 out of 1746 total

Sofia ATIS: 126.680

LBSF Sofia Control East (Archives)
Sofia, Bulgaria

Feed Status: UP
Listen in your browser - HTML5 player(in browser, HTML5)
Click here to listen with your own player(launches your MP3 player)

LBSF 222100Z AUTO 01003KT 320V070 9999 NCD 15/10 Q1012 NOSIG

LBSF Flight Activity (Flightaware)

Listeners: 1 out of 1746 total

Sofia Control (East/Middle Sector): 129.100
Sofia Control (Varna Sector): 134.700

LBSF Twr/App #1 (Archives)
Sofia, Bulgaria

Feed Status: UP
Listen in your browser - HTML5 player(in browser, HTML5)
Click here to listen with your own player(launches your MP3 player)

LBSF 222100Z AUTO 01003KT 320V070 9999 NCD 15/10 Q1012 NOSIG

LBSF Flight Activity (Flightaware)

Listeners: 3 out of 1746 total

Sofia Approach: 123.700
Sofia Approach: 129.900
Sofia Tower: 118.100
Sofia Tower: 120.200

LBSF Twr/App #2 (Archives)
Sofia, Bulgaria

Feed Status: UP
Listen in your browser - HTML5 player(in browser, HTML5)
Click here to listen with your own player(launches your MP3 player)

LBSF 222100Z AUTO 01003KT 320V070 9999 NCD 15/10 Q1012 NOSIG

LBSF Flight Activity (Flightaware)

Listeners: 0 out of 1746 total

Sofia Approach: 123.700
Sofia Tower: 118.100

LBWN Tower/Approach
Varna, Bulgaria

Feed Status: DOWN
Offline since: 2021-12-02 23:55:39 UTC

LBWN 222100Z AUTO 09005KT 9999 NSC 15/09 Q1008 NOSIG

Varna Approach: 121.000
Varna Tower: 119.500

Bordeaux Control (Archives)
Bordeaux, France

Feed Status: UP
Listen in your browser - HTML5 player(in browser, HTML5)
Click here to listen with your own player(launches your MP3 player)

LFBD 222030Z AUTO 24012KT CAVOK 21/17 Q1008 TEMPO 24015G25KT 4000 -RA BKN007 SCT070TCU

LFBD Flight Activity (Flightaware)

Listeners: 1 out of 1746 total

Air to Air: 123.450
Bordeaux Control BN FL<300: 127.675
Bordeaux Control L3 FL>300: 134.250
Bordeaux Control R2 FL>300: 133.575
Emergency/Guard: 121.500

LFBD Aquitane Approach (Archives)
Bordeaux, France

Feed Status: UP
Listen in your browser - HTML5 player(in browser, HTML5)
Click here to listen with your own player(launches your MP3 player)

LFBD 222030Z AUTO 24012KT CAVOK 21/17 Q1008 TEMPO 24015G25KT 4000 -RA BKN007 SCT070TCU

LFBD Flight Activity (Flightaware)

Listeners: 1 out of 1746 total

Aquitane Approach: 129.875

LFBD ATIS (Archives)
Bordeaux, France

Feed Status: UP
Listen in your browser - HTML5 player(in browser, HTML5)
Click here to listen with your own player(launches your MP3 player)

LFBD 222030Z AUTO 24012KT CAVOK 21/17 Q1008 TEMPO 24015G25KT 4000 -RA BKN007 SCT070TCU

LFBD Flight Activity (Flightaware)

Listeners: 0 out of 1746 total

Merignac ATIS: 131.150

LFBD Bordeaux Control Sector X1 (Archives)
Bordeaux, France

Feed Status: UP
Listen in your browser - HTML5 player(in browser, HTML5)
Click here to listen with your own player(launches your MP3 player)

LFBD 222030Z AUTO 24012KT CAVOK 21/17 Q1008 TEMPO 24015G25KT 4000 -RA BKN007 SCT070TCU

LFBD Flight Activity (Flightaware)

Listeners: 1 out of 1746 total

Bordeaux Control (Sector X1): 118.425

LFBD Ground
Bordeaux, France

Feed Status: DOWN
Offline since: 2022-05-19 23:26:23 UTC

LFBD 222030Z AUTO 24012KT CAVOK 21/17 Q1008 TEMPO 24015G25KT 4000 -RA BKN007 SCT070TCU

Merignac Ground: 121.900

LFBD Tower (Archives)
Bordeaux, France

Feed Status: UP
Listen in your browser - HTML5 player(in browser, HTML5)
Click here to listen with your own player(launches your MP3 player)

LFBD 222030Z AUTO 24012KT CAVOK 21/17 Q1008 TEMPO 24015G25KT 4000 -RA BKN007 SCT070TCU

LFBD Flight Activity (Flightaware)

Listeners: 2 out of 1746 total

Merignac Tower: 118.300

Bordeaux Control (Archives)
Angouleme, France

Feed Status: UP
Listen in your browser - HTML5 player(in browser, HTML5)
Click here to listen with your own player(launches your MP3 player)

LFBD 222030Z AUTO 24012KT CAVOK 21/17 Q1008 TEMPO 24015G25KT 4000 -RA BKN007 SCT070TCU

LFBD Flight Activity (Flightaware)

Listeners: 1 out of 1746 total

Air to Air: 123.450
Bordeaux Control BN FL<300: 127.675
Bordeaux Control L3 FL>300: 134.250
Bordeaux Control R2 FL>300: 133.575
Emergency/Guard: 121.500

LFLL Tower (Archives)
Lyon, France

Feed Status: UP
Listen in your browser - HTML5 player(in browser, HTML5)
Click here to listen with your own player(launches your MP3 player)

LFLL 222030Z 18010KT CAVOK 25/13 Q1008 NOSIG

LFLL Flight Activity (Flightaware)

Listeners: 1 out of 1746 total

Lyon Tower: 120.450

Lyon FIS (Archives)
Lyon, France

Feed Status: UP
Listen in your browser - HTML5 player(in browser, HTML5)
Click here to listen with your own player(launches your MP3 player)

LFLL 222030Z 18010KT CAVOK 25/13 Q1008 NOSIG

LFLL Flight Activity (Flightaware)

Listeners: 0 out of 1746 total

Lyon FIS: 135.200

LFLP Twr/LFLB App
Annecy, France

Feed Status: DOWN
Offline since: 2022-05-22 18:07:40 UTC

LFLP 222030Z AUTO 07005KT 040V120 9999 FEW082 SCT120 BKN150 22/17 Q1011

Annecy Tower: 118.200
Chambery Approach: 121.205
Chambery Info: 123.700

LFLY Tower (Archives)
Bron, France

Feed Status: UP
Listen in your browser - HTML5 player(in browser, HTML5)
Click here to listen with your own player(launches your MP3 player)

LFLY 222030Z AUTO VRB03KT CAVOK 25/15 Q1008 NOSIG

LFLY Flight Activity (Flightaware)

Listeners: 0 out of 1746 total

Lyon-Bron Tower: 118.100

Lyon FIS (Archives)
Bron, France

Feed Status: UP
Listen in your browser - HTML5 player(in browser, HTML5)
Click here to listen with your own player(launches your MP3 player)

LFLL 222030Z 18010KT CAVOK 25/13 Q1008 NOSIG

LFLL Flight Activity (Flightaware)

Listeners: 0 out of 1746 total

Lyon FIS: 135.200

LFMD Ground/Tower (Archives)
Cannes, France

Feed Status: UP
Listen in your browser - HTML5 player(in browser, HTML5)
Click here to listen with your own player(launches your MP3 player)

LFMD 222030Z AUTO 15003KT 110V180 9999 BKN018 OVC023 21/18 Q1012 TEMPO BKN012

LFMD Flight Activity (Flightaware)

Listeners: 0 out of 1746 total

Cannes Ground: 121.805
Cannes Tower: 118.625

LFMN Approach (Archives)
Nice, France

Feed Status: UP
Listen in your browser - HTML5 player(in browser, HTML5)
Click here to listen with your own player(launches your MP3 player)

LFMN 222030Z 12002KT 9999 FEW014 SCT033 BKN300 21/19 Q1012 NOSIG

LFMN Flight Activity (Flightaware)

Listeners: 0 out of 1746 total

Nice Approach: 128.205

LFMN Control (High) (Archives)
Nice, France

Feed Status: UP
Listen in your browser - HTML5 player(in browser, HTML5)
Click here to listen with your own player(launches your MP3 player)

LFMN 222030Z 12002KT 9999 FEW014 SCT033 BKN300 21/19 Q1012 NOSIG

LFMN Flight Activity (Flightaware)

Listeners: 0 out of 1746 total

Marseille Control Sector K1 (FL245-FL305): 126.780

LFMN FIS/Approach (Archives)
Nice, France

Feed Status: UP
Listen in your browser - HTML5 player(in browser, HTML5)
Click here to listen with your own player(launches your MP3 player)

LFMN 222030Z 12002KT 9999 FEW014 SCT033 BKN300 21/19 Q1012 NOSIG

LFMN Flight Activity (Flightaware)

Listeners: 0 out of 1746 total

Nice FIS/Approach (TMA4 NICE 2500ft - FL115): 120.850

LFMN Ground/Tower (Archives)
Nice, France

Feed Status: UP
Listen in your browser - HTML5 player(in browser, HTML5)
Click here to listen with your own player(launches your MP3 player)

LFMN 222030Z 12002KT 9999 FEW014 SCT033 BKN300 21/19 Q1012 NOSIG

LFMN Flight Activity (Flightaware)

Listeners: 1 out of 1746 total

Nice Ground: 121.700
Nice Tower: 118.700

LFPO Approach (Archives)
Paris, France

Feed Status: UP
Listen in your browser - HTML5 player(in browser, HTML5)
Click here to listen with your own player(launches your MP3 player)

LFPO 222030Z 05008KT CAVOK 19/13 Q1008 NOSIG

LFPO Flight Activity (Flightaware)

Listeners: 20 out of 1746 total

Orly Approach: 124.450
Orly Approach: 118.850
Orly Approach: 120.850
Orly Approach: 123.875

LFPO Departure (Archives)
Paris, France

Feed Status: UP
Listen in your browser - HTML5 player(in browser, HTML5)
Click here to listen with your own player(launches your MP3 player)

LFPO 222030Z 05008KT CAVOK 19/13 Q1008 NOSIG

LFPO Flight Activity (Flightaware)

Listeners: 1 out of 1746 total

Orly Departure: 127.750

LFPO Tower (Archives)
Paris, France

Feed Status: UP
Listen in your browser - HTML5 player(in browser, HTML5)
Click here to listen with your own player(launches your MP3 player)

LFPO 222030Z 05008KT CAVOK 19/13 Q1008 NOSIG

LFPO Flight Activity (Flightaware)

Listeners: 9 out of 1746 total

Orly Tower: 120.500
Orly Tower: 118.700

LFPZ ATIS
Villacoublay, France

Feed Status: DOWN
Offline since: 2022-04-18 13:56:39 UTC

St. Cyr-L'Ecole ATIS: 131.025

LFPZ Tower
Villacoublay, France

Feed Status: DOWN
Offline since: 2022-04-18 12:22:39 UTC

St. Cyr-L'Ecole Tower: 118.000

LHBP Approach (Archives)
Budapest, Hungary

Feed Status: UP
Listen in your browser - HTML5 player(in browser, HTML5)
Click here to listen with your own player(launches your MP3 player)

LHBP 222100Z 34004KT CAVOK 12/06 Q1013 NOSIG

LHBP Flight Activity (Flightaware)

Listeners: 2 out of 1746 total

Budapest Approach: 122.975
Budapest Approach (Upper): 123.860

LHBP Approach (Director) (Archives)
Budapest, Hungary

Feed Status: UP
Listen in your browser - HTML5 player(in browser, HTML5)
Click here to listen with your own player(launches your MP3 player)

LHBP 222100Z 34004KT CAVOK 12/06 Q1013 NOSIG

LHBP Flight Activity (Flightaware)

Listeners: 0 out of 1746 total

Budapest Director: 119.510

LHBP ATIS (Archives)
Budapest, Hungary

Feed Status: UP
Listen in your browser - HTML5 player(in browser, HTML5)
Click here to listen with your own player(launches your MP3 player)

LHBP 222100Z 34004KT CAVOK 12/06 Q1013 NOSIG

LHBP Flight Activity (Flightaware)

Listeners: 0 out of 1746 total

Budapest ATIS: 132.380

LHBP Clearance Delivery (Archives)
Budapest, Hungary

Feed Status: UP
Listen in your browser - HTML5 player(in browser, HTML5)
Click here to listen with your own player(launches your MP3 player)

LHBP 222100Z 34004KT CAVOK 12/06 Q1013 NOSIG

LHBP Flight Activity (Flightaware)

Listeners: 0 out of 1746 total

Budapest Clearance Delivery: 134.540

LHBP Ground (Archives)
Budapest, Hungary

Feed Status: UP
Listen in your browser - HTML5 player(in browser, HTML5)
Click here to listen with your own player(launches your MP3 player)

LHBP 222100Z 34004KT CAVOK 12/06 Q1013 NOSIG

LHBP Flight Activity (Flightaware)

Listeners: 0 out of 1746 total

Budapest Ground: 121.910

LHBP Info (Archives)
Budapest, Hungary

Feed Status: UP
Listen in your browser - HTML5 player(in browser, HTML5)
Click here to listen with your own player(launches your MP3 player)

LHBP 222100Z 34004KT CAVOK 12/06 Q1013 NOSIG

LHBP Flight Activity (Flightaware)

Listeners: 0 out of 1746 total

Budapest Info: 119.350

LHBP Tower (Archives)
Budapest, Hungary

Feed Status: UP
Listen in your browser - HTML5 player(in browser, HTML5)
Click here to listen with your own player(launches your MP3 player)

LHBP 222100Z 34004KT CAVOK 12/06 Q1013 NOSIG

LHBP Flight Activity (Flightaware)

Listeners: 2 out of 1746 total

Budapest Tower: 118.100

LHBP Twr/Info (Archives)
Budapest, Hungary

Feed Status: UP
Listen in your browser - HTML5 player(in browser, HTML5)
Click here to listen with your own player(launches your MP3 player)

LHBP 222100Z 34004KT CAVOK 12/06 Q1013 NOSIG

LHBP Flight Activity (Flightaware)

Listeners: 0 out of 1746 total

Budapest Info: 119.350
Budapest Tower: 118.100

LHCC Control (East/West) (Archives)
Budapest, Hungary

Feed Status: UP
Listen in your browser - HTML5 player(in browser, HTML5)
Click here to listen with your own player(launches your MP3 player)

LHBP 222100Z 34004KT CAVOK 12/06 Q1013 NOSIG

LHBP Flight Activity (Flightaware)

Listeners: 0 out of 1746 total

Budapest Control (East Low Sector): 120.375
Budapest Control (West Low Sector): 133.200

LHDC Info/Tower (Archives)
Debrecen, Hungary

Feed Status: UP
Listen in your browser - HTML5 player(in browser, HTML5)
Click here to listen with your own player(launches your MP3 player)

LHDC 222015Z AUTO 04010KT CAVOK 17/04 Q1012 NOSIG

LHDC Flight Activity (Flightaware)

Listeners: 0 out of 1746 total

Debrecen Info/Tower: 125.900

LHEM CTAF
Esztergom, Hungary

Feed Status: DOWN
Offline since: 2022-05-11 12:08:39 UTC

Esztergom CTAF: 126.850

LHFH CTAF (Archives)
Farkashegy, Hungary

Feed Status: UP
Listen in your browser - HTML5 player(in browser, HTML5)
Click here to listen with your own player(launches your MP3 player)

LHFH Flight Activity (Flightaware)

Listeners: 0 out of 1746 total

Farkashegy Info (CTAF): 125.610

LHOY CTAF
Ocseny, Hungary

Feed Status: DOWN
Offline since: 2022-01-07 14:33:22 UTC

Ocseny CTAF: 122.830

LHPR Info/AFIS (Archives)
Gyor, Hungary

Feed Status: UP
Listen in your browser - HTML5 player(in browser, HTML5)
Click here to listen with your own player(launches your MP3 player)

LHPR 222015Z AUTO 00000KT CAVOK 15/08 Q1013

LHPR Flight Activity (Flightaware)

Listeners: 0 out of 1746 total

Gyor AFIS: 129.910

LJLJ Info (Archives)
Ljubljana, Slovenia

Feed Status: UP
Listen in your browser - HTML5 player(in browser, HTML5)
Click here to listen with your own player(launches your MP3 player)

LJLJ 222030Z 14003KT 100V170 9999 FEW060TCU BKN200 17/16 Q1012 NOSIG

LJLJ Flight Activity (Flightaware)

Listeners: 0 out of 1746 total

Ljubljana Info: 118.475

LJLJ Radar (Archives)
Ljubljana, Slovenia

Feed Status: UP
Listen in your browser - HTML5 player(in browser, HTML5)
Click here to listen with your own player(launches your MP3 player)

LJLJ 222030Z 14003KT 100V170 9999 FEW060TCU BKN200 17/16 Q1012 NOSIG

LJLJ Flight Activity (Flightaware)

Listeners: 1 out of 1746 total

Ljubljana Approach: 135.275

LJLJ Tower (Archives)
Ljubljana, Slovenia

Feed Status: UP
Listen in your browser - HTML5 player(in browser, HTML5)
Click here to listen with your own player(launches your MP3 player)

LJLJ 222030Z 14003KT 100V170 9999 FEW060TCU BKN200 17/16 Q1012 NOSIG

LJLJ Flight Activity (Flightaware)

Listeners: 1 out of 1746 total

Ljubljana Tower: 118.000

LJMB Tower (Archives)
Maribor, Slovenia

Feed Status: UP
Listen in your browser - HTML5 player(in browser, HTML5)
Click here to listen with your own player(launches your MP3 player)

LJMB 222030Z AUTO 05004KT 020V080 9999 OVC049/// 19/11 Q1013

LJMB Flight Activity (Flightaware)

Listeners: 0 out of 1746 total

Maribor Tower/Approach: 119.200

LJMS CTAF (Archives)
Murska Sobota, Slovenia

Feed Status: UP
Listen in your browser - HTML5 player(in browser, HTML5)
Click here to listen with your own player(launches your MP3 player)

LJMS Flight Activity (Flightaware)

Listeners: 0 out of 1746 total

Murska Sobota Aerodrome Radio: 123.500

LJPZ Tower (Archives)
Secovlje, Slovenia

Feed Status: UP
Listen in your browser - HTML5 player(in browser, HTML5)
Click here to listen with your own player(launches your MP3 player)

LJPZ 222030Z AUTO VRB01KT 9999 NSC 21/17 Q1010

LJPZ Flight Activity (Flightaware)

Listeners: 0 out of 1746 total

Portoroz Tower: 124.875

LKPM Tower (Archives)
Pribram, Czech Republic

Feed Status: UP
Listen in your browser - HTML5 player(in browser, HTML5)
Click here to listen with your own player(launches your MP3 player)

LKPM Flight Activity (Flightaware)

Listeners: 0 out of 1746 total

Pribram Tower: 118.755

LKAA FIR (High)
Prague, Czech Republic

Feed Status: DOWN
Offline since: 2022-05-20 22:24:05 UTC

LKAA FIR Sector West High / Praha Radar : 132.065

LKAA FIR (Low)
Prague, Czech Republic

Feed Status: DOWN
Offline since: 2022-05-20 22:24:05 UTC

LKAA FIR Sector West Low / Praha Radar: 120.275

LKPR Approach
Prague, Czech Republic

Feed Status: DOWN
Offline since: 2022-05-20 22:24:05 UTC

LKPR 222030Z 08003KT CAVOK 14/05 Q1014 NOSIG

Prague Approach/Radar: 127.580

LKPR Clearance Del
Prague, Czech Republic

Feed Status: DOWN
Offline since: 2022-05-20 22:24:05 UTC

LKPR 222030Z 08003KT CAVOK 14/05 Q1014 NOSIG

Prague/Ruzyne Clearance Delivery: 120.060

LKPR Director/Ruzyne Radar
Prague, Czech Republic

Feed Status: DOWN
Offline since: 2022-05-20 22:24:05 UTC

LKPR 222030Z 08003KT CAVOK 14/05 Q1014 NOSIG

Prague Director/Ruzyne Radar: 119.010

LKPR Ground
Prague, Czech Republic

Feed Status: DOWN
Offline since: 2022-05-20 22:24:05 UTC

LKPR 222030Z 08003KT CAVOK 14/05 Q1014 NOSIG

Prague/Ruzyne Ground: 121.910

LKPR Tower
Prague, Czech Republic

Feed Status: DOWN
Offline since: 2022-05-20 22:24:05 UTC

LKPR 222030Z 08003KT CAVOK 14/05 Q1014 NOSIG

Prague/Ruzyne Tower: 134.560

LKTB Gnd/Twr/Radar (Archives)
Brno, Czech Republic

Feed Status: UP
Listen in your browser - HTML5 player(in browser, HTML5)
Click here to listen with your own player(launches your MP3 player)

LKTB 222030Z 05006KT CAVOK 15/06 Q1014 NOSIG

LKTB Flight Activity (Flightaware)

Listeners: 0 out of 1746 total

Brno Ground: 125.430
Brno Handling: 131.800
Brno Tower: 119.605
Praha Radar (Approach): 127.350

LMML GndTwr/App/Control (Archives)
Luqa, Malta

Feed Status: UP
Listen in your browser - HTML5 player(in browser, HTML5)
Click here to listen with your own player(launches your MP3 player)

LMML 222015Z 28003KT 230V350 9999 FEW007 19/18 Q1014 NOSIG

LMML Flight Activity (Flightaware)

Listeners: 3 out of 1746 total

Emergency/Guard: 121.500
Luqa Ground: 121.600
Luqa Radar: 128.150
Luqa Tower: 135.100
Malta Radar - East (Primary): 122.775
Malta Radar - East (Secondary): 123.625
Malta Radar - UHF: 284.500
Malta Radar - West (Primary): 130.975
Malta Radar - West (Secondary): 127.525

LPCS Tower (Archives)
Cascais, Portugal

Feed Status: UP
Listen in your browser - HTML5 player(in browser, HTML5)
Click here to listen with your own player(launches your MP3 player)

LPCS 222000Z 35008KT 9999 SCT006 BKN012 17/16 Q1017

LPCS Flight Activity (Flightaware)

Listeners: 0 out of 1746 total

Cascais Tower: 120.305

LPMA App/LPPC Center
Madeira, Portugal

Feed Status: DOWN
Offline since: 2022-03-27 11:32:06 UTC

Lisboa Control (Madeira Sector): 132.255
Madeira Approach: 119.605

LPMA Approach (Archives)
Madeira, Portugal

Feed Status: UP
Listen in your browser - HTML5 player(in browser, HTML5)
Click here to listen with your own player(launches your MP3 player)

LPMA 222030Z 02010KT 340V070 9999 SCT016 19/14 Q1020

LPMA Flight Activity (Flightaware)

Listeners: 1 out of 1746 total

Madeira Approach: 119.605

LPPR Approach #1 (Archives)
Porto, Portugal

Feed Status: UP
Listen in your browser - HTML5 player(in browser, HTML5)
Click here to listen with your own player(launches your MP3 player)

LPPR 222030Z 32004KT 270V350 6000 BKN004 OVC015 16/16 Q1016

LPPR Flight Activity (Flightaware)

Listeners: 1 out of 1746 total

Porto Approach: 121.105

LPPT Approach (Archives)
Lisbon, Portugal

Feed Status: UP
Listen in your browser - HTML5 player(in browser, HTML5)
Click here to listen with your own player(launches your MP3 player)

LPPT 222030Z 30007KT 9999 FEW009 BKN011 17/15 Q1017

LPPT Flight Activity (Flightaware)

Listeners: 4 out of 1746 total

Lisbon Approach: 119.105

LRCL Twr/App #1 (Archives)
Cluj-Napoca, Romania

Feed Status: UP
Listen in your browser - HTML5 player(in browser, HTML5)
Click here to listen with your own player(launches your MP3 player)

LRCL 222030Z VRB02KT 9999 SCT062 15/08 Q1011

LRCL Flight Activity (Flightaware)

Listeners: 0 out of 1746 total

Cluj Approach: 126.425
Cluj Tower: 118.705

LRCL Twr/App/ACC (Archives)
Cluj-Napoca, Romania

Feed Status: UP
Listen in your browser - HTML5 player(in browser, HTML5)
Click here to listen with your own player(launches your MP3 player)

LRCL 222030Z VRB02KT 9999 SCT062 15/08 Q1011

LRCL Flight Activity (Flightaware)

Listeners: 0 out of 1746 total

Cluj Approach: 126.425
Cluj Tower: 118.705
Napoc ACC: 127.075

LROP Ground (Archives)
Bucharest, Romania

Feed Status: UP
Listen in your browser - HTML5 player(in browser, HTML5)
Click here to listen with your own player(launches your MP3 player)

LROP 222030Z 04006KT CAVOK 18/05 Q1009 NOSIG

LROP Flight Activity (Flightaware)

Listeners: 1 out of 1746 total

Bucharest Ground: 121.855

LROP Radar (Archives)
Bucharest, Romania

Feed Status: UP
Listen in your browser - HTML5 player(in browser, HTML5)
Click here to listen with your own player(launches your MP3 player)

LROP 222030Z 04006KT CAVOK 18/05 Q1009 NOSIG

LROP Flight Activity (Flightaware)

Listeners: 0 out of 1746 total

Bucharest Radar (Arges Mid sector): 121.175
Bucharest Radar (Arges Top Sector): 123.265
Bucharest Radar (Lomos Top Sector): 132.865

LROP Tower/Approach (Archives)
Bucharest, Romania

Feed Status: UP
Listen in your browser - HTML5 player(in browser, HTML5)
Click here to listen with your own player(launches your MP3 player)

LROP 222030Z 04006KT CAVOK 18/05 Q1009 NOSIG

LROP Flight Activity (Flightaware)

Listeners: 1 out of 1746 total

Bucharest Approach: 119.415
Bucharest Director: 127.155
Bucharest Tower: 118.805

LROP Twr/App/Radar (Archives)
Bucharest, Romania

Feed Status: UP
Listen in your browser - HTML5 player(in browser, HTML5)
Click here to listen with your own player(launches your MP3 player)

LROP 222030Z 04006KT CAVOK 18/05 Q1009 NOSIG

LROP Flight Activity (Flightaware)

Listeners: 6 out of 1746 total

Bucharest Approach: 119.415
Bucharest Director: 127.155
Bucharest Radar (Arges Mid sector): 121.175
Bucharest Radar (Arges Top Sector): 123.265
Bucharest Radar (Lomos Top Sector): 132.865
Bucharest Tower: 118.805

LRSB Tower/CTAF (Archives)
Sibiu, Romania

Feed Status: UP
Listen in your browser - HTML5 player(in browser, HTML5)
Click here to listen with your own player(launches your MP3 player)

LRSB 222030Z VRB04KT 9999 FEW065 SCT085 14/08 Q1011

LRSB Flight Activity (Flightaware)

Listeners: 0 out of 1746 total

Sibiu Tower: 121.305

LRTR Tower (Archives)
Timisoara, Romania

Feed Status: UP
Listen in your browser - HTML5 player(in browser, HTML5)
Click here to listen with your own player(launches your MP3 player)

LRTR 222030Z 30007KT CAVOK 13/07 Q1011

LRTR Flight Activity (Flightaware)

Listeners: 0 out of 1746 total

ARAD Approach: 127.250
Timisoara Tower: 120.100

LSGG Arr/Dep (Archives)
Geneva, Switzerland

Feed Status: UP
Listen in your browser - HTML5 player(in browser, HTML5)
Click here to listen with your own player(launches your MP3 player)

LSGG 222050Z 02004KT CAVOK 20/17 Q1010 NOSIG

LSGG Flight Activity (Flightaware)

Listeners: 1 out of 1746 total

Geneva Arrival: 136.255
Geneva Departure: 119.530

LSGG Arrival (Archives)
Geneva, Switzerland

Feed Status: UP
Listen in your browser - HTML5 player(in browser, HTML5)
Click here to listen with your own player(launches your MP3 player)

LSGG 222050Z 02004KT CAVOK 20/17 Q1010 NOSIG

LSGG Flight Activity (Flightaware)

Listeners: 0 out of 1746 total

Geneva Arrival: 136.255

LSGG ATIS (Archives)
Geneva, Switzerland

Feed Status: UP
Listen in your browser - HTML5 player(in browser, HTML5)
Click here to listen with your own player(launches your MP3 player)

LSGG 222050Z 02004KT CAVOK 20/17 Q1010 NOSIG

LSGG Flight Activity (Flightaware)

Listeners: 0 out of 1746 total

Geneva ATIS: 135.575

LSGG Delta (VFR) (Archives)
Geneva, Switzerland

Feed Status: UP
Listen in your browser - HTML5 player(in browser, HTML5)
Click here to listen with your own player(launches your MP3 player)

LSGG 222050Z 02004KT CAVOK 20/17 Q1010 NOSIG

LSGG Flight Activity (Flightaware)

Listeners: 0 out of 1746 total

Geneva Delta (VFR): 119.175

LSGG Departure (Archives)
Geneva, Switzerland

Feed Status: UP
Listen in your browser - HTML5 player(in browser, HTML5)
Click here to listen with your own player(launches your MP3 player)

LSGG 222050Z 02004KT CAVOK 20/17 Q1010 NOSIG

LSGG Flight Activity (Flightaware)

Listeners: 0 out of 1746 total

Geneva Departure: 119.530

LSGG Glider (Archives)
Geneva, Switzerland

Feed Status: UP
Listen in your browser - HTML5 player(in browser, HTML5)
Click here to listen with your own player(launches your MP3 player)

LSGG 222050Z 02004KT CAVOK 20/17 Q1010 NOSIG

LSGG Flight Activity (Flightaware)

Listeners: 0 out of 1746 total

Geneva Glider: 124.750

LSGG Info (VFR) (Archives)
Geneva, Switzerland

Feed Status: UP
Listen in your browser - HTML5 player(in browser, HTML5)
Click here to listen with your own player(launches your MP3 player)

LSGG 222050Z 02004KT CAVOK 20/17 Q1010 NOSIG

LSGG Flight Activity (Flightaware)

Listeners: 0 out of 1746 total

Geneva Information (VFR): 126.350

LSGG Radar Ini N/E/S (Archives)
Geneva, Switzerland

Feed Status: UP
Listen in your browser - HTML5 player(in browser, HTML5)
Click here to listen with your own player(launches your MP3 player)

LSGG 222050Z 02004KT CAVOK 20/17 Q1010 NOSIG

LSGG Flight Activity (Flightaware)

Listeners: 0 out of 1746 total

Geneva Radar Initial East: 128.905
Geneva Radar Initial North: 134.030
Geneva Radar Initial South: 124.225

LSGG Radar Initial East (Archives)
Geneva, Switzerland

Feed Status: UP
Listen in your browser - HTML5 player(in browser, HTML5)
Click here to listen with your own player(launches your MP3 player)

LSGG 222050Z 02004KT CAVOK 20/17 Q1010 NOSIG

LSGG Flight Activity (Flightaware)

Listeners: 0 out of 1746 total

Geneva Radar Initial East: 128.905

LSGG Radar Initial North (Archives)
Geneva, Switzerland

Feed Status: UP
Listen in your browser - HTML5 player(in browser, HTML5)
Click here to listen with your own player(launches your MP3 player)

LSGG 222050Z 02004KT CAVOK 20/17 Q1010 NOSIG

LSGG Flight Activity (Flightaware)

Listeners: 0 out of 1746 total

Geneva Radar Initial North: 134.030

LSGG Radar Initial South (Archives)
Geneva, Switzerland

Feed Status: UP
Listen in your browser - HTML5 player(in browser, HTML5)
Click here to listen with your own player(launches your MP3 player)

LSGG 222050Z 02004KT CAVOK 20/17 Q1010 NOSIG

LSGG Flight Activity (Flightaware)

Listeners: 0 out of 1746 total

Geneva Radar Initial South: 124.225

LSGG Radar L1 250-280 (Archives)
Geneva, Switzerland

Feed Status: UP
Listen in your browser - HTML5 player(in browser, HTML5)
Click here to listen with your own player(launches your MP3 player)

LSGG 222050Z 02004KT CAVOK 20/17 Q1010 NOSIG

LSGG Flight Activity (Flightaware)

Listeners: 0 out of 1746 total

Geneva Radar L1 FL250-280: 134.850

LSGG Radar L1/L2/L3/L4/L5 (Archives)
Geneva, Switzerland

Feed Status: UP
Listen in your browser - HTML5 player(in browser, HTML5)
Click here to listen with your own player(launches your MP3 player)

LSGG 222050Z 02004KT CAVOK 20/17 Q1010 NOSIG

LSGG Flight Activity (Flightaware)

Listeners: 0 out of 1746 total

Geneva Radar L1 FL250-280: 134.850
Geneva Radar L2 FL290-310: 126.050
Geneva Radar L3 FL320-330: 134.315
Geneva Radar L3 FL320-330: 136.015
Geneva Radar L5 FL360-370: 128.155

LSGG Radar L2 290-310 (Archives)
Geneva, Switzerland

Feed Status: UP
Listen in your browser - HTML5 player(in browser, HTML5)
Click here to listen with your own player(launches your MP3 player)

LSGG 222050Z 02004KT CAVOK 20/17 Q1010 NOSIG

LSGG Flight Activity (Flightaware)

Listeners: 0 out of 1746 total

Geneva Radar L2 FL290-310: 126.050

LSGG Radar L3 320-330 (Archives)
Geneva, Switzerland

Feed Status: UP
Listen in your browser - HTML5 player(in browser, HTML5)
Click here to listen with your own player(launches your MP3 player)

LSGG 222050Z 02004KT CAVOK 20/17 Q1010 NOSIG

LSGG Flight Activity (Flightaware)

Listeners: 0 out of 1746 total

Geneva Radar L3 FL320-330: 134.315

LSGG Radar L4 340-350 (Archives)
Geneva, Switzerland

Feed Status: UP
Listen in your browser - HTML5 player(in browser, HTML5)
Click here to listen with your own player(launches your MP3 player)

LSGG 222050Z 02004KT CAVOK 20/17 Q1010 NOSIG

LSGG Flight Activity (Flightaware)

Listeners: 0 out of 1746 total

Geneva Radar L4 FL340-350: 136.015

LSGG Radar L5 360-370 (Archives)
Geneva, Switzerland

Feed Status: UP
Listen in your browser - HTML5 player(in browser, HTML5)
Click here to listen with your own player(launches your MP3 player)

LSGG 222050Z 02004KT CAVOK 20/17 Q1010 NOSIG

LSGG Flight Activity (Flightaware)

Listeners: 0 out of 1746 total

Geneva Radar L5 FL360-370: 128.155

LSGS Gnd/Twr/App
Sion, Switzerland

Feed Status: DOWN
Offline since: 2022-05-20 18:11:22 UTC

LSGS 222050Z AUTO VRB03KT 9999 -RA BKN110 22/17 Q1012

Alpine Jet Service Handling: 131.675
Sion Airport Handling: 131.475
Sion Approach (IFR ARR MIL OFF): 126.825
Sion Ground: 121.700
Sion Tower: 118.275

LSMD Tower (Archives)
Dubendorf, Switzerland

Feed Status: UP
Listen in your browser - HTML5 player(in browser, HTML5)
Click here to listen with your own player(launches your MP3 player)

LSZH 222050Z VRB03KT CAVOK 15/14 Q1010 RETS NOSIG

LSZH Flight Activity (Flightaware)

Listeners: 0 out of 1746 total

Dubendorf Tower: 118.975

LSMP Arrival (Archives)
Payerne, Switzerland

Feed Status: UP
Listen in your browser - HTML5 player(in browser, HTML5)
Click here to listen with your own player(launches your MP3 player)

LSMP 222050Z AUTO 22005KT 9999NDV FEW130 20/16 Q1011 RMK

LSMP Flight Activity (Flightaware)

Listeners: 0 out of 1746 total

Payerne Arrival: 136.350

LSMP Arrival/Tower (Archives)
Payerne, Switzerland

Feed Status: UP
Listen in your browser - HTML5 player(in browser, HTML5)
Click here to listen with your own player(launches your MP3 player)

LSMP 222050Z AUTO 22005KT 9999NDV FEW130 20/16 Q1011 RMK

LSMP Flight Activity (Flightaware)

Listeners: 0 out of 1746 total

Payerne Arrival: 136.350
Payerne Tower: 128.675

LSMP Tower (Archives)
Payerne, Switzerland

Feed Status: UP
Listen in your browser - HTML5 player(in browser, HTML5)
Click here to listen with your own player(launches your MP3 player)

LSMP 222050Z AUTO 22005KT 9999NDV FEW130 20/16 Q1011 RMK

LSMP Flight Activity (Flightaware)

Listeners: 0 out of 1746 total

Payerne Tower: 128.675

LSPM AFIS (Archives)
Ambri, Switzerland

Feed Status: UP
Listen in your browser - HTML5 player(in browser, HTML5)
Click here to listen with your own player(launches your MP3 player)

LSPM Flight Activity (Flightaware)

Listeners: 0 out of 1746 total

Ambri AFIS: 118.525

LSZA Tower (Archives)
Agno, Switzerland

Feed Status: UP
Listen in your browser - HTML5 player(in browser, HTML5)
Click here to listen with your own player(launches your MP3 player)

LSZA 222050Z AUTO VRB01KT 9999 NCD 21/18 Q1011

LSZA Flight Activity (Flightaware)

Listeners: 0 out of 1746 total

Lugano Tower: 120.250

LSZB App/Dep (Archives)
Bern, Switzerland

Feed Status: UP
Listen in your browser - HTML5 player(in browser, HTML5)
Click here to listen with your own player(launches your MP3 player)

LSZB 222050Z AUTO VRB02KT 8000 SCT120 19/18 Q1010

LSZB Flight Activity (Flightaware)

Listeners: 0 out of 1746 total

Bern Arrival/Departure: 127.325

LSZB ATIS (Archives)
Bern, Switzerland

Feed Status: UP
Listen in your browser - HTML5 player(in browser, HTML5)
Click here to listen with your own player(launches your MP3 player)

LSZB 222050Z AUTO VRB02KT 8000 SCT120 19/18 Q1010

LSZB Flight Activity (Flightaware)

Listeners: 0 out of 1746 total

Bern ATIS: 125.130

LSZB Clearance Delivery (Archives)
Bern, Switzerland

Feed Status: UP
Listen in your browser - HTML5 player(in browser, HTML5)
Click here to listen with your own player(launches your MP3 player)

LSZB 222050Z AUTO VRB02KT 8000 SCT120 19/18 Q1010

LSZB Flight Activity (Flightaware)

Listeners: 0 out of 1746 total

Bern Clearance Delivery: 121.905

LSZB Del/Twr/App/Dep (Archives)
Bern, Switzerland

Feed Status: UP
Listen in your browser - HTML5 player(in browser, HTML5)
Click here to listen with your own player(launches your MP3 player)

LSZB 222050Z AUTO VRB02KT 8000 SCT120 19/18 Q1010

LSZB Flight Activity (Flightaware)

Listeners: 0 out of 1746 total

Bern Arrival/Departure: 127.325
Bern Clearance Delivery: 121.905
Bern Tower: 121.025

LSZB Tower (Archives)
Bern, Switzerland

Feed Status: UP
Listen in your browser - HTML5 player(in browser, HTML5)
Click here to listen with your own player(launches your MP3 player)

LSZB 222050Z AUTO VRB02KT 8000 SCT120 19/18 Q1010

LSZB Flight Activity (Flightaware)

Listeners: 0 out of 1746 total

Bern Tower: 121.025

LSZB Twr/App/Dep (Archives)
Bern, Switzerland

Feed Status: UP
Listen in your browser - HTML5 player(in browser, HTML5)
Click here to listen with your own player(launches your MP3 player)

LSZB 222050Z AUTO VRB02KT 8000 SCT120 19/18 Q1010

LSZB Flight Activity (Flightaware)

Listeners: 0 out of 1746 total

Bern Arrival/Departure: 127.325
Bern Tower: 121.025

LSZG Tower (Archives)
Grenchen, Switzerland

Feed Status: UP
Listen in your browser - HTML5 player(in browser, HTML5)
Click here to listen with your own player(launches your MP3 player)

LSZG 222050Z AUTO VRB02KT 9999 NSC 19/16 Q1010

LSZG Flight Activity (Flightaware)

Listeners: 0 out of 1746 total

Grenchen Tower: 120.100

LSZH Approach (East) (Archives)
Zurich, Switzerland

Feed Status: UP
Listen in your browser - HTML5 player(in browser, HTML5)
Click here to listen with your own player(launches your MP3 player)

LSZH 222050Z VRB03KT CAVOK 15/14 Q1010 RETS NOSIG

LSZH Flight Activity (Flightaware)

Listeners: 1 out of 1746 total

Zurich Approach (East): 135.225

LSZH Apron (South) (Archives)
Zurich, Switzerland

Feed Status: UP
Listen in your browser - HTML5 player(in browser, HTML5)
Click here to listen with your own player(launches your MP3 player)

LSZH 222050Z VRB03KT CAVOK 15/14 Q1010 RETS NOSIG

LSZH Flight Activity (Flightaware)

Listeners: 0 out of 1746 total

Zurich Apron (South): 121.755

LSZH Apron (West) (Archives)
Zurich, Switzerland

Feed Status: UP
Listen in your browser - HTML5 player(in browser, HTML5)
Click here to listen with your own player(launches your MP3 player)

LSZH 222050Z VRB03KT CAVOK 15/14 Q1010 RETS NOSIG

LSZH Flight Activity (Flightaware)

Listeners: 2 out of 1746 total

Zurich Apron (West): 121.855

LSZH Clearance Delivery (Archives)
Zurich, Switzerland

Feed Status: UP
Listen in your browser - HTML5 player(in browser, HTML5)
Click here to listen with your own player(launches your MP3 player)

LSZH 222050Z VRB03KT CAVOK 15/14 Q1010 RETS NOSIG

LSZH Flight Activity (Flightaware)

Listeners: 1 out of 1746 total

Zurich Clearance Delivery: 121.925

LSZH Ground (Archives)
Zurich, Switzerland

Feed Status: UP
Listen in your browser - HTML5 player(in browser, HTML5)
Click here to listen with your own player(launches your MP3 player)

LSZH 222050Z VRB03KT CAVOK 15/14 Q1010 RETS NOSIG

LSZH Flight Activity (Flightaware)

Listeners: 0 out of 1746 total

Zurich Ground: 121.905

LSZH Radar 132.815 (Archives)
Zurich, Switzerland

Feed Status: UP
Listen in your browser - HTML5 player(in browser, HTML5)
Click here to listen with your own player(launches your MP3 player)

LSZH 222050Z VRB03KT CAVOK 15/14 Q1010 RETS NOSIG

LSZH Flight Activity (Flightaware)

Listeners: 0 out of 1746 total

Zurich Radar: 132.815

LSZH Radar 133.050 (Archives)
Zurich, Switzerland

Feed Status: UP
Listen in your browser - HTML5 player(in browser, HTML5)
Click here to listen with your own player(launches your MP3 player)

LSZH 222050Z VRB03KT CAVOK 15/14 Q1010 RETS NOSIG

LSZH Flight Activity (Flightaware)

Listeners: 0 out of 1746 total

Zurich Radar: 133.050

LSZH Radar 133.405 (Archives)
Zurich, Switzerland

Feed Status: UP
Listen in your browser - HTML5 player(in browser, HTML5)
Click here to listen with your own player(launches your MP3 player)

LSZH 222050Z VRB03KT CAVOK 15/14 Q1010 RETS NOSIG

LSZH Flight Activity (Flightaware)

Listeners: 0 out of 1746 total

Zurich Radar: 133.405

LSZH Radar 133.690 (Archives)
Zurich, Switzerland

Feed Status: UP
Listen in your browser - HTML5 player(in browser, HTML5)
Click here to listen with your own player(launches your MP3 player)

LSZH 222050Z VRB03KT CAVOK 15/14 Q1010 RETS NOSIG

LSZH Flight Activity (Flightaware)

Listeners: 0 out of 1746 total

Zurich Radar: 133.690

LSZH Radar 133.905 (Archives)
Zurich, Switzerland

Feed Status: UP
Listen in your browser - HTML5 player(in browser, HTML5)
Click here to listen with your own player(launches your MP3 player)

LSZH 222050Z VRB03KT CAVOK 15/14 Q1010 RETS NOSIG

LSZH Flight Activity (Flightaware)

Listeners: 0 out of 1746 total

Zurich Radar (Below FL240 East): 133.905

LSZH Radar 134.605 (Archives)
Zurich, Switzerland

Feed Status: UP
Listen in your browser - HTML5 player(in browser, HTML5)
Click here to listen with your own player(launches your MP3 player)

LSZH 222050Z VRB03KT CAVOK 15/14 Q1010 RETS NOSIG

LSZH Flight Activity (Flightaware)

Listeners: 0 out of 1746 total

Zurich Radar (FL330-350): 134.605

LSZH Radar 135.680 (Archives)
Zurich, Switzerland

Feed Status: UP
Listen in your browser - HTML5 player(in browser, HTML5)
Click here to listen with your own player(launches your MP3 player)

LSZH 222050Z VRB03KT CAVOK 15/14 Q1010 RETS NOSIG

LSZH Flight Activity (Flightaware)

Listeners: 0 out of 1746 total


LSZH Radar 136.155 (Archives)
Zurich, Switzerland

Feed Status: UP
Listen in your browser - HTML5 player(in browser, HTML5)
Click here to listen with your own player(launches your MP3 player)

LSZH 222050Z VRB03KT CAVOK 15/14 Q1010 RETS NOSIG

LSZH Flight Activity (Flightaware)

Listeners: 0 out of 1746 total

Zurich Radar (Below FL240 North): 136.155

LSZH Tower (Archives)
Zurich, Switzerland

Feed Status: UP
Listen in your browser - HTML5 player(in browser, HTML5)
Click here to listen with your own player(launches your MP3 player)

LSZH 222050Z VRB03KT CAVOK 15/14 Q1010 RETS NOSIG

LSZH Flight Activity (Flightaware)

Listeners: 10 out of 1746 total

Zurich Tower: 118.100

LSZH Tower (14/32) (Archives)
Zurich, Switzerland

Feed Status: UP
Listen in your browser - HTML5 player(in browser, HTML5)
Click here to listen with your own player(launches your MP3 player)

LSZH 222050Z VRB03KT CAVOK 15/14 Q1010 RETS NOSIG

LSZH Flight Activity (Flightaware)

Listeners: 0 out of 1746 total

Zurich Tower (Rwy 14 App/32 Takeoff): 120.225

LSZH Twr/Gnd (backup) (Archives)
Zurich, Switzerland

Feed Status: UP
Listen in your browser - HTML5 player(in browser, HTML5)
Click here to listen with your own player(launches your MP3 player)

LSZH 222050Z VRB03KT CAVOK 15/14 Q1010 RETS NOSIG

LSZH Flight Activity (Flightaware)

Listeners: 0 out of 1746 total

Zurich Twr/Gnd (backup): 119.700

LSZL Tower (Archives)
Locarno, Switzerland

Feed Status: UP
Listen in your browser - HTML5 player(in browser, HTML5)
Click here to listen with your own player(launches your MP3 player)

LSZL 222050Z AUTO 08007KT 050V120 9999NDV FEW200 22/16 Q1011 RMK

LSZL Flight Activity (Flightaware)

Listeners: 0 out of 1746 total


LSZN CTAF (Archives)
Zurich, Switzerland

Feed Status: UP
Listen in your browser - HTML5 player(in browser, HTML5)
Click here to listen with your own player(launches your MP3 player)

LSZN Flight Activity (Flightaware)

Listeners: 0 out of 1746 total

Hausen am Albis CTAF: 130.755

LSZR Tower (Archives)
Altenrhein, Switzerland

Feed Status: UP
Listen in your browser - HTML5 player(in browser, HTML5)
Click here to listen with your own player(launches your MP3 player)

LSZR 222050Z AUTO 29006KT 220V320 9999 NSC 21/13 Q1010

LSZR Flight Activity (Flightaware)

Listeners: 0 out of 1746 total

Altenrhein Tower: 135.425

LSZW CTAF
Thun, Switzerland

Feed Status: DOWN
Offline since: 2021-12-19 17:49:39 UTC

Thun CTAF/Info: 123.250

LTBA Gnd/Twr/App (Archives)
Istanbul, Turkey

Feed Status: UP
Listen in your browser - HTML5 player(in browser, HTML5)
Click here to listen with your own player(launches your MP3 player)

LTBA 222050Z VRB01KT 9999 FEW040 SCT100 18/13 Q1009 NOSIG RMK RWY23 07001KT

LTBA Flight Activity (Flightaware)

Listeners: 1 out of 1746 total

Istanbul Approach: 126.425
Istanbul Approach: 133.075
Istanbul Tower: 118.100
Istanbul Tower: 118.375

LTFJ Del/Gnd/Twr (Archives)
Istanbul, Turkey

Feed Status: UP
Listen in your browser - HTML5 player(in browser, HTML5)
Click here to listen with your own player(launches your MP3 player)

LTFJ 222050Z 14003KT 9999 FEW035 SCT100 18/14 Q1008 NOSIG RMK RWY24 VRB01KT

LTFJ Flight Activity (Flightaware)

Listeners: 3 out of 1746 total

Pegasus Dispatch: 131.750

LTFM App/Dep (Archives)
Istanbul, Turkey

Feed Status: UP
Listen in your browser - HTML5 player(in browser, HTML5)
Click here to listen with your own player(launches your MP3 player)

LTFM 222050Z VRB01KT CAVOK 18/12 Q1009 NOSIG RMK RWY17L 01003KT 330V030 RWY34L 31004KT 210V350 RWY16R VRB02KT RWY36 VRB02KT RWY18 VRB01KT

LTFM Flight Activity (Flightaware)

Listeners: 1 out of 1746 total

Yesilkoy Approach: 130.300
Yesilkoy Approach: 118.950
Yesilkoy Radar: 132.475
Yesilkoy Radar: 132.050
Yesilkoy Radar: 131.125
Yesilkoy Radar: 132.325

LTFM Gnd/Twr (Archives)
Istanbul, Turkey

Feed Status: UP
Listen in your browser - HTML5 player(in browser, HTML5)
Click here to listen with your own player(launches your MP3 player)

LTFM 222050Z VRB01KT CAVOK 18/12 Q1009 NOSIG RMK RWY17L 01003KT 330V030 RWY34L 31004KT 210V350 RWY16R VRB02KT RWY36 VRB02KT RWY18 VRB01KT

LTFM Flight Activity (Flightaware)

Listeners: 0 out of 1746 total

Istanbul Ground : 122.600
Istanbul Ground: 124.425
Istanbul Tower: 118.075
Istanbul Tower: 122.700
Istanbul Tower: 127.500

LUKK ACC #1 (Archives)
Chisinau, Moldova

Feed Status: UP
Listen in your browser - HTML5 player(in browser, HTML5)
Click here to listen with your own player(launches your MP3 player)

LUKK 222100Z 31007KT CAVOK 14/05 Q1009 NOSIG

LUKK Flight Activity (Flightaware)

Listeners: 0 out of 1746 total

Chisinau ACC: 130.975

LUKK ACC #2 (Archives)
Chisinau, Moldova

Feed Status: UP
Listen in your browser - HTML5 player(in browser, HTML5)
Click here to listen with your own player(launches your MP3 player)

LUKK 222100Z 31007KT CAVOK 14/05 Q1009 NOSIG

LUKK Flight Activity (Flightaware)

Listeners: 0 out of 1746 total

Chisinau ACC: 128.975

LUKK Air to Air (Archives)
Chisinau, Moldova

Feed Status: UP
Listen in your browser - HTML5 player(in browser, HTML5)
Click here to listen with your own player(launches your MP3 player)

LUKK 222100Z 31007KT CAVOK 14/05 Q1009 NOSIG

LUKK Flight Activity (Flightaware)

Listeners: 0 out of 1746 total

Chisinau Air to Air: 123.450

LUKK Alternate (Archives)
Chisinau, Moldova

Feed Status: UP
Listen in your browser - HTML5 player(in browser, HTML5)
Click here to listen with your own player(launches your MP3 player)

LUKK 222100Z 31007KT CAVOK 14/05 Q1009 NOSIG

LUKK Flight Activity (Flightaware)

Listeners: 0 out of 1746 total

Chisinau Alternate: 129.725

LUKK Approach #1 (Archives)
Chisinau, Moldova

Feed Status: UP
Listen in your browser - HTML5 player(in browser, HTML5)
Click here to listen with your own player(launches your MP3 player)

LUKK 222100Z 31007KT CAVOK 14/05 Q1009 NOSIG

LUKK Flight Activity (Flightaware)

Listeners: 0 out of 1746 total

Chisinau Approach: 133.300

LUKK Approach #2 (Archives)
Chisinau, Moldova

Feed Status: UP
Listen in your browser - HTML5 player(in browser, HTML5)
Click here to listen with your own player(launches your MP3 player)

LUKK 222100Z 31007KT CAVOK 14/05 Q1009 NOSIG

LUKK Flight Activity (Flightaware)

Listeners: 0 out of 1746 total

Chisinau Approach: 133.300

LUKK Emergency/Guard (Archives)
Chisinau, Moldova

Feed Status: UP
Listen in your browser - HTML5 player(in browser, HTML5)
Click here to listen with your own player(launches your MP3 player)

LUKK 222100Z 31007KT CAVOK 14/05 Q1009 NOSIG

LUKK Flight Activity (Flightaware)

Listeners: 0 out of 1746 total

Emergency/Guard: 121.500

LUKK Ground #2 (Archives)
Chisinau, Moldova

Feed Status: UP
Listen in your browser - HTML5 player(in browser, HTML5)
Click here to listen with your own player(launches your MP3 player)

LUKK 222100Z 31007KT CAVOK 14/05 Q1009 NOSIG

LUKK Flight Activity (Flightaware)

Listeners: 0 out of 1746 total

Chisinau Ground: 121.800

LUKK Handling (Archives)
Chisinau, Moldova

Feed Status: UP
Listen in your browser - HTML5 player(in browser, HTML5)
Click here to listen with your own player(launches your MP3 player)

LUKK 222100Z 31007KT CAVOK 14/05 Q1009 NOSIG

LUKK Flight Activity (Flightaware)

Listeners: 0 out of 1746 total

Chisinau Handling: 131.700

LUKK Tower #2 (Archives)
Chisinau, Moldova

Feed Status: UP
Listen in your browser - HTML5 player(in browser, HTML5)
Click here to listen with your own player(launches your MP3 player)

LUKK 222100Z 31007KT CAVOK 14/05 Q1009 NOSIG

LUKK Flight Activity (Flightaware)

Listeners: 0 out of 1746 total

Chisinau Tower: 118.100

LWSK ACC (Lower) (Archives)
Petrovec, North Macedonia, Republic of

Feed Status: UP
Listen in your browser - HTML5 player(in browser, HTML5)
Click here to listen with your own player(launches your MP3 player)

LWSK 222100Z 00000KT CAVOK 15/12 Q1012 NOSIG

LWSK Flight Activity (Flightaware)

Listeners: 0 out of 1746 total

Skopje Control (Lower): 119.375

LWSK ACC (Upper) (Archives)
Petrovec, North Macedonia, Republic of

Feed Status: UP
Listen in your browser - HTML5 player(in browser, HTML5)
Click here to listen with your own player(launches your MP3 player)

LWSK 222100Z 00000KT CAVOK 15/12 Q1012 NOSIG

LWSK Flight Activity (Flightaware)

Listeners: 0 out of 1746 total

Skopje Control (Upper): 120.015

LWSK Approach (Archives)
Petrovec, North Macedonia, Republic of

Feed Status: UP
Listen in your browser - HTML5 player(in browser, HTML5)
Click here to listen with your own player(launches your MP3 player)

LWSK 222100Z 00000KT CAVOK 15/12 Q1012 NOSIG

LWSK Flight Activity (Flightaware)

Listeners: 0 out of 1746 total

Skopje Approach/Departure: 120.300

LWSK ATIS (Archives)
Petrovec, North Macedonia, Republic of

Feed Status: UP
Listen in your browser - HTML5 player(in browser, HTML5)
Click here to listen with your own player(launches your MP3 player)

LWSK 222100Z 00000KT CAVOK 15/12 Q1012 NOSIG

LWSK Flight Activity (Flightaware)

Listeners: 0 out of 1746 total

Skopje ATIS: 130.125

LWSK Tower (Archives)
Petrovec, North Macedonia, Republic of

Feed Status: UP
Listen in your browser - HTML5 player(in browser, HTML5)
Click here to listen with your own player(launches your MP3 player)

LWSK 222100Z 00000KT CAVOK 15/12 Q1012 NOSIG

LWSK Flight Activity (Flightaware)

Listeners: 0 out of 1746 total

Skopje Tower: 118.500

LYNI Twr/App
Nis, Serbia

Feed Status: DOWN
Offline since: 2022-05-18 16:13:39 UTC

LYNI 222030Z 08003KT CAVOK 18/10 Q1012 NOSIG

Nis Approach: 119.525
Nis Approach/Tower (Alternate): 136.075
Nis Tower: 118.950

LZKZ Gnd/Twr/App (Archives)
Kosice, Slovakia

Feed Status: UP
Listen in your browser - HTML5 player(in browser, HTML5)
Click here to listen with your own player(launches your MP3 player)

LZKZ 222100Z 04005KT CAVOK 13/05 Q1012 NOSIG

LZKZ Flight Activity (Flightaware)

Listeners: 5 out of 1746 total

Kosice Approach: 129.350
Kosice Approach (backup): 119.850
Kosice Ground: 121.700
Kosice Handling: 131.850
Kosice Tower: 120.400

LZNI CTAF (Archives)
Nitra, Slovakia

Feed Status: UP
Listen in your browser - HTML5 player(in browser, HTML5)
Click here to listen with your own player(launches your MP3 player)

LZNI Flight Activity (Flightaware)

Listeners: 0 out of 1746 total

Nitra Traffic Radio: 123.405

LZPE CTAF/UNICOM (Archives)
Prievidza, Slovakia

Feed Status: UP
Listen in your browser - HTML5 player(in browser, HTML5)
Click here to listen with your own player(launches your MP3 player)

LZPE Flight Activity (Flightaware)

Listeners: 0 out of 1746 total

Prievidza CTAF/UNICOM: 123.055

LZPP Ground/Tower (Archives)
Piestany, Slovakia

Feed Status: UP
Listen in your browser - HTML5 player(in browser, HTML5)
Click here to listen with your own player(launches your MP3 player)

LZPP 222030Z AUTO 35005KT 9999 NCD 11/07 Q1013

LZPP Flight Activity (Flightaware)

Listeners: 1 out of 1746 total

Piestany Ground: 121.700
Piestany Tower: 118.575

LZPT CTAF
Partizanske, Slovakia

Feed Status: DOWN
Offline since: 2022-04-13 05:44:39 UTC

Male Bielice CTAF: 123.500

MDPP App/Dep (Archives)
Puerto Plata, Dominican Republic

Feed Status: UP
Listen in your browser - HTML5 player(in browser, HTML5)
Click here to listen with your own player(launches your MP3 player)

MDPP 222100Z 08014KT 9999 FEW020 31/24 Q1017

MDPP Flight Activity (Flightaware)

Listeners: 0 out of 1746 total

Puerto Plata Approach/Departure: 119.000

MDPP Ground/Center (Archives)
Puerto Plata, Dominican Republic

Feed Status: UP
Listen in your browser - HTML5 player(in browser, HTML5)
Click here to listen with your own player(launches your MP3 player)

MDPP 222100Z 08014KT 9999 FEW020 31/24 Q1017

MDPP Flight Activity (Flightaware)

Listeners: 0 out of 1746 total

Puerto Plata Ground: 121.900
Santo Domingo Center: 124.300

MDPP Ground/Tower/Center (Archives)
Puerto Plata, Dominican Republic

Feed Status: UP
Listen in your browser - HTML5 player(in browser, HTML5)
Click here to listen with your own player(launches your MP3 player)

MDPP 222100Z 08014KT 9999 FEW020 31/24 Q1017

MDPP Flight Activity (Flightaware)

Listeners: 0 out of 1746 total

Puerto Plata Ground: 121.900
Puerto Plata Tower: 118.000
Santo Domingo Center: 124.300

MDPP Tower (Archives)
Puerto Plata, Dominican Republic

Feed Status: UP
Listen in your browser - HTML5 player(in browser, HTML5)
Click here to listen with your own player(launches your MP3 player)

MDPP 222100Z 08014KT 9999 FEW020 31/24 Q1017

MDPP Flight Activity (Flightaware)

Listeners: 0 out of 1746 total

Puerto Plata Tower: 118.000

MHLC Gnd/Twr/Center (Archives)
La Ceiba, Honduras

Feed Status: UP
Listen in your browser - HTML5 player(in browser, HTML5)
Click here to listen with your own player(launches your MP3 player)

MHLC 222000Z 04007KT 9999 CT030 BKN070 30/23 Q1012 A2989 NOSIG

MHLC Flight Activity (Flightaware)

Listeners: 0 out of 1746 total

CENAMER: 123.900
CENAMER: 124.300
Goloson Ground: 121.900
Goloson Tower: 118.500
La Ceiba Radio: 128.900

MHLM Gnd/Twr/App
San Pedro Sula, Honduras

Feed Status: DOWN
Offline since: 2022-04-15 13:45:40 UTC

MHLM 222000Z 07003KT 9999 FEW026CB FEW028TCU BKN080 29/23 Q1011 A2986 RERA NOSIG

La Mesa Ground: 121.900
La Mesa Tower: 118.200
San Pedro Sula Approach: 119.700

MHRO Gnd/Twr/App/Center
Roatan, Honduras

Feed Status: DOWN
Offline since: 2022-02-24 17:14:22 UTC

MHRO 222000Z 09022KT 9999 FEW030 BKN090 31/22 Q1013 A2992 NOSIG

CENAMER (Center): 124.300
La Ceiba Radio: 128.900
Roatan Ground: 121.600
Roatan Tower: 118.100

MHTG ATIS
Tegucigalpa, Honduras

Feed Status: DOWN
Offline since: 2022-05-22 18:46:06 UTC

MHTG 222000Z 34003KT 6000 RA FEW006 BKN026 OVC070 21/20 Q1021 A3015 NOSIG

Toncontin ATIS: 127.750

MHTG Gnd/Twr/App/Ctr/Ops (Archives)
Tegucigalpa, Honduras

Feed Status: UP
Listen in your browser - HTML5 player(in browser, HTML5)
Click here to listen with your own player(launches your MP3 player)

MHTG 222000Z 34003KT 6000 RA FEW006 BKN026 OVC070 21/20 Q1021 A3015 NOSIG

MHTG Flight Activity (Flightaware)

Listeners: 7 out of 1746 total

American Airlines Ops: 130.700
ARINC ACARS: 131.550
Cenamer Center: 123.900
Cenamer Center: 124.300
Cenamer Center: 124.100
CMP Ops: 129.925
Continental Airlines Ops: 129.925
FAH Ground: 122.900
Palmerola (MHPR) Tower: 118.900
Taca Ops: 131.300
Taca Ops Sal: 130.300
Tecnologias Unidas: 133.000
Tegucigalpa RDO: 126.700
Toncontin Approach: 119.100
Toncontin Ground: 121.900
Toncontin Tower: 118.700

MMAN Tower
Monterrey, Mexico

Feed Status: DOWN
Offline since: 2022-05-07 15:51:05 UTC

MMAN 222040Z 02006KT 4SM BKN020CB 29/18 A3003 RMK SLP/// 5//// 9// 8/300 HZY CB OVR STN

Monterrey Tower: 118.600

MMCU ATIS (Archives)
Chihuahua, Mexico

Feed Status: UP
Listen in your browser - HTML5 player(in browser, HTML5)
Click here to listen with your own player(launches your MP3 player)

MMCU 222045Z 01006KT 7SM BKN090 BKN200 31/06 A3007 RMK SLP060 57026 917 8/022 HZY

MMCU Flight Activity (Flightaware)

Listeners: 0 out of 1746 total

Chihuahua ATIS: 127.900

MMCU Twr/App (Archives)
Chihuahua, Mexico

Feed Status: UP
Listen in your browser - HTML5 player(in browser, HTML5)
Click here to listen with your own player(launches your MP3 player)

MMCU 222045Z 01006KT 7SM BKN090 BKN200 31/06 A3007 RMK SLP060 57026 917 8/022 HZY

MMCU Flight Activity (Flightaware)

Listeners: 0 out of 1746 total

Chihuahua Approach: 121.000
Chihuahua Tower: 118.400

MMGL Twr/App (Archives)
Guadalajara, Mexico

Feed Status: UP
Listen in your browser - HTML5 player(in browser, HTML5)
Click here to listen with your own player(launches your MP3 player)

MMGL 222042Z 25007KT 8SM SKC 33/M05 A3013 RMK SLP061 57024 951

MMGL Flight Activity (Flightaware)

Listeners: 1 out of 1746 total

Guadalajara Approach: 120.800
Guadalajara Tower: 118.100

MMHO App/Dep (Archives)
Hermosillo, Mexico

Feed Status: UP
Listen in your browser - HTML5 player(in browser, HTML5)
Click here to listen with your own player(launches your MP3 player)

MMHO 222040Z 25005KT 10SM FEW100 SCT200 37/M02 A2991 RMK SLP123 57010 904 8/038 HZY

MMHO Flight Activity (Flightaware)

Listeners: 0 out of 1746 total

Hermosillo Approach/Departure: 121.400

MMHO Info (Archives)
Hermosillo, Mexico

Feed Status: UP
Listen in your browser - HTML5 player(in browser, HTML5)
Click here to listen with your own player(launches your MP3 player)

MMHO 222040Z 25005KT 10SM FEW100 SCT200 37/M02 A2991 RMK SLP123 57010 904 8/038 HZY

MMHO Flight Activity (Flightaware)

Listeners: 0 out of 1746 total

Hermosillo Info: 122.300

MMHO Tower (Archives)
Hermosillo, Mexico

Feed Status: UP
Listen in your browser - HTML5 player(in browser, HTML5)
Click here to listen with your own player(launches your MP3 player)

MMHO 222040Z 25005KT 10SM FEW100 SCT200 37/M02 A2991 RMK SLP123 57010 904 8/038 HZY

MMHO Flight Activity (Flightaware)

Listeners: 0 out of 1746 total

Hermosillo Tower: 118.700

MMHO Twr/App (Archives)
Hermosillo, Mexico

Feed Status: UP
Listen in your browser - HTML5 player(in browser, HTML5)
Click here to listen with your own player(launches your MP3 player)

MMHO 222040Z 25005KT 10SM FEW100 SCT200 37/M02 A2991 RMK SLP123 57010 904 8/038 HZY

MMHO Flight Activity (Flightaware)

Listeners: 0 out of 1746 total

Hermosillo Approach/Departure: 121.400
Hermosillo Info: 122.300
Hermosillo Tower: 118.700

MMLP Twr/App (Archives)
La Paz, Mexico

Feed Status: UP
Listen in your browser - HTML5 player(in browser, HTML5)
Click here to listen with your own player(launches your MP3 player)

MMLP 222040Z 09009KT 10SM SKC 31/07 A2993 RMK SLP135 57020 910 ISOL CI

MMLP Flight Activity (Flightaware)

Listeners: 0 out of 1746 total

La Paz Approach: 120.600
La Paz Tower: 118.100

MMMD App/Dep (Archives)
Merida, Mexico

Feed Status: UP
Listen in your browser - HTML5 player(in browser, HTML5)
Click here to listen with your own player(launches your MP3 player)

MMMD 222046Z 05010G20KT 5SM -RA BKN010CB BKN070 OVC300 26/22 A2990 RMK SLP129 57019 934 60815 8/367 HZY +RA NE BINOVC

MMMD Flight Activity (Flightaware)

Listeners: 7 out of 1746 total

Merida Approach: 121.200

MMMD Merida Center 125.2/128.2 (Archives)
Merida, Mexico

Feed Status: UP
Listen in your browser - HTML5 player(in browser, HTML5)
Click here to listen with your own player(launches your MP3 player)

MMMD 222046Z 05010G20KT 5SM -RA BKN010CB BKN070 OVC300 26/22 A2990 RMK SLP129 57019 934 60815 8/367 HZY +RA NE BINOVC

MMMD Flight Activity (Flightaware)

Listeners: 0 out of 1746 total

Merida Center: 125.200
Merida Center: 128.200

MMMD Merida Center 125.8/123.75 (Archives)
Merida, Mexico

Feed Status: UP
Listen in your browser - HTML5 player(in browser, HTML5)
Click here to listen with your own player(launches your MP3 player)

MMMD 222046Z 05010G20KT 5SM -RA BKN010CB BKN070 OVC300 26/22 A2990 RMK SLP129 57019 934 60815 8/367 HZY +RA NE BINOVC

MMMD Flight Activity (Flightaware)

Listeners: 0 out of 1746 total

Merida Center: 125.800
Merida Center: 123.750

MMMD Tower (Archives)
Merida, Mexico

Feed Status: UP
Listen in your browser - HTML5 player(in browser, HTML5)
Click here to listen with your own player(launches your MP3 player)

MMMD 222046Z 05010G20KT 5SM -RA BKN010CB BKN070 OVC300 26/22 A2990 RMK SLP129 57019 934 60815 8/367 HZY +RA NE BINOVC

MMMD Flight Activity (Flightaware)

Listeners: 4 out of 1746 total

Merida Tower: 118.300

MMMM Tower (Archives)
Morelia, Mexico

Feed Status: UP
Listen in your browser - HTML5 player(in browser, HTML5)
Click here to listen with your own player(launches your MP3 player)

MMMM 222040Z 30005KT 7SM FEW030 32/02 A3016 RMK SLP058 57023 913 8/100 HZY

MMMM Flight Activity (Flightaware)

Listeners: 1 out of 1746 total

Morelia Tower: 118.500

MMMX Aeromexico Ops (Archives)
Mexico City, Mexico

Feed Status: UP
Listen in your browser - HTML5 player(in browser, HTML5)
Click here to listen with your own player(launches your MP3 player)

MMMX 222055Z 09020KT 6SM -TSRA SCT020CB BKN080 21/09 A3035 NOSIG RMK SLP102 54000 935 60155 8/960 HZY PCPN INTMT

MMMX Flight Activity (Flightaware)

Listeners: 0 out of 1746 total

Aeromexico Ops: 131.000

MMMX Approach (Archives)
Mexico City, Mexico

Feed Status: UP
Listen in your browser - HTML5 player(in browser, HTML5)
Click here to listen with your own player(launches your MP3 player)

MMMX 222055Z 09020KT 6SM -TSRA SCT020CB BKN080 21/09 A3035 NOSIG RMK SLP102 54000 935 60155 8/960 HZY PCPN INTMT

MMMX Flight Activity (Flightaware)

Listeners: 4 out of 1746 total

Mexico City Approach: 121.200

MMMX Approach (CVJ/PBC) (Archives)
Mexico City, Mexico

Feed Status: UP
Listen in your browser - HTML5 player(in browser, HTML5)
Click here to listen with your own player(launches your MP3 player)

MMMX 222055Z 09020KT 6SM -TSRA SCT020CB BKN080 21/09 A3035 NOSIG RMK SLP102 54000 935 60155 8/960 HZY PCPN INTMT

MMMX Flight Activity (Flightaware)

Listeners: 5 out of 1746 total

Mexico City Approach (CVJ/PBC): 119.250

MMMX Approach (Final) (Archives)
Mexico City, Mexico

Feed Status: UP
Listen in your browser - HTML5 player(in browser, HTML5)
Click here to listen with your own player(launches your MP3 player)

MMMX 222055Z 09020KT 6SM -TSRA SCT020CB BKN080 21/09 A3035 NOSIG RMK SLP102 54000 935 60155 8/960 HZY PCPN INTMT

MMMX Flight Activity (Flightaware)

Listeners: 0 out of 1746 total

Mexico City Approach (Final): 119.750

MMMX Arrival (North) (Archives)
Mexico City, Mexico

Feed Status: UP
Listen in your browser - HTML5 player(in browser, HTML5)
Click here to listen with your own player(launches your MP3 player)

MMMX 222055Z 09020KT 6SM -TSRA SCT020CB BKN080 21/09 A3035 NOSIG RMK SLP102 54000 935 60155 8/960 HZY PCPN INTMT

MMMX Flight Activity (Flightaware)

Listeners: 0 out of 1746 total

Mexico City Arrival (North): 129.650

MMMX Arrival (North/South) (Archives)
Mexico City, Mexico

Feed Status: UP
Listen in your browser - HTML5 player(in browser, HTML5)
Click here to listen with your own player(launches your MP3 player)

MMMX 222055Z 09020KT 6SM -TSRA SCT020CB BKN080 21/09 A3035 NOSIG RMK SLP102 54000 935 60155 8/960 HZY PCPN INTMT

MMMX Flight Activity (Flightaware)

Listeners: 0 out of 1746 total

Mexico City Arrival (North): 129.650
Mexico City Arrival (South): 119.100

MMMX Arrival (South) (Archives)
Mexico City, Mexico

Feed Status: UP
Listen in your browser - HTML5 player(in browser, HTML5)
Click here to listen with your own player(launches your MP3 player)

MMMX 222055Z 09020KT 6SM -TSRA SCT020CB BKN080 21/09 A3035 NOSIG RMK SLP102 54000 935 60155 8/960 HZY PCPN INTMT

MMMX Flight Activity (Flightaware)

Listeners: 0 out of 1746 total

Mexico City Arrival (South): 119.100

MMMX ATIS (Archives)
Mexico City, Mexico

Feed Status: UP
Listen in your browser - HTML5 player(in browser, HTML5)
Click here to listen with your own player(launches your MP3 player)

MMMX 222055Z 09020KT 6SM -TSRA SCT020CB BKN080 21/09 A3035 NOSIG RMK SLP102 54000 935 60155 8/960 HZY PCPN INTMT

MMMX Flight Activity (Flightaware)

Listeners: 1 out of 1746 total

Mexico City ATIS: 127.650

MMMX Center (Southeast) (Archives)
Mexico City, Mexico

Feed Status: UP
Listen in your browser - HTML5 player(in browser, HTML5)
Click here to listen with your own player(launches your MP3 player)

MMMX 222055Z 09020KT 6SM -TSRA SCT020CB BKN080 21/09 A3035 NOSIG RMK SLP102 54000 935 60155 8/960 HZY PCPN INTMT

MMMX Flight Activity (Flightaware)

Listeners: 0 out of 1746 total

Mexico Center (Southeast): 128.250

MMMX Center (West) (Archives)
Mexico City, Mexico

Feed Status: UP
Listen in your browser - HTML5 player(in browser, HTML5)
Click here to listen with your own player(launches your MP3 player)

MMMX 222055Z 09020KT 6SM -TSRA SCT020CB BKN080 21/09 A3035 NOSIG RMK SLP102 54000 935 60155 8/960 HZY PCPN INTMT

MMMX Flight Activity (Flightaware)

Listeners: 0 out of 1746 total

Mexico Center (West): 125.100

MMMX Clearance Delivery (Archives)
Mexico City, Mexico

Feed Status: UP
Listen in your browser - HTML5 player(in browser, HTML5)
Click here to listen with your own player(launches your MP3 player)

MMMX 222055Z 09020KT 6SM -TSRA SCT020CB BKN080 21/09 A3035 NOSIG RMK SLP102 54000 935 60155 8/960 HZY PCPN INTMT

MMMX Flight Activity (Flightaware)

Listeners: 1 out of 1746 total

Mexico City Clearance Delivery: 122.100

MMMX Departure (North) (Archives)
Mexico City, Mexico

Feed Status: UP
Listen in your browser - HTML5 player(in browser, HTML5)
Click here to listen with your own player(launches your MP3 player)

MMMX 222055Z 09020KT 6SM -TSRA SCT020CB BKN080 21/09 A3035 NOSIG RMK SLP102 54000 935 60155 8/960 HZY PCPN INTMT

MMMX Flight Activity (Flightaware)

Listeners: 2 out of 1746 total

Mexico City Departure (North): 120.500

MMMX Departure (South) (Archives)
Mexico City, Mexico

Feed Status: UP
Listen in your browser - HTML5 player(in browser, HTML5)
Click here to listen with your own player(launches your MP3 player)

MMMX 222055Z 09020KT 6SM -TSRA SCT020CB BKN080 21/09 A3035 NOSIG RMK SLP102 54000 935 60155 8/960 HZY PCPN INTMT

MMMX Flight Activity (Flightaware)

Listeners: 0 out of 1746 total

Mexico City Departure (South): 129.100

MMMX Ground (North) (Archives)
Mexico City, Mexico

Feed Status: UP
Listen in your browser - HTML5 player(in browser, HTML5)
Click here to listen with your own player(launches your MP3 player)

MMMX 222055Z 09020KT 6SM -TSRA SCT020CB BKN080 21/09 A3035 NOSIG RMK SLP102 54000 935 60155 8/960 HZY PCPN INTMT

MMMX Flight Activity (Flightaware)

Listeners: 0 out of 1746 total

Mexico City Ground (North): 121.850

MMMX Ground (North/South) (Archives)
Mexico City, Mexico

Feed Status: UP
Listen in your browser - HTML5 player(in browser, HTML5)
Click here to listen with your own player(launches your MP3 player)

MMMX 222055Z 09020KT 6SM -TSRA SCT020CB BKN080 21/09 A3035 NOSIG RMK SLP102 54000 935 60155 8/960 HZY PCPN INTMT

MMMX Flight Activity (Flightaware)

Listeners: 0 out of 1746 total

Mexico City Ground (North): 121.850
Mexico City Ground (South): 121.000

MMMX Ground (South) (Archives)
Mexico City, Mexico

Feed Status: UP
Listen in your browser - HTML5 player(in browser, HTML5)
Click here to listen with your own player(launches your MP3 player)

MMMX 222055Z 09020KT 6SM -TSRA SCT020CB BKN080 21/09 A3035 NOSIG RMK SLP102 54000 935 60155 8/960 HZY PCPN INTMT

MMMX Flight Activity (Flightaware)

Listeners: 0 out of 1746 total

Mexico City Ground (South): 121.000

MMMX Mexico Center North (Archives)
Mexico City, Mexico

Feed Status: UP
Listen in your browser - HTML5 player(in browser, HTML5)
Click here to listen with your own player(launches your MP3 player)

MMMX 222055Z 09020KT 6SM -TSRA SCT020CB BKN080 21/09 A3035 NOSIG RMK SLP102 54000 935 60155 8/960 HZY PCPN INTMT

MMMX Flight Activity (Flightaware)

Listeners: 0 out of 1746 total

Mexico Center North: 133.100

MMMX Tower (Archives)
Mexico City, Mexico

Feed Status: UP
Listen in your browser - HTML5 player(in browser, HTML5)
Click here to listen with your own player(launches your MP3 player)

MMMX 222055Z 09020KT 6SM -TSRA SCT020CB BKN080 21/09 A3035 NOSIG RMK SLP102 54000 935 60155 8/960 HZY PCPN INTMT

MMMX Flight Activity (Flightaware)

Listeners: 8 out of 1746 total

Mexico City Tower: 118.550

MMMX Tower (Helicopters) (Archives)
Mexico City, Mexico

Feed Status: UP
Listen in your browser - HTML5 player(in browser, HTML5)
Click here to listen with your own player(launches your MP3 player)

MMMX 222055Z 09020KT 6SM -TSRA SCT020CB BKN080 21/09 A3035 NOSIG RMK SLP102 54000 935 60155 8/960 HZY PCPN INTMT

MMMX Flight Activity (Flightaware)

Listeners: 0 out of 1746 total

Mexico City Tower (Helicopters): 118.150

MMMX Twr/App #1 (Archives)
Mexico City, Mexico

Feed Status: UP
Listen in your browser - HTML5 player(in browser, HTML5)
Click here to listen with your own player(launches your MP3 player)

MMMX 222055Z 09020KT 6SM -TSRA SCT020CB BKN080 21/09 A3035 NOSIG RMK SLP102 54000 935 60155 8/960 HZY PCPN INTMT

MMMX Flight Activity (Flightaware)

Listeners: 16 out of 1746 total

Mexico City Approach: 121.200
Mexico City Arrival (North): 129.650
Mexico City Arrival (South): 119.100
Mexico City Final Approach: 119.750
Mexico City Tower: 118.550

MMMX Twr/App #2
Mexico City, Mexico

Feed Status: DOWN
Offline since: 2022-05-20 20:22:23 UTC

MMMX 222055Z 09020KT 6SM -TSRA SCT020CB BKN080 21/09 A3035 NOSIG RMK SLP102 54000 935 60155 8/960 HZY PCPN INTMT

Mexico City Approach: 121.200

MMMX UNICOM (Archives)
Mexico City, Mexico

Feed Status: UP
Listen in your browser - HTML5 player(in browser, HTML5)
Click here to listen with your own player(launches your MP3 player)

MMMX 222055Z 09020KT 6SM -TSRA SCT020CB BKN080 21/09 A3035 NOSIG RMK SLP102 54000 935 60155 8/960 HZY PCPN INTMT

MMMX Flight Activity (Flightaware)

Listeners: 0 out of 1746 total

Mexico City UNICOM: 122.500

MMMX Volaris Ops (Archives)
Mexico City, Mexico

Feed Status: UP
Listen in your browser - HTML5 player(in browser, HTML5)
Click here to listen with your own player(launches your MP3 player)

MMMX 222055Z 09020KT 6SM -TSRA SCT020CB BKN080 21/09 A3035 NOSIG RMK SLP102 54000 935 60155 8/960 HZY PCPN INTMT

MMMX Flight Activity (Flightaware)

Listeners: 0 out of 1746 total

Volaris Ops: 130.375

MMMY Tower/Approach
Monterrey, Mexico

Feed Status: DOWN
Offline since: 2022-04-11 00:25:39 UTC

MMMY 222044Z 07015KT 6SM SCT015 BKN030 31/19 A2998 RMK SLP/// 5//// 9// 8/5// DROPS

Monterrey Approach/Departure: 119.750
Monterrey Tower: 118.100

MMPC CTAF (Archives)
Pachuca, Mexico

Feed Status: UP
Listen in your browser - HTML5 player(in browser, HTML5)
Click here to listen with your own player(launches your MP3 player)

MMPC Flight Activity (Flightaware)

Listeners: 1 out of 1746 total

Pachuca CTAF/AFIS: 122.900

MMQT Tower/App
Queretaro, Mexico

Feed Status: DOWN
Offline since: 2021-10-10 15:21:05 UTC

MMQT 222051Z 08015KT 6SM BKN020CB 24/11 A3023 RMK 60015 8/300 -RA INTMT SC

Queretaro Approach: 127.200
Queretaro Tower: 118.950

MMMX Departure (North) (Archives)
Santa Lucia, Mexico

Feed Status: UP
Listen in your browser - HTML5 player(in browser, HTML5)
Click here to listen with your own player(launches your MP3 player)

MMMX 222055Z 09020KT 6SM -TSRA SCT020CB BKN080 21/09 A3035 NOSIG RMK SLP102 54000 935 60155 8/960 HZY PCPN INTMT

MMMX Flight Activity (Flightaware)

Listeners: 2 out of 1746 total

Mexico City Departure (North): 120.500

MMSM Approach (119.0) (Archives)
Santa Lucia, Mexico

Feed Status: UP
Listen in your browser - HTML5 player(in browser, HTML5)
Click here to listen with your own player(launches your MP3 player)

MMMX 222055Z 09020KT 6SM -TSRA SCT020CB BKN080 21/09 A3035 NOSIG RMK SLP102 54000 935 60155 8/960 HZY PCPN INTMT

MMMX Flight Activity (Flightaware)

Listeners: 0 out of 1746 total

Santa Lucia Approach: 119.000

MMSM Approach (128.85) (Archives)
Santa Lucia, Mexico

Feed Status: UP
Listen in your browser - HTML5 player(in browser, HTML5)
Click here to listen with your own player(launches your MP3 player)

MMMX 222055Z 09020KT 6SM -TSRA SCT020CB BKN080 21/09 A3035 NOSIG RMK SLP102 54000 935 60155 8/960 HZY PCPN INTMT

MMMX Flight Activity (Flightaware)

Listeners: 0 out of 1746 total

Santa Lucia Approach: 128.850

MMSM ATIS (Archives)
Santa Lucia, Mexico

Feed Status: UP
Listen in your browser - HTML5 player(in browser, HTML5)
Click here to listen with your own player(launches your MP3 player)

MMMX 222055Z 09020KT 6SM -TSRA SCT020CB BKN080 21/09 A3035 NOSIG RMK SLP102 54000 935 60155 8/960 HZY PCPN INTMT

MMMX Flight Activity (Flightaware)

Listeners: 0 out of 1746 total

Santa Lucia ATIS:

MMSM Clearance Delivery (Archives)
Santa Lucia, Mexico

Feed Status: UP
Listen in your browser - HTML5 player(in browser, HTML5)
Click here to listen with your own player(launches your MP3 player)

MMMX 222055Z 09020KT 6SM -TSRA SCT020CB BKN080 21/09 A3035 NOSIG RMK SLP102 54000 935 60155 8/960 HZY PCPN INTMT

MMMX Flight Activity (Flightaware)

Listeners: 0 out of 1746 total

Santa Lucia Clearance Delivery: 121.900

MMSM Ground (Archives)
Santa Lucia, Mexico

Feed Status: UP
Listen in your browser - HTML5 player(in browser, HTML5)
Click here to listen with your own player(launches your MP3 player)

MMMX 222055Z 09020KT 6SM -TSRA SCT020CB BKN080 21/09 A3035 NOSIG RMK SLP102 54000 935 60155 8/960 HZY PCPN INTMT

MMMX Flight Activity (Flightaware)

Listeners: 0 out of 1746 total

Santa Lucia Ground: 121.800

MMSM Tower (Archives)
Santa Lucia, Mexico

Feed Status: UP
Listen in your browser - HTML5 player(in browser, HTML5)
Click here to listen with your own player(launches your MP3 player)

MMMX 222055Z 09020KT 6SM -TSRA SCT020CB BKN080 21/09 A3035 NOSIG RMK SLP102 54000 935 60155 8/960 HZY PCPN INTMT

MMMX Flight Activity (Flightaware)

Listeners: 0 out of 1746 total

Santa Lucia Tower: 118.300

MMTC Twr/App/Center (Archives)
Torreon, Mexico

Feed Status: UP
Listen in your browser - HTML5 player(in browser, HTML5)
Click here to listen with your own player(launches your MP3 player)

MMTC 222050Z 08011KT 4SM FEW030 35/09 A2997 RMK SLP026 58024 903 8/100 BLDU

MMTC Flight Activity (Flightaware)

Listeners: 1 out of 1746 total

Mazatlan Center: 124.200
Mazatlan Center: 124.400
Mazatlan Center: 128.000
Mexico Center: 123.900
Monterrey Center: 125.600
Monterrey Center: 125.425
Monterrey Center: 127.400
Torreon Approach: 119.500
Torreon Tower: 118.500

MMTJ Approach (Archives)
Tijuana, Mexico

Feed Status: UP
Listen in your browser - HTML5 player(in browser, HTML5)
Click here to listen with your own player(launches your MP3 player)

MMTJ 222041Z 27021KT 8SM BKN030 19/14 A3003 RMK SLP160 57007 902 8/500 HZY

MMTJ Flight Activity (Flightaware)

Listeners: 0 out of 1746 total

Tijuana Approach: 120.300

MMTJ Twr/Ramp (Archives)
Tijuana, Mexico

Feed Status: UP
Listen in your browser - HTML5 player(in browser, HTML5)
Click here to listen with your own player(launches your MP3 player)

MMTJ 222041Z 27021KT 8SM BKN030 19/14 A3003 RMK SLP160 57007 902 8/500 HZY

MMTJ Flight Activity (Flightaware)

Listeners: 0 out of 1746 total

Tijuana Ramp: 126.100
Tijuana Tower: 118.100

MPMG Ground
Panama City, Panama

Feed Status: DOWN
Offline since: 2022-05-16 17:42:40 UTC

MPMG 222100Z 25005KT 140V310 4000 TSRA BKN015CB 27/25 Q1011 RWY WET TEMPO 3000 +TSRA

Gelabert Ground: 121.700

MPMG Tower
Panama City, Panama

Feed Status: DOWN
Offline since: 2022-05-16 17:46:23 UTC

MPMG 222100Z 25005KT 140V310 4000 TSRA BKN015CB 27/25 Q1011 RWY WET TEMPO 3000 +TSRA

Gelabert Tower: 118.300

Panama App/Dep #2 (Archives)
Panama City, Panama

Feed Status: UP
Listen in your browser - HTML5 player(in browser, HTML5)
Click here to listen with your own player(launches your MP3 player)

MPPA 222100Z 01006KT 7000 -TSRA SCT015CB SCT080 27/26 Q1011 RWY WET

MPPA Flight Activity (Flightaware)

Listeners: 2 out of 1746 total

Panama Approach: 119.700
Panama Departure: 119.200

Panama App/Dep #3 (Archives)
Panama City, Panama

Feed Status: UP
Listen in your browser - HTML5 player(in browser, HTML5)
Click here to listen with your own player(launches your MP3 player)

MPTO 222100Z 18005KT 4000 +TSRA SCT006 BKN013CB 26/25 Q1011 RWY WATER PATCHES TEMPO 7000 TSRA

MPTO Flight Activity (Flightaware)

Listeners: 0 out of 1746 total

Panama Approach: 119.700
Panama Departure: 119.200

Panama Approach #1
Panama City, Panama

Feed Status: DOWN
Offline since: 2022-05-16 17:46:23 UTC

MPMG 222100Z 25005KT 140V310 4000 TSRA BKN015CB 27/25 Q1011 RWY WET TEMPO 3000 +TSRA

Panama Approach: 119.700

Panama Center #1
Panama City, Panama

Feed Status: DOWN
Offline since: 2021-11-29 18:41:05 UTC

MPMG 222100Z 25005KT 140V310 4000 TSRA BKN015CB 27/25 Q1011 RWY WET TEMPO 3000 +TSRA

Panama Center: 134.900
Panama Center (North): 133.300
Panama Center (North): 125.500
Panama Center (South): 123.300
Panama Center (South): 133.000

Panama Center #2 (Archives)
Panama City, Panama

Feed Status: UP
Listen in your browser - HTML5 player(in browser, HTML5)
Click here to listen with your own player(launches your MP3 player)

MPPA 222100Z 01006KT 7000 -TSRA SCT015CB SCT080 27/26 Q1011 RWY WET

MPPA Flight Activity (Flightaware)

Listeners: 0 out of 1746 total

Panama Center: 134.900
Panama Center (North): 125.500
Panama Center (North): 133.300
Panama Center (South): 123.300
Panama Center (South): 133.000

Panama Radio #1
Panama City, Panama

Feed Status: DOWN
Offline since: 2021-12-17 13:13:39 UTC

MPMG 222100Z 25005KT 140V310 4000 TSRA BKN015CB 27/25 Q1011 RWY WET TEMPO 3000 +TSRA

Panama Radio: 123.600
Panama Radio: 126.900

Panama Traffic Advisory #1
Panama City, Panama

Feed Status: DOWN
Offline since: 2022-05-16 17:42:40 UTC

MPMG 222100Z 25005KT 140V310 4000 TSRA BKN015CB 27/25 Q1011 RWY WET TEMPO 3000 +TSRA

Panama Traffic Advisory: 121.200

MPPA Ground (Archives)
Panama City, Panama

Feed Status: UP
Listen in your browser - HTML5 player(in browser, HTML5)
Click here to listen with your own player(launches your MP3 player)

MPPA 222100Z 01006KT 7000 -TSRA SCT015CB SCT080 27/26 Q1011 RWY WET

MPPA Flight Activity (Flightaware)

Listeners: 0 out of 1746 total

Pacifico Ground: 121.100

MPPA Ground/Tower (Archives)
Panama City, Panama

Feed Status: UP
Listen in your browser - HTML5 player(in browser, HTML5)
Click here to listen with your own player(launches your MP3 player)

MPPA 222100Z 01006KT 7000 -TSRA SCT015CB SCT080 27/26 Q1011 RWY WET

MPPA Flight Activity (Flightaware)

Listeners: 0 out of 1746 total

Pacifico Ground: 121.100
Pacifico Tower: 118.900

MPPA Tower (Archives)
Panama City, Panama

Feed Status: UP
Listen in your browser - HTML5 player(in browser, HTML5)
Click here to listen with your own player(launches your MP3 player)

MPPA 222100Z 01006KT 7000 -TSRA SCT015CB SCT080 27/26 Q1011 RWY WET

MPPA Flight Activity (Flightaware)

Listeners: 0 out of 1746 total

Pacifico Tower: 118.900

Panama App/Dep #2 (Archives)
Panama City, Panama

Feed Status: UP
Listen in your browser - HTML5 player(in browser, HTML5)
Click here to listen with your own player(launches your MP3 player)

MPPA 222100Z 01006KT 7000 -TSRA SCT015CB SCT080 27/26 Q1011 RWY WET

MPPA Flight Activity (Flightaware)

Listeners: 2 out of 1746 total

Panama Approach: 119.700
Panama Departure: 119.200

Panama App/Dep #3 (Archives)
Panama City, Panama

Feed Status: UP
Listen in your browser - HTML5 player(in browser, HTML5)
Click here to listen with your own player(launches your MP3 player)

MPTO 222100Z 18005KT 4000 +TSRA SCT006 BKN013CB 26/25 Q1011 RWY WATER PATCHES TEMPO 7000 TSRA

MPTO Flight Activity (Flightaware)

Listeners: 0 out of 1746 total

Panama Approach: 119.700
Panama Departure: 119.200

Panama Approach #1
Panama City, Panama

Feed Status: DOWN
Offline since: 2022-05-16 17:46:23 UTC

MPMG 222100Z 25005KT 140V310 4000 TSRA BKN015CB 27/25 Q1011 RWY WET TEMPO 3000 +TSRA

Panama Approach: 119.700

Panama Center #1
Panama City, Panama

Feed Status: DOWN
Offline since: 2021-11-29 18:41:05 UTC

MPMG 222100Z 25005KT 140V310 4000 TSRA BKN015CB 27/25 Q1011 RWY WET TEMPO 3000 +TSRA

Panama Center: 134.900
Panama Center (North): 133.300
Panama Center (North): 125.500
Panama Center (South): 123.300
Panama Center (South): 133.000

Panama Center #2 (Archives)
Panama City, Panama

Feed Status: UP
Listen in your browser - HTML5 player(in browser, HTML5)
Click here to listen with your own player(launches your MP3 player)

MPPA 222100Z 01006KT 7000 -TSRA SCT015CB SCT080 27/26 Q1011 RWY WET

MPPA Flight Activity (Flightaware)

Listeners: 0 out of 1746 total

Panama Center: 134.900
Panama Center (North): 125.500
Panama Center (North): 133.300
Panama Center (South): 123.300
Panama Center (South): 133.000

Panama Radio #1
Panama City, Panama

Feed Status: DOWN
Offline since: 2021-12-17 13:13:39 UTC

MPMG 222100Z 25005KT 140V310 4000 TSRA BKN015CB 27/25 Q1011 RWY WET TEMPO 3000 +TSRA

Panama Radio: 123.600
Panama Radio: 126.900

Panama Traffic Advisory #1
Panama City, Panama

Feed Status: DOWN
Offline since: 2022-05-16 17:42:40 UTC

MPMG 222100Z 25005KT 140V310 4000 TSRA BKN015CB 27/25 Q1011 RWY WET TEMPO 3000 +TSRA

Panama Traffic Advisory: 121.200

MPTO ATIS
Panama City, Panama

Feed Status: DOWN
Offline since: 2022-04-27 11:11:23 UTC

MPTO 222100Z 18005KT 4000 +TSRA SCT006 BKN013CB 26/25 Q1011 RWY WATER PATCHES TEMPO 7000 TSRA

Panama ATIS: 127.700

MPTO Clearance Delivery
Panama City, Panama

Feed Status: DOWN
Offline since: 2022-04-27 11:11:23 UTC

MPTO 222100Z 18005KT 4000 +TSRA SCT006 BKN013CB 26/25 Q1011 RWY WATER PATCHES TEMPO 7000 TSRA

Panama Clearance Delivery: 129.800

MPTO Del/Ground (Archives)
Panama City, Panama

Feed Status: UP
Listen in your browser - HTML5 player(in browser, HTML5)
Click here to listen with your own player(launches your MP3 player)

MPTO 222100Z 18005KT 4000 +TSRA SCT006 BKN013CB 26/25 Q1011 RWY WATER PATCHES TEMPO 7000 TSRA

MPTO Flight Activity (Flightaware)

Listeners: 1 out of 1746 total

Panama Clearance Delivery: 129.800
Panama Ground: 121.900

MPTO Ground (Archives)
Panama City, Panama

Feed Status: UP
Listen in your browser - HTML5 player(in browser, HTML5)
Click here to listen with your own player(launches your MP3 player)

MPTO 222100Z 18005KT 4000 +TSRA SCT006 BKN013CB 26/25 Q1011 RWY WATER PATCHES TEMPO 7000 TSRA

MPTO Flight Activity (Flightaware)

Listeners: 0 out of 1746 total

Panama Ground: 121.900

MPTO Ground/Tower (Archives)
Panama City, Panama

Feed Status: UP
Listen in your browser - HTML5 player(in browser, HTML5)
Click here to listen with your own player(launches your MP3 player)

MPTO 222100Z 18005KT 4000 +TSRA SCT006 BKN013CB 26/25 Q1011 RWY WATER PATCHES TEMPO 7000 TSRA

MPTO Flight Activity (Flightaware)

Listeners: 0 out of 1746 total

Panama Ground: 121.900
Panama Tower: 118.100

MPTO Tower (Archives)
Panama City, Panama

Feed Status: UP
Listen in your browser - HTML5 player(in browser, HTML5)
Click here to listen with your own player(launches your MP3 player)

MPTO 222100Z 18005KT 4000 +TSRA SCT006 BKN013CB 26/25 Q1011 RWY WATER PATCHES TEMPO 7000 TSRA

MPTO Flight Activity (Flightaware)

Listeners: 1 out of 1746 total

Panama Tower: 118.100

Panama App/Dep #2 (Archives)
Panama City, Panama

Feed Status: UP
Listen in your browser - HTML5 player(in browser, HTML5)
Click here to listen with your own player(launches your MP3 player)

MPPA 222100Z 01006KT 7000 -TSRA SCT015CB SCT080 27/26 Q1011 RWY WET

MPPA Flight Activity (Flightaware)

Listeners: 2 out of 1746 total

Panama Approach: 119.700
Panama Departure: 119.200

Panama App/Dep #3 (Archives)
Panama City, Panama

Feed Status: UP
Listen in your browser - HTML5 player(in browser, HTML5)
Click here to listen with your own player(launches your MP3 player)

MPTO 222100Z 18005KT 4000 +TSRA SCT006 BKN013CB 26/25 Q1011 RWY WATER PATCHES TEMPO 7000 TSRA

MPTO Flight Activity (Flightaware)

Listeners: 0 out of 1746 total

Panama Approach: 119.700
Panama Departure: 119.200

Panama Approach #1
Panama City, Panama

Feed Status: DOWN
Offline since: 2022-05-16 17:46:23 UTC

MPMG 222100Z 25005KT 140V310 4000 TSRA BKN015CB 27/25 Q1011 RWY WET TEMPO 3000 +TSRA

Panama Approach: 119.700

Panama Center #1
Panama City, Panama

Feed Status: DOWN
Offline since: 2021-11-29 18:41:05 UTC

MPMG 222100Z 25005KT 140V310 4000 TSRA BKN015CB 27/25 Q1011 RWY WET TEMPO 3000 +TSRA

Panama Center: 134.900
Panama Center (North): 133.300
Panama Center (North): 125.500
Panama Center (South): 123.300
Panama Center (South): 133.000

Panama Center #2 (Archives)
Panama City, Panama

Feed Status: UP
Listen in your browser - HTML5 player(in browser, HTML5)
Click here to listen with your own player(launches your MP3 player)

MPPA 222100Z 01006KT 7000 -TSRA SCT015CB SCT080 27/26 Q1011 RWY WET

MPPA Flight Activity (Flightaware)

Listeners: 0 out of 1746 total

Panama Center: 134.900
Panama Center (North): 125.500
Panama Center (North): 133.300
Panama Center (South): 123.300
Panama Center (South): 133.000

Panama Radio #1
Panama City, Panama

Feed Status: DOWN
Offline since: 2021-12-17 13:13:39 UTC

MPMG 222100Z 25005KT 140V310 4000 TSRA BKN015CB 27/25 Q1011 RWY WET TEMPO 3000 +TSRA

Panama Radio: 123.600
Panama Radio: 126.900

Panama Traffic Advisory #1
Panama City, Panama

Feed Status: DOWN
Offline since: 2022-05-16 17:42:40 UTC

MPMG 222100Z 25005KT 140V310 4000 TSRA BKN015CB 27/25 Q1011 RWY WET TEMPO 3000 +TSRA

Panama Traffic Advisory: 121.200

CENAMER/Panama ACC (Archives)
San Jose, Costa Rica

Feed Status: UP
Listen in your browser - HTML5 player(in browser, HTML5)
Click here to listen with your own player(launches your MP3 player)

MROC 222100Z 25009KT 9999 VCTS FEW015CB SCT025 BKN200 26/22 A3006 TEMPO RA

MROC Flight Activity (Flightaware)

Listeners: 0 out of 1746 total

Central American Center (CENAMER Control): 124.100
Central American Center (CENAMER Control): 123.900
Panama Center: 133.000

MROC Del/Gnd/Twr
San Jose, Costa Rica

Feed Status: DOWN
Offline since: 2022-02-16 18:05:23 UTC

MROC 222100Z 25009KT 9999 VCTS FEW015CB SCT025 BKN200 26/22 A3006 TEMPO RA

Coco Clearance Delivery/Ground: 121.900
Coco Tower: 118.600

MROC Del/Gnd/Twr/App/Center/Misc (Archives)
San Jose, Costa Rica

Feed Status: UP
Listen in your browser - HTML5 player(in browser, HTML5)
Click here to listen with your own player(launches your MP3 player)

MROC 222100Z 25009KT 9999 VCTS FEW015CB SCT025 BKN200 26/22 A3006 TEMPO RA

MROC Flight Activity (Flightaware)

Listeners: 0 out of 1746 total

Coco Center (Control over CR Airspace): 119.600
Coco Clearance Delivery: 121.300
Coco Ground: 121.900
Coco Terminal Control: 120.500
Coco Tower: 118.600
Coco UNICOM: 126.800

MROC Gnd/Twr/App/Center (Archives)
San Jose, Costa Rica

Feed Status: UP
Listen in your browser - HTML5 player(in browser, HTML5)
Click here to listen with your own player(launches your MP3 player)

MROC 222100Z 25009KT 9999 VCTS FEW015CB SCT025 BKN200 26/22 A3006 TEMPO RA

MROC Flight Activity (Flightaware)

Listeners: 2 out of 1746 total

Central American Center (CENAMER Control): 124.100
Coco Center (Control over CR Airspace): 119.600
Coco Ground: 121.900
Coco Terminal Control: 120.500
Coco Tower: 118.600

MRPV Ground/Tower (Archives)
San Jose, Costa Rica

Feed Status: UP
Listen in your browser - HTML5 player(in browser, HTML5)
Click here to listen with your own player(launches your MP3 player)

MRPV 222100Z 26006KT 9999 TS BKN030CB 25/21 A3003 TEMPO RA

MRPV Flight Activity (Flightaware)

Listeners: 0 out of 1746 total

Pavas Ground: 121.700
Pavas Tower: 118.300

MSLP Gnd/Twr/App (Archives)
San Salvador, El Salvador

Feed Status: UP
Listen in your browser - HTML5 player(in browser, HTML5)
Click here to listen with your own player(launches your MP3 player)

MSLP 222050Z 17006KT 120V220 9999 VCSH FEW015 SCT027 FEW033CB 29/24 Q1012 A2989 NOSIG RMK CB NE NW

MSLP Flight Activity (Flightaware)

Listeners: 0 out of 1746 total

Comalapa Ground: 121.700
Comalapa Tower: 118.000
Compalapa Approach: 119.900

MSLP Gnd/Twr/App/Center (Archives)
San Salvador, El Salvador

Feed Status: UP
Listen in your browser - HTML5 player(in browser, HTML5)
Click here to listen with your own player(launches your MP3 player)

MSLP 222050Z 17006KT 120V220 9999 VCSH FEW015 SCT027 FEW033CB 29/24 Q1012 A2989 NOSIG RMK CB NE NW

MSLP Flight Activity (Flightaware)

Listeners: 1 out of 1746 total

Avianca Ops: 123.500
CCA: 119.300
CENAMER: 124.100
Comalapa Authorizations: 121.250
Comalapa Departure: 123.900
Comalapa Ground: 121.700
Comalapa Tower: 118.000
Compalapa Approach: 119.900
Ilopango Tower: 118.300
TACA Ops: 130.500

MSSS Tower
San Salvador, El Salvador

Feed Status: DOWN
Offline since: 2021-09-02 04:27:22 UTC

MSSS 221950Z 15007KT 9999 BKN023 FEW040CB 27/22 Q1016 A3002 RMK CB SH NW N

Ilopango Tower: 118.300

MUFH Havana FIR (App/Center) (Archives)
Havana, Cuba

Feed Status: UP
Listen in your browser - HTML5 player(in browser, HTML5)
Click here to listen with your own player(launches your MP3 player)

MUFH Flight Activity (Flightaware)

Listeners: 0 out of 1746 total

Hava Approach: 120.300
Havana Center: 120.250
Havana Center: 123.700
Havana Center: 124.550
Havana Center: 133.700
Havana Center: 135.100

OBBI Gnd/Twr/App (Archives)
Muharraq, Bahrain

Feed Status: UP
Listen in your browser - HTML5 player(in browser, HTML5)
Click here to listen with your own player(launches your MP3 player)

OBBI 222030Z 30010KT CAVOK 30/17 Q1000 NOSIG


Listeners: 5 out of 1746 total

Bahrain Arrival: 127.850
Bahrain Control (Low Central): 124.300
Bahrain Control (Low East): 125.700
Bahrain Control (Low North): 126.700
Bahrain Departure: 119.100
Bahrain Ground: 121.850
Bahrain Tower: 118.500

OKBK Gnd/Twr/App/Radar (Archives)
Kuwait City, Kuwait

Feed Status: UP
Listen in your browser - HTML5 player(in browser, HTML5)
Click here to listen with your own player(launches your MP3 player)

OKBK 222100Z 00000KT 7000 NSC 29/M03 Q1001 NOSIG


Listeners: 3 out of 1746 total

Kuwait Approach: 121.300
Kuwait Approach: 124.800
Kuwait Ground: 121.700
Kuwait Radar (Center): 125.300
Kuwait Tower: 118.300

OPKC Gnd/Twr/Radar (Archives)
Karachi, Pakistan

Feed Status: UP
Listen in your browser - HTML5 player(in browser, HTML5)
Click here to listen with your own player(launches your MP3 player)

OPKC 222100Z 27012KT 6000 BKN020 29/25 Q0997 NOSIG


Listeners: 2 out of 1746 total

Karachi Ground: 121.600
Karachi Radar: 125.500
Karachi Tower: 118.300

OPLA ATIS (Archives)
Lahore, Pakistan

Feed Status: UP
Listen in your browser - HTML5 player(in browser, HTML5)
Click here to listen with your own player(launches your MP3 player)

OPLA 222055Z 08014KT 4000 VCTS FEW030CB SCT040 OVC100 28/15 Q0996 TEMPO 33020G40KT 2000 TSRA FEW030CB RMK QFE969 A29.43


Listeners: 1 out of 1746 total

Lahore ATIS: 126.300

OPLA/OPLH Gnd/Twr/App (Archives)
Lahore, Pakistan

Feed Status: UP
Listen in your browser - HTML5 player(in browser, HTML5)
Click here to listen with your own player(launches your MP3 player)

OPLA 222055Z 08014KT 4000 VCTS FEW030CB SCT040 OVC100 28/15 Q0996 TEMPO 33020G40KT 2000 TSRA FEW030CB RMK QFE969 A29.43


Listeners: 2 out of 1746 total

Lahore Approach: 121.300
Lahore Approach: 125.300
Lahore Control: 127.500
Lahore Ground: 118.400
Lahore Tower: 118.100
Lahore Tower: 121.800
Walton (OPLH) Tower: 119.400

RJAA Approach (Archives)
Tokyo, Japan

Feed Status: UP
Listen in your browser - HTML5 player(in browser, HTML5)
Click here to listen with your own player(launches your MP3 player)

RJAA 222030Z AUTO 06005KT 9999 BKN038 OVC043 14/14 Q1007 BECMG 04006KT RMK A2974

RJAA Flight Activity (Flightaware)

Listeners: 13 out of 1746 total

Tokyo Approach: 124.400
Tokyo Approach: 127.700

RJAA ATIS (Archives)
Tokyo, Japan

Feed Status: UP
Listen in your browser - HTML5 player(in browser, HTML5)
Click here to listen with your own player(launches your MP3 player)

RJAA 222030Z AUTO 06005KT 9999 BKN038 OVC043 14/14 Q1007 BECMG 04006KT RMK A2974

RJAA Flight Activity (Flightaware)

Listeners: 0 out of 1746 total

Narita ATIS: 128.250

RJAA Clearance Delivery (Archives)
Tokyo, Japan

Feed Status: UP
Listen in your browser - HTML5 player(in browser, HTML5)
Click here to listen with your own player(launches your MP3 player)

RJAA 222030Z AUTO 06005KT 9999 BKN038 OVC043 14/14 Q1007 BECMG 04006KT RMK A2974

RJAA Flight Activity (Flightaware)

Listeners: 0 out of 1746 total

Narita Clearance Delivery (Asia/Pacific): 121.650
Narita Clearance Delivery (US/Europe): 121.900

RJAA Clearance Delivery #1 (Archives)
Tokyo, Japan

Feed Status: UP
Listen in your browser - HTML5 player(in browser, HTML5)
Click here to listen with your own player(launches your MP3 player)

RJAA 222030Z AUTO 06005KT 9999 BKN038 OVC043 14/14 Q1007 BECMG 04006KT RMK A2974

RJAA Flight Activity (Flightaware)

Listeners: 0 out of 1746 total

Narita Clearance Delivery (Asia/Pacific): 121.650

RJAA Clearance Delivery #2 (Archives)
Tokyo, Japan

Feed Status: UP
Listen in your browser - HTML5 player(in browser, HTML5)
Click here to listen with your own player(launches your MP3 player)

RJAA 222030Z AUTO 06005KT 9999 BKN038 OVC043 14/14 Q1007 BECMG 04006KT RMK A2974

RJAA Flight Activity (Flightaware)

Listeners: 0 out of 1746 total

Narita Clearance Delivery (US/Europe): 121.900

RJAA Company Channels (Archives)
Tokyo, Japan

Feed Status: UP
Listen in your browser - HTML5 player(in browser, HTML5)
Click here to listen with your own player(launches your MP3 player)

RJAA 222030Z AUTO 06005KT 9999 BKN038 OVC043 14/14 Q1007 BECMG 04006KT RMK A2974

RJAA Flight Activity (Flightaware)

Listeners: 1 out of 1746 total

Ops: 130.450
Ops: 130.550
Ops: 130.900
Ops: 131.025
Ops: 131.100
Ops: 131.200
Ops: 131.700
Ops: 131.750

RJAA Departure (Archives)
Tokyo, Japan

Feed Status: UP
Listen in your browser - HTML5 player(in browser, HTML5)
Click here to listen with your own player(launches your MP3 player)

RJAA 222030Z AUTO 06005KT 9999 BKN038 OVC043 14/14 Q1007 BECMG 04006KT RMK A2974

RJAA Flight Activity (Flightaware)

Listeners: 0 out of 1746 total

Tokyo Departure: 119.600
Tokyo Departure: 124.200

RJAA Departure #1 (Archives)
Tokyo, Japan

Feed Status: UP
Listen in your browser - HTML5 player(in browser, HTML5)
Click here to listen with your own player(launches your MP3 player)

RJAA 222030Z AUTO 06005KT 9999 BKN038 OVC043 14/14 Q1007 BECMG 04006KT RMK A2974

RJAA Flight Activity (Flightaware)

Listeners: 0 out of 1746 total

Tokyo Departure: 124.200

RJAA Departure #2 (Archives)
Tokyo, Japan

Feed Status: UP
Listen in your browser - HTML5 player(in browser, HTML5)
Click here to listen with your own player(launches your MP3 player)

RJAA 222030Z AUTO 06005KT 9999 BKN038 OVC043 14/14 Q1007 BECMG 04006KT RMK A2974

RJAA Flight Activity (Flightaware)

Listeners: 0 out of 1746 total

Tokyo Departure: 119.600

RJAA Emergency/Guard (Archives)
Tokyo, Japan

Feed Status: UP
Listen in your browser - HTML5 player(in browser, HTML5)
Click here to listen with your own player(launches your MP3 player)

RJAA 222030Z AUTO 06005KT 9999 BKN038 OVC043 14/14 Q1007 BECMG 04006KT RMK A2974

RJAA Flight Activity (Flightaware)

Listeners: 0 out of 1746 total

Emergency/Guard: 121.500

RJAA Ground #1 (Archives)
Tokyo, Japan

Feed Status: UP
Listen in your browser - HTML5 player(in browser, HTML5)
Click here to listen with your own player(launches your MP3 player)

RJAA 222030Z AUTO 06005KT 9999 BKN038 OVC043 14/14 Q1007 BECMG 04006KT RMK A2974

RJAA Flight Activity (Flightaware)

Listeners: 0 out of 1746 total

Narita Ground: 121.850

RJAA Ground #2 (Archives)
Tokyo, Japan

Feed Status: UP
Listen in your browser - HTML5 player(in browser, HTML5)
Click here to listen with your own player(launches your MP3 player)

RJAA 222030Z AUTO 06005KT 9999 BKN038 OVC043 14/14 Q1007 BECMG 04006KT RMK A2974

RJAA Flight Activity (Flightaware)

Listeners: 1 out of 1746 total

Narita Ground: 121.950

RJAA Radar 119.025 (Archives)
Tokyo, Japan

Feed Status: UP
Listen in your browser - HTML5 player(in browser, HTML5)
Click here to listen with your own player(launches your MP3 player)

RJAA 222030Z AUTO 06005KT 9999 BKN038 OVC043 14/14 Q1007 BECMG 04006KT RMK A2974

RJAA Flight Activity (Flightaware)

Listeners: 1 out of 1746 total

Tokyo Radar: 119.025

RJAA Radar 120.2 (Archives)
Tokyo, Japan

Feed Status: UP
Listen in your browser - HTML5 player(in browser, HTML5)
Click here to listen with your own player(launches your MP3 player)

RJAA 222030Z AUTO 06005KT 9999 BKN038 OVC043 14/14 Q1007 BECMG 04006KT RMK A2974

RJAA Flight Activity (Flightaware)

Listeners: 1 out of 1746 total

Tokyo Radar: 120.200

RJAA Radar 120.6 (Archives)
Tokyo, Japan

Feed Status: UP
Listen in your browser - HTML5 player(in browser, HTML5)
Click here to listen with your own player(launches your MP3 player)

RJAA 222030Z AUTO 06005KT 9999 BKN038 OVC043 14/14 Q1007 BECMG 04006KT RMK A2974

RJAA Flight Activity (Flightaware)

Listeners: 1 out of 1746 total

Tokyo Radar: 120.600

RJAA Radar 132.1 (Archives)
Tokyo, Japan

Feed Status: UP
Listen in your browser - HTML5 player(in browser, HTML5)
Click here to listen with your own player(launches your MP3 player)

RJAA 222030Z AUTO 06005KT 9999 BKN038 OVC043 14/14 Q1007 BECMG 04006KT RMK A2974

RJAA Flight Activity (Flightaware)

Listeners: 1 out of 1746 total

Tokyo Radar: 132.100

RJAA Radar 133.35 (Archives)
Tokyo, Japan

Feed Status: UP
Listen in your browser - HTML5 player(in browser, HTML5)
Click here to listen with your own player(launches your MP3 player)

RJAA 222030Z AUTO 06005KT 9999 BKN038 OVC043 14/14 Q1007 BECMG 04006KT RMK A2974

RJAA Flight Activity (Flightaware)

Listeners: 1 out of 1746 total

Tokyo Radar: 133.350

RJAA Ramp #1 (Archives)
Tokyo, Japan

Feed Status: UP
Listen in your browser - HTML5 player(in browser, HTML5)
Click here to listen with your own player(launches your MP3 player)

RJAA 222030Z AUTO 06005KT 9999 BKN038 OVC043 14/14 Q1007 BECMG 04006KT RMK A2974

RJAA Flight Activity (Flightaware)

Listeners: 0 out of 1746 total

Narita Ramp: 121.600

RJAA Ramp #2 (Archives)
Tokyo, Japan

Feed Status: UP
Listen in your browser - HTML5 player(in browser, HTML5)
Click here to listen with your own player(launches your MP3 player)

RJAA 222030Z AUTO 06005KT 9999 BKN038 OVC043 14/14 Q1007 BECMG 04006KT RMK A2974

RJAA Flight Activity (Flightaware)

Listeners: 1 out of 1746 total

Narita Ramp: 121.750

RJAA TCA (Archives)
Tokyo, Japan

Feed Status: UP
Listen in your browser - HTML5 player(in browser, HTML5)
Click here to listen with your own player(launches your MP3 player)

RJAA 222030Z AUTO 06005KT 9999 BKN038 OVC043 14/14 Q1007 BECMG 04006KT RMK A2974

RJAA Flight Activity (Flightaware)

Listeners: 0 out of 1746 total

Tokyo TCA (Terminal Control Area): 119.450

RJAA Tokyo Control (Archives)
Tokyo, Japan

Feed Status: UP
Listen in your browser - HTML5 player(in browser, HTML5)
Click here to listen with your own player(launches your MP3 player)

RJAA 222030Z AUTO 06005KT 9999 BKN038 OVC043 14/14 Q1007 BECMG 04006KT RMK A2974

RJAA Flight Activity (Flightaware)

Listeners: 0 out of 1746 total

Tokyo Control: 125.900

RJAA Tower #1 (Archives)
Tokyo, Japan

Feed Status: UP
Listen in your browser - HTML5 player(in browser, HTML5)
Click here to listen with your own player(launches your MP3 player)

RJAA 222030Z AUTO 06005KT 9999 BKN038 OVC043 14/14 Q1007 BECMG 04006KT RMK A2974

RJAA Flight Activity (Flightaware)

Listeners: 0 out of 1746 total

Narita Tower (Rwy 16R/34L): 118.200

RJAA Tower #2 (Archives)
Tokyo, Japan

Feed Status: UP
Listen in your browser - HTML5 player(in browser, HTML5)
Click here to listen with your own player(launches your MP3 player)

RJAA 222030Z AUTO 06005KT 9999 BKN038 OVC043 14/14 Q1007 BECMG 04006KT RMK A2974

RJAA Flight Activity (Flightaware)

Listeners: 0 out of 1746 total

Narita Tower (Rwy 16L/34R): 118.350

RJAA Tower (Both) (Archives)
Tokyo, Japan

Feed Status: UP
Listen in your browser - HTML5 player(in browser, HTML5)
Click here to listen with your own player(launches your MP3 player)

RJAA 222030Z AUTO 06005KT 9999 BKN038 OVC043 14/14 Q1007 BECMG 04006KT RMK A2974

RJAA Flight Activity (Flightaware)

Listeners: 1 out of 1746 total

Narita Tower (Rwy 16L/34R): 118.350
Narita Tower (Rwy 16R/34L): 118.200

RJOO Tower (Archives)
Osaka, Japan

Feed Status: UP
Listen in your browser - HTML5 player(in browser, HTML5)
Click here to listen with your own player(launches your MP3 player)

RJOO 222000Z AUTO 31004KT 9999 NSC 17/16 Q1009 RMK A2982

RJOO Flight Activity (Flightaware)

Listeners: 4 out of 1746 total

Osaka Tower: 118.100

RJSF RDO (Archives)
Sukagawa, Japan

Feed Status: UP
Listen in your browser - HTML5 player(in browser, HTML5)
Click here to listen with your own player(launches your MP3 player)


RJSF Flight Activity (Flightaware)

Listeners: 1 out of 1746 total

Fukushima Radio: 118.050

RJTT App/Dep (Archives)
Tokyo, Japan

Feed Status: UP
Listen in your browser - HTML5 player(in browser, HTML5)
Click here to listen with your own player(launches your MP3 player)

RJTT 222030Z 08014KT 9999 FEW015 BKN023 17/14 Q1007 BECMG 05012KT RMK 1CU015 7SC023 A2974

RJTT Flight Activity (Flightaware)

Listeners: 17 out of 1746 total

Tokyo Approach: 119.100
Tokyo Approach: 119.400
Tokyo Departure: 120.800
Tokyo Departure: 126.000

RJTT Approach (Archives)
Tokyo, Japan

Feed Status: UP
Listen in your browser - HTML5 player(in browser, HTML5)
Click here to listen with your own player(launches your MP3 player)

RJTT 222030Z 08014KT 9999 FEW015 BKN023 17/14 Q1007 BECMG 05012KT RMK 1CU015 7SC023 A2974

RJTT Flight Activity (Flightaware)

Listeners: 13 out of 1746 total

Tokyo Approach: 119.100
Tokyo Approach: 119.400

RJTT ATIS (Archives)
Tokyo, Japan

Feed Status: UP
Listen in your browser - HTML5 player(in browser, HTML5)
Click here to listen with your own player(launches your MP3 player)

RJTT 222030Z 08014KT 9999 FEW015 BKN023 17/14 Q1007 BECMG 05012KT RMK 1CU015 7SC023 A2974

RJTT Flight Activity (Flightaware)

Listeners: 0 out of 1746 total

Tokyo ATIS: 128.800

RJTT Company Channels (Archives)
Tokyo, Japan

Feed Status: UP
Listen in your browser - HTML5 player(in browser, HTML5)
Click here to listen with your own player(launches your MP3 player)

RJTT 222030Z 08014KT 9999 FEW015 BKN023 17/14 Q1007 BECMG 05012KT RMK 1CU015 7SC023 A2974

RJTT Flight Activity (Flightaware)

Listeners: 11 out of 1746 total

Company TBD: 128.500
Company TBD: 131.850
Company TBD: 129.725
Company TBD: 129.700
Company TBD: 131.900
Company TBD: 129.850
Company TBD: 128.975
Company TBD: 123.675
Company TBD: 132.075

RJTT Del/Ground (Archives)
Tokyo, Japan

Feed Status: UP
Listen in your browser - HTML5 player(in browser, HTML5)
Click here to listen with your own player(launches your MP3 player)

RJTT 222030Z 08014KT 9999 FEW015 BKN023 17/14 Q1007 BECMG 05012KT RMK 1CU015 7SC023 A2974

RJTT Flight Activity (Flightaware)

Listeners: 0 out of 1746 total

Tokyo Clearance Delivery: 121.825
Tokyo Ground: 121.700
Tokyo Ground: 118.225
Tokyo Ground: 121.625
Tokyo Ground: 121.975

RJTT Del/Twr/TCA/Gnd (Archives)
Tokyo, Japan

Feed Status: UP
Listen in your browser - HTML5 player(in browser, HTML5)
Click here to listen with your own player(launches your MP3 player)

RJTT 222030Z 08014KT 9999 FEW015 BKN023 17/14 Q1007 BECMG 05012KT RMK 1CU015 7SC023 A2974

RJTT Flight Activity (Flightaware)

Listeners: 8 out of 1746 total

Tokyo Clearance Delivery: 121.825
Tokyo Ground: 121.975
Tokyo Ground: 121.625
Tokyo Ground: 121.700
Tokyo Ground: 118.225
Tokyo TCA: 124.750
Tokyo Tower: 118.100
Tokyo Tower: 118.575
Tokyo Tower: 118.725
Tokyo Tower: 124.350

RJTT Departure (Archives)
Tokyo, Japan

Feed Status: UP
Listen in your browser - HTML5 player(in browser, HTML5)
Click here to listen with your own player(launches your MP3 player)

RJTT 222030Z 08014KT 9999 FEW015 BKN023 17/14 Q1007 BECMG 05012KT RMK 1CU015 7SC023 A2974

RJTT Flight Activity (Flightaware)

Listeners: 1 out of 1746 total

Tokyo Departure: 120.800
Tokyo Departure: 126.000

RJTT Tokyo Control (Archives)
Tokyo, Japan

Feed Status: UP
Listen in your browser - HTML5 player(in browser, HTML5)
Click here to listen with your own player(launches your MP3 player)

RJTT 222030Z 08014KT 9999 FEW015 BKN023 17/14 Q1007 BECMG 05012KT RMK 1CU015 7SC023 A2974

RJTT Flight Activity (Flightaware)

Listeners: 18 out of 1746 total

Tokyo Control: 133.700
Tokyo Control: 125.900
Tokyo Control: 120.500

RJTT Twr/TCA (Archives)
Tokyo, Japan

Feed Status: UP
Listen in your browser - HTML5 player(in browser, HTML5)
Click here to listen with your own player(launches your MP3 player)

RJTT 222030Z 08014KT 9999 FEW015 BKN023 17/14 Q1007 BECMG 05012KT RMK 1CU015 7SC023 A2974

RJTT Flight Activity (Flightaware)

Listeners: 2 out of 1746 total

Tokyo TCA: 124.750
Tokyo Tower: 118.100
Tokyo Tower: 118.575
Tokyo Tower: 118.725
Tokyo Tower: 124.350

RJTY Approach (Archives)
Tokyo, Japan

Feed Status: UP
Listen in your browser - HTML5 player(in browser, HTML5)
Click here to listen with your own player(launches your MP3 player)

RJTY 222056Z AUTO 01006KT 10SM BKN015 OVC021 15/13 A2979 RMK AO2 SLP089 60002 T01470129 52015 $

RJTY Flight Activity (Flightaware)

Listeners: 12 out of 1746 total

Yokota Approach: 118.300
Yokota APproach: 123.800
Yokota Approach: 120.700

RJTY ATIS (Archives)
Tokyo, Japan

Feed Status: UP
Listen in your browser - HTML5 player(in browser, HTML5)
Click here to listen with your own player(launches your MP3 player)

RJTY 222056Z AUTO 01006KT 10SM BKN015 OVC021 15/13 A2979 RMK AO2 SLP089 60002 T01470129 52015 $

RJTY Flight Activity (Flightaware)

Listeners: 0 out of 1746 total

Yokota ATIS: 126.400

RJTY Ground (Archives)
Tokyo, Japan

Feed Status: UP
Listen in your browser - HTML5 player(in browser, HTML5)
Click here to listen with your own player(launches your MP3 player)

RJTY 222056Z AUTO 01006KT 10SM BKN015 OVC021 15/13 A2979 RMK AO2 SLP089 60002 T01470129 52015 $

RJTY Flight Activity (Flightaware)

Listeners: 0 out of 1746 total

Yokota Ground: 133.200

RJTY Ground/Tower (Archives)
Tokyo, Japan

Feed Status: UP
Listen in your browser - HTML5 player(in browser, HTML5)
Click here to listen with your own player(launches your MP3 player)

RJTY 222056Z AUTO 01006KT 10SM BKN015 OVC021 15/13 A2979 RMK AO2 SLP089 60002 T01470129 52015 $

RJTY Flight Activity (Flightaware)

Listeners: 10 out of 1746 total

Yokota Ground: 133.200
Yokota Tower: 134.300

RJTY Tower (Archives)
Tokyo, Japan

Feed Status: UP
Listen in your browser - HTML5 player(in browser, HTML5)
Click here to listen with your own player(launches your MP3 player)

RJTY 222056Z AUTO 01006KT 10SM BKN015 OVC021 15/13 A2979 RMK AO2 SLP089 60002 T01470129 52015 $

RJTY Flight Activity (Flightaware)

Listeners: 3 out of 1746 total

Yokota Tower: 134.300

SAEZ Gnd/Twr/Control
Buenos Aires, Argentina

Feed Status: DOWN
Offline since: 2022-05-12 00:45:05 UTC

SAEZ 222100Z 04007KT CAVOK 17/10 Q1016 NOSIG RMK PP000


SANT Tower/Apps (Archives)
Tucuman, Argentina

Feed Status: UP
Listen in your browser - HTML5 player(in browser, HTML5)
Click here to listen with your own player(launches your MP3 player)

SANT 222100Z VRB02KT CAVOK 24/10 Q1013 RMK PP000

SANT Flight Activity (Flightaware)

Listeners: 1 out of 1746 total

Aeroclub Tucuman: 119.000
Aerolineas Argentinas SOC Salta: 131.100
Aerolineas Argentinas SOC Tucuman: 131.950
Air To Air: 123.450
Andes Lineas Aereas: 132.000
Campo Arenal: 130.950
Catamarca Tower: 118.150
Copa Airlines: 129.400
Cordoba Centro Norte: 125.100
Cordoba Centro Sur: 126.500
Emergency/Guard: 121.500
Lan Argentina Operaciones: 131.700
Lan Peru: 131.300
Salta Tower: 128.850
Santiago del Estero Tower: 118.700
Taca Peru: 126.450
Termas de Rio Hondo: 118.200
Termas de Rio Hondo: 119.850
Tucuman Ground: 121.750
Tucuman Ground: 121.750
Tucuman Tower: 118.350
Tucuman Tower: 119.500

SASA Twr/App (Archives)
Salta, Argentina

Feed Status: UP
Listen in your browser - HTML5 player(in browser, HTML5)
Click here to listen with your own player(launches your MP3 player)

SASA 222100Z 05009KT CAVOK 19/07 Q1017 RMK PP000

SASA Flight Activity (Flightaware)

Listeners: 1 out of 1746 total

Cordoba Approach (North): 125.100
Salta Approach: 124.600
Salta Tower: 126.000
Salta Tower/Ground: 128.850

SAZN Tower (Archives)
Neuquen, Argentina

Feed Status: UP
Listen in your browser - HTML5 player(in browser, HTML5)
Click here to listen with your own player(launches your MP3 player)

SAZN 222000Z 27014G27KT 9999 SCT025 BKN080 16/03 Q1011

SAZN Flight Activity (Flightaware)

Listeners: 0 out of 1746 total

Neuquen Tower/Approach: 119.800

SAZS Gnd/Twr/App (Archives)
Rio Negro, Argentina

Feed Status: UP
Listen in your browser - HTML5 player(in browser, HTML5)
Click here to listen with your own player(launches your MP3 player)

SAZS 222000Z 25008KT 9999 SCT030 SCT039 05/M01 Q1011 RMK PP///

SAZS Flight Activity (Flightaware)

Listeners: 0 out of 1746 total

Bariloche Twr/App: 119.100
Comodoro Rivadavia Control: 125.500
Ezeiza South: 125.200

SBBE Twr/App/SBAZ (Archives)
Belem, Brazil

Feed Status: UP
Listen in your browser - HTML5 player(in browser, HTML5)
Click here to listen with your own player(launches your MP3 player)

SBBE 222100Z 13004KT 9999 VCSH SCT020 FEW025TCU BKN080 28/24 Q1013

SBBE Flight Activity (Flightaware)

Listeners: 2 out of 1746 total

Amazonica FIR (SBAZ): 126.500
Amazonica FIR (SBAZ): 128.000
Amazonica FIR (SBAZ): 123.950
Amazonica FIR (SBAZ): 126.150
Amazonica FIR (SBAZ): 126.650
Amazonica FIR (SBAZ): 133.700
Belem Approach: 119.050
Belem Approach: 119.500
Belem Tower: 118.700

SBBR Approach
Brasilia, Brazil

Feed Status: DOWN
Offline since: 2022-05-18 03:34:40 UTC

SBBR 222100Z VRB02KT CAVOK 24/09 Q1021

Brasilia Approach: 120.650
Brasilia Approach: 129.150
Brasilia Approach: 129.600
Brasilia Approach (Final): 119.200
Brasilia Departure: 119.500
Brasilia Departure: 119.700

SBBR Ground
Brasilia, Brazil

Feed Status: DOWN
Offline since: 2022-05-18 03:34:40 UTC

SBBR 222100Z VRB02KT CAVOK 24/09 Q1021

Brasilia Ground: 121.950
Brasilia Ground: 121.800

SBBR Tower
Brasilia, Brazil

Feed Status: DOWN
Offline since: 2022-05-18 03:35:06 UTC

SBBR 222100Z VRB02KT CAVOK 24/09 Q1021

Brasilia Tower: 118.100
Brasilia Tower: 181.750
Brasilia Tower: 118.450

SBCT Gnd/Twr/App
Curitiba, Brazil

Feed Status: DOWN
Offline since: 2022-05-21 22:56:08 UTC

SBCT 222100Z 08004KT 020V110 9999 FEW007 14/07 Q1022

Curitiba Approach: 119.950
Curitiba Ground: 121.900
Curitiba Tower: 118.150
Curitiba Tower: 118.900

SBDN Twr/App (Archives)
Presidente Prudente/Sao Paulo, Brazil

Feed Status: UP
Listen in your browser - HTML5 player(in browser, HTML5)
Click here to listen with your own player(launches your MP3 player)

SBDN 222000Z 00000KT CAVOK 24/05 Q1018

SBDN Flight Activity (Flightaware)

Listeners: 1 out of 1746 total

Air-to-Air: 123.450
Curitiba Sector 13: 133.595
Prudente Approach: 118.450
Prudente Tower: 125.450

SBEG Tower/App (Archives)
Manaus, Brazil

Feed Status: UP
Listen in your browser - HTML5 player(in browser, HTML5)
Click here to listen with your own player(launches your MP3 player)

SBEG 222100Z 19005KT 9999 FEW020 SCT100 28/23 Q1013

SBEG Flight Activity (Flightaware)

Listeners: 2 out of 1746 total

Emergency/Guard: 121.500
Manaus Approach : 119.250
Manaus Approach: 120.400
Manaus Approach: 119.700
Manaus Tower: 118.300

SBFZ ACC/Misc
Fortaleza, Brazil

Feed Status: DOWN
Offline since: 2022-04-26 20:08:22 UTC

SBFZ 222100Z 09003KT 9999 FEW018 27/24 Q1013

Ait to Air: 123.450
SBAC: 131.250
SBJE: 131.050
SBJU: 131.750
SBMS: 125.800
SBPB: 126.600
SBRF ACC: 135.250
SBRF ACC: 133.500
SBRF ACC: 126.350
SBRF ACC: 125.150

SBFZ Twr/App/Center (Archives)
Fortaleza, Brazil

Feed Status: UP
Listen in your browser - HTML5 player(in browser, HTML5)
Click here to listen with your own player(launches your MP3 player)

SBFZ 222100Z 09003KT 9999 FEW018 27/24 Q1013

SBFZ Flight Activity (Flightaware)

Listeners: 2 out of 1746 total

ACC-RE (Fortaleza Sector): 125.150
ACC-RE (Fortaleza Sector): 126.350
ACC-RE (Fortaleza Sector): 135.250
Fortaleza Approach: 133.000
Fortaleza Tower: 129.000

SBGO Gnd/Twr/App (Archives)
Goiania, Brazil

Feed Status: UP
Listen in your browser - HTML5 player(in browser, HTML5)
Click here to listen with your own player(launches your MP3 player)

SBGO 222100Z 29004KT CAVOK 25/06 Q1019

SBGO Flight Activity (Flightaware)

Listeners: 3 out of 1746 total

Anapolis Approach: 119.150
Anapolis Approach: 120.550
Anapolis Approach: 133.000
Anapolis Approach: 129.450
Emergency/Guard: 121.500
Goiania Ground: 121.700
Goiania Tower: 118.700
Goiania Tower: 121.050

SBJP Tower (Archives)
Joao Pessoa, Brazil

Feed Status: UP
Listen in your browser - HTML5 player(in browser, HTML5)
Click here to listen with your own player(launches your MP3 player)

SBJP 222100Z 16009KT 8000 VCSH SCT040 BKN070 26/24 Q1015

SBJP Flight Activity (Flightaware)

Listeners: 0 out of 1746 total

Joao Pessoa Tower: 118.300

SBJP Twr/Control/Airlines
Joao Pessoa, Brazil

Feed Status: DOWN
Offline since: 2022-05-14 00:30:39 UTC

SBJP 222100Z 16009KT 8000 VCSH SCT040 BKN070 26/24 Q1015

AZUL: 130.900
GOL: 131.225
Joao Pessoa Tower: 118.300
Recife Control: 119.500
TAM: 130.500

SBJU Tower/Center (Archives)
Juazeiro do Norte, Brazil

Feed Status: UP
Listen in your browser - HTML5 player(in browser, HTML5)
Click here to listen with your own player(launches your MP3 player)

SBJU 222000Z 15003KT 9999 SCT020 26/21 Q1019

SBJU Flight Activity (Flightaware)

Listeners: 2 out of 1746 total

Pilot-to-Pilot: 123.450
Radio Juazeiro: 131.750
Recife Center: 135.250
Recife Center: 125.150

SBKP Approach
Campinas, Brazil

Feed Status: DOWN
Offline since: 2022-01-07 19:28:23 UTC

SBKP 222100Z 10004KT CAVOK 21/06 Q1021

Campinas Approach: 132.100
Campinas Approach: 135.750

SBKP Tower #1 (Archives)
Campinas, Brazil

Feed Status: UP
Listen in your browser - HTML5 player(in browser, HTML5)
Click here to listen with your own player(launches your MP3 player)

SBKP 222100Z 10004KT CAVOK 21/06 Q1021

SBKP Flight Activity (Flightaware)

Listeners: 4 out of 1746 total

Campinas Tower: 118.250

SBKP Tower #2 (Archives)
Campinas, Brazil

Feed Status: UP
Listen in your browser - HTML5 player(in browser, HTML5)
Click here to listen with your own player(launches your MP3 player)

SBKP 222100Z 10004KT CAVOK 21/06 Q1021

SBKP Flight Activity (Flightaware)

Listeners: 0 out of 1746 total

Campinas Tower: 118.250

SBLO Twr/App/Center (Archives)
Londrina, Brazil

Feed Status: UP
Listen in your browser - HTML5 player(in browser, HTML5)
Click here to listen with your own player(launches your MP3 player)

SBLO 222100Z 03002KT CAVOK 21/08 Q1019

SBLO Flight Activity (Flightaware)

Listeners: 3 out of 1746 total

Curitiba Center: 128.350
Curitiba Center: 135.100
Curitiba Center: 125.800
Curitiba Center: 126.950
Emergency/Guard: 121.500
Londrina Approach: 129.700
Londrina Tower: 118.400
UNICOM: 123.450

SBMG Twr/App (Archives)
Maringa, Brazil

Feed Status: UP
Listen in your browser - HTML5 player(in browser, HTML5)
Click here to listen with your own player(launches your MP3 player)

SBMG 222000Z 02005KT CAVOK 22/09 Q1019

SBMG Flight Activity (Flightaware)

Listeners: 2 out of 1746 total

Londrina Approach: 129.700
Maringa Tower: 118.750
UNICOM: 123.450

SBMK RDO/Center (Archives)
Montes Claros, Brazil

Feed Status: UP
Listen in your browser - HTML5 player(in browser, HTML5)
Click here to listen with your own player(launches your MP3 player)

SBMK Flight Activity (Flightaware)

Listeners: 0 out of 1746 total

Brasilia Center (Sector 15): 127.300
Montes Claros RDO: 131.700

SBMQ Tower/App/Center (Archives)
Macapa, Brazil

Feed Status: UP
Listen in your browser - HTML5 player(in browser, HTML5)
Click here to listen with your own player(launches your MP3 player)

SBMQ 222100Z 05001KT 9999 SCT015 BKN080 27/25 Q1013

SBMQ Flight Activity (Flightaware)

Listeners: 1 out of 1746 total

Amazonico Center: 123.950
Amazonico Center: 128.000
Macapa Approach: 119.000
Macapa Tower: 118.000

SBMT Tower
Sao Paulo, Brazil

Feed Status: DOWN
Offline since: 2022-02-08 12:31:22 UTC

Marte Tower: 133.350

SBNF Tower
Navegantes, Brazil

Feed Status: DOWN
Offline since: 2022-05-02 19:41:39 UTC

SBNF 222100Z 04008KT CAVOK 19/15 Q1020

Navegantes Tower: 118.200

SBPA Gnd/Twr/App/Center (Archives)
Porto Alegre, Brazil

Feed Status: UP
Listen in your browser - HTML5 player(in browser, HTML5)
Click here to listen with your own player(launches your MP3 player)

SBPA 222100Z 17005KT CAVOK 17/13 Q1020

SBPA Flight Activity (Flightaware)

Listeners: 5 out of 1746 total

BACO (Canoas) Ground: 121.700
BACO (Canoas) Tower: 118.500
BACO (Canoas) Tower (Mil): 122.800
Curitiba Center (Sector 1/South SBPA): 126.750
Curitiba Center (Sector 1/South SBPA): 127.400
Curitiba Center (Sector 2): 123.725
Curitiba Center (Sector 2): 135.900
Curitiba Center (Sector 3/West SBFL): 127.500
Curitiba Center (Sector 3/West SBFL): 126.100
Curitiba Center (Sector 4/South SBFL): 135.850
Curitiba Center (Sector 4/South SBFL): 128.450
Curitiba Center (Sector 5/East SBCT): 124.400
Curitiba Center (Sector 5/East SBCT): 125.400
Curitiba Center (Sector 6/East SBCT Atlantico): 128.400
Curitiba Center (Sector 6/East SBCT Atlantico): 127.050
Curitiba Center (Sector 9/North SBCT): 132.800
Curitiba Center (Sector 9/North SBCT): 126.500
Emergency/Guard: 121.500
Porto Alegre Approach Sector 1: 120.100
Porto Alegre Approach Sector 2: 120.550
Porto Alegre Approach Sector 3: 128.900
Porto Alegre Approach Sector 4: 119.000
Salgado Filho Ground: 121.900
Salgado Filho Tower: 118.100

SBPB Info
Parnaiba, Brazil

Feed Status: DOWN
Offline since: 2022-05-22 20:10:22 UTC

SBPB 222100Z 26003KT 9999 SCT015 BKN090 25/24 Q//// RETSRA

Parnaiba Info: 126.600

SBPL RDO/ACC (Archives)
Petrolina, Brazil

Feed Status: UP
Listen in your browser - HTML5 player(in browser, HTML5)
Click here to listen with your own player(launches your MP3 player)

SBPL 222100Z 20006KT CAVOK 27/18 Q1017

SBPL Flight Activity (Flightaware)

Listeners: 1 out of 1746 total

ACC RE Sector 5: 127.500
ACC RE Sector 5: 128.450
ACC RE Sector 6: 125.400
ACC RE Sector 6: 134.900
Air to Air/UNICOM: 123.450
Emergency/Guard: 121.500
Misc: 123.400
Petrolina RDO: 125.700
Recife FIS: 123.625

SBRF App 129.60 (Archives)
Recife, Brazil

Feed Status: UP
Listen in your browser - HTML5 player(in browser, HTML5)
Click here to listen with your own player(launches your MP3 player)

SBRF 222100Z 17014KT 9999 BKN020 28/23 Q1015

SBRF Flight Activity (Flightaware)

Listeners: 6 out of 1746 total

Recife Approach: 129.600

SBRF Gol Ops (Archives)
Recife, Brazil

Feed Status: UP
Listen in your browser - HTML5 player(in browser, HTML5)
Click here to listen with your own player(launches your MP3 player)

SBRF 222100Z 17014KT 9999 BKN020 28/23 Q1015

SBRF Flight Activity (Flightaware)

Listeners: 0 out of 1746 total

Gol Ops: 131.225

SBRF Ground (Archives)
Recife, Brazil

Feed Status: UP
Listen in your browser - HTML5 player(in browser, HTML5)
Click here to listen with your own player(launches your MP3 player)

SBRF 222100Z 17014KT 9999 BKN020 28/23 Q1015

SBRF Flight Activity (Flightaware)

Listeners: 0 out of 1746 total

Recife Ground: 121.850

SBRF LATAM Ops (Archives)
Recife, Brazil

Feed Status: UP
Listen in your browser - HTML5 player(in browser, HTML5)
Click here to listen with your own player(launches your MP3 player)

SBRF 222100Z 17014KT 9999 BKN020 28/23 Q1015

SBRF Flight Activity (Flightaware)

Listeners: 0 out of 1746 total

LATAM Ops: 130.500

SBRF Recife ACC (Archives)
Recife, Brazil

Feed Status: UP
Listen in your browser - HTML5 player(in browser, HTML5)
Click here to listen with your own player(launches your MP3 player)

SBRF 222100Z 17014KT 9999 BKN020 28/23 Q1015

SBRF Flight Activity (Flightaware)

Listeners: 1 out of 1746 total

Recife Center: 128.700
Recife Center: 133.650
Recife Center: 134.800

SBRF Tower (Archives)
Recife, Brazil

Feed Status: UP
Listen in your browser - HTML5 player(in browser, HTML5)
Click here to listen with your own player(launches your MP3 player)

SBRF 222100Z 17014KT 9999 BKN020 28/23 Q1015

SBRF Flight Activity (Flightaware)

Listeners: 0 out of 1746 total

Recife Tower: 125.250
Recife Tower: 118.350
Recife Tower: 118.900

SBRP Tower/Center (Archives)
Ribeirao Preto, Brazil

Feed Status: UP
Listen in your browser - HTML5 player(in browser, HTML5)
Click here to listen with your own player(launches your MP3 player)

SBRP 222100Z 36002KT CAVOK 23/05 Q1019

SBRP Flight Activity (Flightaware)

Listeners: 2 out of 1746 total

Leite Lopes Tower: 118.000
Pirassununga Center (North): 119.550

SBSL Twr/App/FIR (Archives)
Sao Luis, Brazil

Feed Status: UP
Listen in your browser - HTML5 player(in browser, HTML5)
Click here to listen with your own player(launches your MP3 player)

SBSL 222100Z 09002KT 9999 FEW020 SCT100 26/25 Q1014

SBSL Flight Activity (Flightaware)

Listeners: 0 out of 1746 total

Amazonica Center: 133.700
Sao Luis Approach: 119.100
Sao Luis Tower: 118.900

SBSN Twr/App/ACC (Archives)
Santarem, Brazil

Feed Status: UP
Listen in your browser - HTML5 player(in browser, HTML5)
Click here to listen with your own player(launches your MP3 player)

SBSN 222100Z 19003KT 9999 FEW016 26/24 Q1013

SBSN Flight Activity (Flightaware)

Listeners: 0 out of 1746 total

Brasilia Center/ACC: 123.650
Brasilia Center/ACC: 125.050
Santarem Approach: 119.300
Santarem Tower: 118.100

SBSR AFIS/App/Center (Archives)
Sao Jose do Rio Preto, Brazil

Feed Status: UP
Listen in your browser - HTML5 player(in browser, HTML5)
Click here to listen with your own player(launches your MP3 player)

SBSR 222000Z 34002KT CAVOK 25/03 Q1019

SBSR Flight Activity (Flightaware)

Listeners: 1 out of 1746 total

Academia Approach (North Sector): 119.750
Academia Approach (North Sector): 120.400
Brasilia Center: 135.150
Rio Preto Radio AFIS: 130.850

SBTE Twr/App (Archives)
Teresina, Brazil

Feed Status: UP
Listen in your browser - HTML5 player(in browser, HTML5)
Click here to listen with your own player(launches your MP3 player)

SBTE 222100Z 09003KT 9999 FEW040 SCT100 25/22 Q1013

SBTE Flight Activity (Flightaware)

Listeners: 0 out of 1746 total

Teresina Approach: 119.600
Teresina Tower: 118.800

SBRE Recife ACC (Archives)
Paulo Afonso, Brazil

Feed Status: UP
Listen in your browser - HTML5 player(in browser, HTML5)
Click here to listen with your own player(launches your MP3 player)

SBRE Flight Activity (Flightaware)

Listeners: 0 out of 1746 total

Recife Center (ACC): 125.400
Recife Center (ACC): 125.450
Recife Center (ACC): 126.850
Recife Center (ACC): 133.650
Recife Center (ACC): 134.500
Recife Center (ACC): 134.900

SBUF AFIS/Center (Archives)
Paulo Afonso, Brazil

Feed Status: UP
Listen in your browser - HTML5 player(in browser, HTML5)
Click here to listen with your own player(launches your MP3 player)


SBUF Flight Activity (Flightaware)

Listeners: 1 out of 1746 total

Paulo Afonso Radio: 125.850
Recife Center: 133.650
Recife Center: 134.500
Recife Center: 125.450

SBQV AFIS
Vitoria da Conquista, Brazil

Feed Status: DOWN
Offline since: 2022-05-19 03:01:22 UTC

Conquista AFIS: 130.850
Despacho Azul: 131.875
Despacho Passaredo: 132.000

SCEL Gnd/Twr/Radar
Santiago, Chile

Feed Status: DOWN
Offline since: 2022-04-27 18:47:39 UTC

SCEL 222100Z 16009KT 9999 BKN130 15/08 Q1021 NOSIG

Santiago Authorizations: 121.700
Santiago Control (Lat 3323S North): 128.100
Santiago Control (Lat 3323S South): 126.300
Santiago Ground (Primary): 122.200
Santiago Ground (Secondary): 122.500
Santiago Radar: 125.400
Santiago Radar: 135.400
Santiago Radar (Arrival, Primary): 129.700
Santiago Radar (Arrival, Secondary): 119.700
Santiago Radar (Arrival, Secondary): 123.800
Santiago Radar (Departure, Primary): 121.100
Santiago Radar (Departure, Secondary): 123.800
Santiago Radar (Information, Primary): 122.400
Santiago Radar (Information, Secondary): 120.800
Santiago Radar (Information, Secondary): 123.800
Santiago Tower (Primary): 118.100
Santiago Tower (Secondary): 118.350
SCTB Tobalaba Tower: 118.700

SEGU App/Dep/Info (Archives)
Guayaquil, Ecuador

Feed Status: UP
Listen in your browser - HTML5 player(in browser, HTML5)
Click here to listen with your own player(launches your MP3 player)

SEGU 222100Z 14005KT 9999 BKN023 OVC100 28/23 Q1011 NOSIG RMK A2986

SEGU Flight Activity (Flightaware)

Listeners: 0 out of 1746 total

Guayaquil Approach: 120.700
Guayaquil Approach (Secondary): 119.300
Guayaquil Info: 126.900

SEGU Gnd/Twr (Archives)
Guayaquil, Ecuador

Feed Status: UP
Listen in your browser - HTML5 player(in browser, HTML5)
Click here to listen with your own player(launches your MP3 player)

SEGU 222100Z 14005KT 9999 BKN023 OVC100 28/23 Q1011 NOSIG RMK A2986

SEGU Flight Activity (Flightaware)

Listeners: 0 out of 1746 total

Guayaquil Ground: 121.900
Guayaquil Ground (Secondary): 121.700
Guayaquil Tower: 118.300
Guayaquil Tower (Secondary): 118.900

SEGU Gnd/Twr/App (Archives)
Guayaquil, Ecuador

Feed Status: UP
Listen in your browser - HTML5 player(in browser, HTML5)
Click here to listen with your own player(launches your MP3 player)

SEGU 222100Z 14005KT 9999 BKN023 OVC100 28/23 Q1011 NOSIG RMK A2986

SEGU Flight Activity (Flightaware)

Listeners: 0 out of 1746 total

Guayaquil Approach: 120.700
Guayaquil Ground: 121.900
Guayaquil Tower: 118.300

SEGU Guayaquil Center (Archives)
Guayaquil, Ecuador

Feed Status: UP
Listen in your browser - HTML5 player(in browser, HTML5)
Click here to listen with your own player(launches your MP3 player)

SEGU 222100Z 14005KT 9999 BKN023 OVC100 28/23 Q1011 NOSIG RMK A2986

SEGU Flight Activity (Flightaware)

Listeners: 0 out of 1746 total

Guayaquil Center: 127.950
Guayaquil Center: 128.300
Guayaquil Center (Secondary): 128.000
Guayaquil Center (Secondary): 123.900

SEQM ATIS (Archives)
Quito, Ecuador

Feed Status: UP
Listen in your browser - HTML5 player(in browser, HTML5)
Click here to listen with your own player(launches your MP3 player)

SEQM 222100Z 02014KT 9999 VCSH SCT030 SCT100 20/13 Q1025 NOSIG RMK A3029

SEQM Flight Activity (Flightaware)

Listeners: 0 out of 1746 total

Quito ATIS: 118.700

SEQM Gnd/Twr/App (Archives)
Quito, Ecuador

Feed Status: UP
Listen in your browser - HTML5 player(in browser, HTML5)
Click here to listen with your own player(launches your MP3 player)

SEQM 222100Z 02014KT 9999 VCSH SCT030 SCT100 20/13 Q1025 NOSIG RMK A3029

SEQM Flight Activity (Flightaware)

Listeners: 1 out of 1746 total

Quito Approach/Departure: 119.700
Quito Approach/Departure: 121.200
Quito Ground: 121.900
Quito Tower: 118.100
Quito Tower (Secondary): 118.350

SEQM Tower (Archives)
Quito, Ecuador

Feed Status: UP
Listen in your browser - HTML5 player(in browser, HTML5)
Click here to listen with your own player(launches your MP3 player)

SEQM 222100Z 02014KT 9999 VCSH SCT030 SCT100 20/13 Q1025 NOSIG RMK A3029

SEQM Flight Activity (Flightaware)

Listeners: 1 out of 1746 total

Quito Tower: 118.100
Quito Tower (Secondary): 118.350

SKBO Del/Gnd/Twr/App
Bogota, Colombia

Feed Status: DOWN
Offline since: 2020-09-01 16:38:05 UTC

SKBO 222100Z 25009KT 9999 SCT020 20/12 Q1026 RMK A3031

Bogota Approach: 119.500
Bogota Clearance Delivery: 121.600
Bogota Departure (North): 121.300
Bogota Departure (South): 119.650
Bogota Ground (North): 121.800
Bogota Ground (South): 122.750
Bogota Information: 126.900
Bogota Tower (North): 118.100
Bogota Tower (South): 118.250
Guaymaral Ground: 121.700
Guaymaral Tower: 118.800

SNRZ Area
Oliveira, Brazil

Feed Status: DOWN
Offline since: 2022-05-11 14:09:06 UTC

Azul: 130.900
Brasilia ACC-BS (Air Control Center): 133.450
Brasilia ACC-BS (Air Control Center): 135.550
Brasilia ACC-BS (Air Control Center): 126.150
Brasilia ACC-BS (Air Control Center): 126.800
Brasilia ACC-BS (Air Control Center): 125.050
Brasilia ACC-BS (Air Control Center): 126.500
Brasilia ACC-BS (Air Control Center): 122.650
Brasilia ACC-BS (Air Control Center): 126.550
Brasilia ACC-BS (Air Control Center): 123.350
Brasilia ACC-BS (Air Control Center): 124.750
Brasilia ACC-BS (Air Control Center): 134.750
Brasilia ACC-BS (Air Control Center): 133.600
Brasilia ACC-BS (Air Control Center): 124.800
Brasilia ACC-BS (Air Control Center): 124.250
Brasilia ACC-BS (Air Control Center): 127.300
Brasilia ACC-BS (Air Control Center): 127.000
Brasilia ACC-BS (Air Control Center): 124.250
Brasilia ACC-BS (Air Control Center): 127.300
Brasilia ACC-BS (Air Control Center): 127.000
Brasilia ACC-BS (Air Control Center): 133.450
Brasilia ACC-BS (Air Control Center): 135.550
Brasilia ACC-BS (Air Control Center): 126.150
Brasilia ACC-BS (Air Control Center): 126.800
Brasilia ACC-BS (Air Control Center): 125.050
Brasilia ACC-BS (Air Control Center): 126.500
Brasilia ACC-BS (Air Control Center): 122.650
Brasilia ACC-BS (Air Control Center): 126.550
Brasilia ACC-BS (Air Control Center): 123.350
Brasilia ACC-BS (Air Control Center): 124.750
Brasilia ACC-BS (Air Control Center): 134.750
Brasilia ACC-BS (Air Control Center): 133.600
Brasilia ACC-BS (Air Control Center): 124.800
Curitiba ACC-CW: 126.500
Curitiba ACC-CW: 134.750
Curitiba ACC-CW: 124.000
Curitiba ACC-CW: 125.350
Emergency: 121.500
Emergency: 121.500
GOL Coordination: 131.225
TAM Coordination: 130.500
TAM Maintenance: 130.600
Trip Coordination: 131.375

SPJC Approach (Archives)
Lima, Peru

Feed Status: UP
Listen in your browser - HTML5 player(in browser, HTML5)
Click here to listen with your own player(launches your MP3 player)

SPJC 222100Z 30004KT 250V350 6000 OVC012 18/14 Q1015 NOSIG RMK PP000

SPJC Flight Activity (Flightaware)

Listeners: 0 out of 1746 total

Lima Approach: 119.700

SPJC Ground (Archives)
Lima, Peru

Feed Status: UP
Listen in your browser - HTML5 player(in browser, HTML5)
Click here to listen with your own player(launches your MP3 player)

SPJC 222100Z 30004KT 250V350 6000 OVC012 18/14 Q1015 NOSIG RMK PP000

SPJC Flight Activity (Flightaware)

Listeners: 0 out of 1746 total

Lima Ground: 121.900

SPJC Tower (Archives)
Lima, Peru

Feed Status: UP
Listen in your browser - HTML5 player(in browser, HTML5)
Click here to listen with your own player(launches your MP3 player)

SPJC 222100Z 30004KT 250V350 6000 OVC012 18/14 Q1015 NOSIG RMK PP000

SPJC Flight Activity (Flightaware)

Listeners: 2 out of 1746 total

Lima Tower: 118.100

SPQU Radar (Archives)
Arequipa, Peru

Feed Status: UP
Listen in your browser - HTML5 player(in browser, HTML5)
Click here to listen with your own player(launches your MP3 player)

SPQU 222100Z 24006KT 180V290 CAVOK 18/M07 Q1028 RMK PP000

SPQU Flight Activity (Flightaware)

Listeners: 0 out of 1746 total

Radar Sur-dos: 128.800

SPST Tower (Archives)
Tarapoto, Peru

Feed Status: UP
Listen in your browser - HTML5 player(in browser, HTML5)
Click here to listen with your own player(launches your MP3 player)

SPST 222100Z 06006KT 9999 SCT020 31/22 Q1011 RMK BIRD HAZARD RWY 17/35 PP000

SPST Flight Activity (Flightaware)

Listeners: 0 out of 1746 total

Tarapoto Tower: 118.400

SSBL Air to Air (Archives)
Blumenau, Brazil

Feed Status: UP
Listen in your browser - HTML5 player(in browser, HTML5)
Click here to listen with your own player(launches your MP3 player)

SSBL Flight Activity (Flightaware)

Listeners: 0 out of 1746 total

Air to Air: 123.450

SUAA Tower (Archives)
Montevideo, Uruguay

Feed Status: UP
Listen in your browser - HTML5 player(in browser, HTML5)
Click here to listen with your own player(launches your MP3 player)

SUAA 222100Z 04006KT CAVOK 17/11 Q1018

SUAA Flight Activity (Flightaware)

Listeners: 2 out of 1746 total

Adami Tower: 118.400
Adami Tower (backup): 122.100
Emergency/Guard: 121.500

SUCM AFIS/SUCA/SADF Twr (Archives)
Carmelo, Uruguay

Feed Status: UP
Listen in your browser - HTML5 player(in browser, HTML5)
Click here to listen with your own player(launches your MP3 player)


SUCM Flight Activity (Flightaware)

Listeners: 0 out of 1746 total

Carmelo AFIS: 122.100
Colonia Tower (SUCA): 120.800
San Fernando Tower (SADF): 120.700

SUDU Twr/App/FIR (Archives)
Durazno, Uruguay

Feed Status: UP
Listen in your browser - HTML5 player(in browser, HTML5)
Click here to listen with your own player(launches your MP3 player)


SUDU Flight Activity (Flightaware)

Listeners: 0 out of 1746 total

Durazno Twr/App: 120.400
Durazno Twr/App: 126.200
Montevideo Control - Centro (Central): 126.300

SULS Tower (Archives)
Punta del Este, Uruguay

Feed Status: UP
Listen in your browser - HTML5 player(in browser, HTML5)
Click here to listen with your own player(launches your MP3 player)

SULS 222100Z 16003KT 110V170 CAVOK 13/08 Q1018

SULS Flight Activity (Flightaware)

Listeners: 0 out of 1746 total

Air to Air: 123.450
SULS A/G: 122.100
SULS Tower: 118.300

SUMO Tower (Archives)
Melo, Uruguay

Feed Status: UP
Listen in your browser - HTML5 player(in browser, HTML5)
Click here to listen with your own player(launches your MP3 player)


SUMO Flight Activity (Flightaware)

Listeners: 0 out of 1746 total

Melo Ramp: 122.100
Melo Tower: 118.600

SUMU App/Dep (Archives)
Montevideo, Uruguay

Feed Status: UP
Listen in your browser - HTML5 player(in browser, HTML5)
Click here to listen with your own player(launches your MP3 player)

SUMU 222100Z 04004KT CAVOK 16/10 Q1018 NOSIG

SUMU Flight Activity (Flightaware)

Listeners: 0 out of 1746 total

SUMU Approach: 119.200
SUMU Approach: 120.200
SUMU Control: 128.500

SUMU Twr/App (Archives)
Montevideo, Uruguay

Feed Status: UP
Listen in your browser - HTML5 player(in browser, HTML5)
Click here to listen with your own player(launches your MP3 player)

SUMU 222100Z 04004KT CAVOK 16/10 Q1018 NOSIG

SUMU Flight Activity (Flightaware)

Listeners: 1 out of 1746 total

SUMU Approach: 119.200
SUMU Tower: 118.100

SUMU Twr/Info (Archives)
Montevideo, Uruguay

Feed Status: UP
Listen in your browser - HTML5 player(in browser, HTML5)
Click here to listen with your own player(launches your MP3 player)

SUMU 222100Z 04004KT CAVOK 16/10 Q1018 NOSIG

SUMU Flight Activity (Flightaware)

Listeners: 0 out of 1746 total

SUMU Info: 121.800
SUMU Tower: 118.100

SUPE CTAF (Archives)
Punta del Este, Uruguay

Feed Status: UP
Listen in your browser - HTML5 player(in browser, HTML5)
Click here to listen with your own player(launches your MP3 player)

SULS 222100Z 16003KT 110V170 CAVOK 13/08 Q1018

SULS Flight Activity (Flightaware)

Listeners: 0 out of 1746 total

SUPE CTAF: 118.700

SUPU/SUPC Misc
Paysandu, Uruguay

Feed Status: DOWN
Offline since: 2021-10-28 06:09:39 UTC


Chalkling Tower: 118.700
Paysandu Tower: 118.200

SURV Tower/Ramp (Archives)
Rivera, Uruguay

Feed Status: UP
Listen in your browser - HTML5 player(in browser, HTML5)
Click here to listen with your own player(launches your MP3 player)


SURV Flight Activity (Flightaware)

Listeners: 0 out of 1746 total

Rivera Flying Club Ops: 118.100
Rivera Ramp/Tower: 118.000
Rivera Ramp/Tower: 122.100

SUSO Tower/Ramp (Archives)
Salto, Uruguay

Feed Status: UP
Listen in your browser - HTML5 player(in browser, HTML5)
Click here to listen with your own player(launches your MP3 player)

SUSO 222100Z 04003KT 9999 FEW030 18/13 Q1017

SUSO Flight Activity (Flightaware)

Listeners: 0 out of 1746 total


SVPR Twr/App/FIR (Archives)
Ciudad Guayana, Venezuela

Feed Status: UP
Listen in your browser - HTML5 player(in browser, HTML5)
Click here to listen with your own player(launches your MP3 player)

SVPR Flight Activity (Flightaware)

Listeners: 0 out of 1746 total

Emergency/Guard: 121.500
FIR 6: 126.000
Guayana Approach (Primary): 119.500
Guayana Approach (Secondary): 120.300
Guayana Tower (Primary): 118.000
Guayana Tower (Secondary): 123.500
SMC: 121.900

TBPB Gnd/Twr/Radar/Center (Archives)
Bridgetown, Barbados

Feed Status: UP
Listen in your browser - HTML5 player(in browser, HTML5)
Click here to listen with your own player(launches your MP3 player)

TBPB 222100Z 10016KT 9999 SCT018 28/23 Q1017 NOSIG

TBPB Flight Activity (Flightaware)

Listeners: 1 out of 1746 total

Adams Approach/Departure: 129.350
Adams Approach/Departure: 128.850
Adams Ground: 121.900
Adams Tower: 118.700
Piarco Center: 123.700

TNCA Twr/App/Apron (Archives)
Oranjestad, Aruba

Feed Status: UP
Listen in your browser - HTML5 player(in browser, HTML5)
Click here to listen with your own player(launches your MP3 player)

TNCA 222100Z 08022KT 9999 FEW023 30/23 Q1013 NOSIG

TNCA Flight Activity (Flightaware)

Listeners: 2 out of 1746 total

Beatrix Ground (Apron): 121.600
Beatrix Tower: 118.000
Beatrix Twr/App: 120.900
Emergency/Guard: 121.500
Search/Rescue: 123.100

TNCB ATIS (Archives)
Kralendijk, Bonaire

Feed Status: UP
Listen in your browser - HTML5 player(in browser, HTML5)
Click here to listen with your own player(launches your MP3 player)

TNCB 221955Z 08020KT 040V110 9999 FEW016 BKN020 BKN027 30/23 Q1015

TNCB Flight Activity (Flightaware)

Listeners: 0 out of 1746 total

Bonaire ATIS: 132.300

TNCB Tower (Archives)
Kralendijk, Bonaire

Feed Status: UP
Listen in your browser - HTML5 player(in browser, HTML5)
Click here to listen with your own player(launches your MP3 player)

TNCB 221955Z 08020KT 040V110 9999 FEW016 BKN020 BKN027 30/23 Q1015

TNCB Flight Activity (Flightaware)

Listeners: 2 out of 1746 total

Bonaire Tower: 118.700

TNCC ATIS (Archives)
Willemstad, Curacao

Feed Status: UP
Listen in your browser - HTML5 player(in browser, HTML5)
Click here to listen with your own player(launches your MP3 player)

TNCC 222000Z 08013KT 9999 FEW021 30/23 Q1015 NOSIG

TNCC Flight Activity (Flightaware)

Listeners: 0 out of 1746 total

Hato ATIS: 132.600

TNCC Control (Archives)
Willemstad, Curacao

Feed Status: UP
Listen in your browser - HTML5 player(in browser, HTML5)
Click here to listen with your own player(launches your MP3 player)

TNCC 222000Z 08013KT 9999 FEW021 30/23 Q1015 NOSIG

TNCC Flight Activity (Flightaware)

Listeners: 1 out of 1746 total

Curacao Control: 124.100
Curacao Control: 127.100

TNCC Radar (Archives)
Willemstad, Curacao

Feed Status: UP
Listen in your browser - HTML5 player(in browser, HTML5)
Click here to listen with your own player(launches your MP3 player)

TNCC 222000Z 08013KT 9999 FEW021 30/23 Q1015 NOSIG

TNCC Flight Activity (Flightaware)

Listeners: 0 out of 1746 total

Hato Radar (1700-2300Z): 119.800

TNCC Tower (Archives)
Willemstad, Curacao

Feed Status: UP
Listen in your browser - HTML5 player(in browser, HTML5)
Click here to listen with your own player(launches your MP3 player)

TNCC 222000Z 08013KT 9999 FEW021 30/23 Q1015 NOSIG

TNCC Flight Activity (Flightaware)

Listeners: 0 out of 1746 total

Hato Tower: 118.300

TNCC Twr/Radar/Control (Archives)
Willemstad, Curacao

Feed Status: UP
Listen in your browser - HTML5 player(in browser, HTML5)
Click here to listen with your own player(launches your MP3 player)

TNCC 222000Z 08013KT 9999 FEW021 30/23 Q1015 NOSIG

TNCC Flight Activity (Flightaware)

Listeners: 1 out of 1746 total

Curacao Control: 127.100
Hato Radar: 119.600
Hato Tower: 118.300

TNCE Info (Archives)
Oranjestad, Sint Eustatius

Feed Status: UP
Listen in your browser - HTML5 player(in browser, HTML5)
Click here to listen with your own player(launches your MP3 player)

TNCE 221955Z AUTO 05012KT 020V080 //// // ///////// 29/23 Q1018 RE//

TNCE Flight Activity (Flightaware)

Listeners: 0 out of 1746 total

Statia Info: 118.100

TNCM App/Dep (Archives)
Philipsburg, Saint Martin

Feed Status: UP
Listen in your browser - HTML5 player(in browser, HTML5)
Click here to listen with your own player(launches your MP3 player)

TNCM 222000Z 07009KT 040V100 9999 SCT018 30/21 Q1020 NOSIG

TNCM Flight Activity (Flightaware)

Listeners: 0 out of 1746 total

Juliana Approach (only when busy): 128.950

TNCM Clearance Delivery (Archives)
Philipsburg, Saint Martin

Feed Status: UP
Listen in your browser - HTML5 player(in browser, HTML5)
Click here to listen with your own player(launches your MP3 player)

TNCM 222000Z 07009KT 040V100 9999 SCT018 30/21 Q1020 NOSIG

TNCM Flight Activity (Flightaware)

Listeners: 0 out of 1746 total

Juliana Clearance Delivery: 121.650

TNCM Tower (Archives)
Philipsburg, Saint Martin

Feed Status: UP
Listen in your browser - HTML5 player(in browser, HTML5)
Click here to listen with your own player(launches your MP3 player)

TNCM 222000Z 07009KT 040V100 9999 SCT018 30/21 Q1020 NOSIG

TNCM Flight Activity (Flightaware)

Listeners: 6 out of 1746 total

Juliana Tower (TNCM): 118.700

TNCS Info (Archives)
Hell's Gate, Saba

Feed Status: UP
Listen in your browser - HTML5 player(in browser, HTML5)
Click here to listen with your own player(launches your MP3 player)

TNCS Flight Activity (Flightaware)

Listeners: 1 out of 1746 total

Saba Tower: 118.250

TQPF Tower (Archives)
The Valley, Anguilla

Feed Status: UP
Listen in your browser - HTML5 player(in browser, HTML5)
Click here to listen with your own player(launches your MP3 player)

TNCM 222000Z 07009KT 040V100 9999 SCT018 30/21 Q1020 NOSIG

TNCM Flight Activity (Flightaware)

Listeners: 0 out of 1746 total

Anguilla Tower: 118.500

TTCP Gnd/Twr/App (Archives)
Scarborough, Trinidad and Tobago

Feed Status: UP
Listen in your browser - HTML5 player(in browser, HTML5)
Click here to listen with your own player(launches your MP3 player)

TTCP 222000Z 09016KT 9999 VCSH FEW020 30/20 Q1015 NOSIG RMK VCSH W

TTCP Flight Activity (Flightaware)

Listeners: 0 out of 1746 total

Piarco Approach: 119.000
Robinson Ground: 121.700
Robinson Tower: 118.400

TTPP Apron/Gnd/Twr (Archives)
Port of Spain, Trinidad and Tobago

Feed Status: UP
Listen in your browser - HTML5 player(in browser, HTML5)
Click here to listen with your own player(launches your MP3 player)

TTPP 222000Z 09014KT 6000 FEW032 30/21 Q1015 NOSIG

TTPP Flight Activity (Flightaware)

Listeners: 6 out of 1746 total

Piarco Apron: 121.750
Piarco Ground: 121.900
Piarco Tower: 118.100

TTPP Piarco App/Center (Archives)
Port of Spain, Trinidad and Tobago

Feed Status: UP
Listen in your browser - HTML5 player(in browser, HTML5)
Click here to listen with your own player(launches your MP3 player)

TTPP 222000Z 09014KT 6000 FEW032 30/21 Q1015 NOSIG

TTPP Flight Activity (Flightaware)

Listeners: 0 out of 1746 total

Piarco Approach: 119.550
Piarco Approach: 119.000
Piarco Approach (backup): 124.000
Piarco Center: 123.700
Piarco Center (Oceanic): 126.500
Piarco Center (South Sector): 125.400
Piarco Center Oceanic (Backup): 133.100

TXKF ATIS (Archives)
Hamilton, Bermuda

Feed Status: UP
Listen in your browser - HTML5 player(in browser, HTML5)
Click here to listen with your own player(launches your MP3 player)

TXKF 222055Z 31010KT 9999 SCT011 BKN170 25/22 Q1023

TXKF Flight Activity (Flightaware)

Listeners: 0 out of 1746 total

Bermuda ATIS: 119.600

TXKF Del/Gnd (Archives)
Hamilton, Bermuda

Feed Status: UP
Listen in your browser - HTML5 player(in browser, HTML5)
Click here to listen with your own player(launches your MP3 player)

TXKF 222055Z 31010KT 9999 SCT011 BKN170 25/22 Q1023

TXKF Flight Activity (Flightaware)

Listeners: 0 out of 1746 total

Bermuda Ground/Clearance: 124.500

TXKF Del/Gnd/Twr/CTAF (Archives)
Hamilton, Bermuda

Feed Status: UP
Listen in your browser - HTML5 player(in browser, HTML5)
Click here to listen with your own player(launches your MP3 player)

TXKF 222055Z 31010KT 9999 SCT011 BKN170 25/22 Q1023

TXKF Flight Activity (Flightaware)

Listeners: 0 out of 1746 total

Bermuda CTAF: 122.800
Bermuda Ground/Clearance: 124.500
Bermuda Tower: 118.100

TXKF Tower (Archives)
Hamilton, Bermuda

Feed Status: UP
Listen in your browser - HTML5 player(in browser, HTML5)
Click here to listen with your own player(launches your MP3 player)

TXKF 222055Z 31010KT 9999 SCT011 BKN170 25/22 Q1023

TXKF Flight Activity (Flightaware)

Listeners: 0 out of 1746 total

Bermuda Tower: 118.100

ZNY Sector 81 (Bermuda)/App (Archives)
Hamilton, Bermuda

Feed Status: UP
Listen in your browser - HTML5 player(in browser, HTML5)
Click here to listen with your own player(launches your MP3 player)

TXKF 222055Z 31010KT 9999 SCT011 BKN170 25/22 Q1023

TXKF Flight Activity (Flightaware)

Listeners: 0 out of 1746 total

New York Approach: 119.100
New York Center (BDA81 Bermuda Sector): 128.500

UNNT Gnd/Twr/App/Radar/Misc (Archives)
Novosibirsk, Russia

Feed Status: UP
Listen in your browser - HTML5 player(in browser, HTML5)
Click here to listen with your own player(launches your MP3 player)

UNNT 222030Z 28008MPS 9999 BKN038CB 14/04 Q1013 R25/090070 R34/////// NOSIG RMK QFE749/0999

UNNT Flight Activity (Flightaware)

Listeners: 8 out of 1746 total

ACC_Novosibirsk-Control [5th military channel]: 128.500
ACC_Novosibirsk-Control [Southeast]: 126.100
ACC_Novosibirsk-Control [West]: 127.000
GPA_Kristallik [Severniy airfield]: 123.425
GPA_Sernisiy [Chkalovskiy airfield]: 124.750
GPA_Tomsk Information 1: 134.500
MIL_3 [3rd military channel]: 130.750
MIL_Larek [Shilovo facility]: 123.750
MIL_Maneken [Chkalovskiy airfield]: 123.550
MIL_Novosibirsk-1 [1st military channel]: 124.000
MIL_Noyabr' 31: 124.900
MIL_Trimaran: 124.500
SP_Air-to-Air: 123.450
SP_Air-to-Air 2: 123.400
SP_Common backup frequency: 129.000
SP_Emergency: 121.500
SP_Emergency 2: 123.100
SP_Flyoff: 124.375
SURF_Boarding: 163.425
SURF_Duty chart: 163.800
SURF_O&D Service: 163.325
SURF_Search & Rescue: 164.000
SURF_Security: 163.750
SURF_Tower surf: 163.650
SURF_Vehicles: 163.850
UNNT_Backup frequency: 127.100
UNNT_Novosibirsk-Approach: 127.500
UNNT_Novosibirsk-Ground: 121.700
UNNT_Novosibirsk-Radar: 122.000
UNNT_Novosibirsk-Tower: 118.500
UNNT_Novosibirsk-Transit: 131.600
UNNT_S7 FOCC: 131.925

UNOO Gnd/Tower/App (Archives)
Omsk, Russia

Feed Status: UP
Listen in your browser - HTML5 player(in browser, HTML5)
Click here to listen with your own player(launches your MP3 player)

UNOO 222030Z 20006MPS 9999 SCT033CB 07/03 Q1010 R25/CLRD60 NOSIG RMK QFE749

UNOO Flight Activity (Flightaware)

Listeners: 2 out of 1746 total

Aerodrom Kalachevo: 123.300
Aerodrom Marianovka: 123.000
Emergency/Guard: 121.500
Novosibirsk Control (Sector 7): 132.500
Novosibirsk Control (Sector 8): 132.900
Omsk Approach (FL060-FL265): 131.200
Omsk Apron: 118.800
Omsk Start/Radar: 119.000
Omsk Taxiing: 121.700
Omsk Transit: 131.700
UNOS/OMSK-Severny: 124.000

UNTT Gnd/Info/Radar/Control (Archives)
Tomsk, Russia

Feed Status: UP
Listen in your browser - HTML5 player(in browser, HTML5)
Click here to listen with your own player(launches your MP3 player)

UNTT Flight Activity (Flightaware)

Listeners: 1 out of 1746 total

Common Backup Frequency: 129.000
Emergency/Guard: 121.500
Kemerovo Approach: 125.500
Novosibirsk Control (Sector 3): 129.300
Novosibirsk Control (Sector 5): 132.300
Novosibirsk Control (Sector 9): 134.400
Tomsk Ground: 118.800
Tomsk Information (Sector 3): 129.800
Tomsk Tower: 127.300
Tomsk Transit: 131.875
Troynik (Golovino): 122.400

URMT Twr/App/Control (Archives)
Stavropol, Russia

Feed Status: UP
Listen in your browser - HTML5 player(in browser, HTML5)
Click here to listen with your own player(launches your MP3 player)

URMT 222030Z 34003MPS CAVOK 12/09 Q1003 R25/010070 NOSIG RMK QFE714

URMT Flight Activity (Flightaware)

Listeners: 0 out of 1746 total

Stavropol Approach: 120.300
Stavropol Control: 118.250
Stavropol Tower: 120.900

URSS Gnd/Twr/App (Archives)
Sochi, Russia

Feed Status: UP
Listen in your browser - HTML5 player(in browser, HTML5)
Click here to listen with your own player(launches your MP3 player)

URSS 222030Z 05003MPS 9999 BKN100 13/09 Q1004 R02/010070 R06/010070 NOSIG RMK R06/00000MPS QFE751

URSS Flight Activity (Flightaware)

Listeners: 4 out of 1746 total

Sochi Approach: 118.300
Sochi Approach: 119.700
Sochi District (Small Aircraft): 118.500
Sochi Start: 121.200
Sochi Taxi: 119.000
Sochi Tower: 124.600

USDD Gnd/Twr/App/Control (Archives)
Salekhard, Russia

Feed Status: UP
Listen in your browser - HTML5 player(in browser, HTML5)
Click here to listen with your own player(launches your MP3 player)


USDD Flight Activity (Flightaware)

Listeners: 0 out of 1746 total

Salekhard Control: 132.300
Salekhard Ground: 118.800
Salekhard Info: 125.200
Salekhard Krug: 120.800
Salekhard Tower: 118.600
Salekhard Transit: 131.700

USTR Gnd/Twr/App (Archives)
Tyumen, Russia

Feed Status: UP
Listen in your browser - HTML5 player(in browser, HTML5)
Click here to listen with your own player(launches your MP3 player)

USTR 222030Z 21003MPS CAVOK 04/00 Q1000 R21/CLRD65 R30/////99 NOSIG

USTR Flight Activity (Flightaware)

Listeners: 1 out of 1746 total

Tyumen Approach: 126.100
Tyumen Control: 132.600
Tyumen Control: 133.600
Tyumen Info (Regional): 133.400
Tyumen Start: 118.200
Tyumen Transit: 131.800

UUEE Twr/App/Radar (Archives)
Moscow, Russia

Feed Status: UP
Listen in your browser - HTML5 player(in browser, HTML5)
Click here to listen with your own player(launches your MP3 player)

UUEE 222030Z 01005MPS CAVOK 05/M03 Q1005 R06R/CLRD62 R06C/CLRD62 NOSIG

UUEE Flight Activity (Flightaware)

Listeners: 1 out of 1746 total

Sheremetyevo Radar: 118.100
Sheremetyevo Radar/Departure: 126.600
Sheremetyevo Tower: 131.500
Sheremetyevo Tower (Rwy 24R/06L): 118.700

VHHH App/Dep/Dir/Zone (Archives)
Hong Kong, Hong Kong

Feed Status: UP
Listen in your browser - HTML5 player(in browser, HTML5)
Click here to listen with your own player(launches your MP3 player)

VHHH 222030Z 09011KT 9999 FEW009 SCT035 24/22 Q1006 NOSIG

VHHH Flight Activity (Flightaware)

Listeners: 0 out of 1746 total

Emergency/Guard: 121.500
Hong Kong Approach: 119.100
Hong Kong Approach: 119.350
Hong Kong Departure: 123.800
Hong Kong Departure: 122.000
Hong Kong Departure: 124.050
Hong Kong Director: 119.500
Hong Kong Director: 119.350
Hong Kong Zone: 120.600

VMMC Tower (Archives)
Taipa, Macau

Feed Status: UP
Listen in your browser - HTML5 player(in browser, HTML5)
Click here to listen with your own player(launches your MP3 player)

VMMC 222030Z 08012KT 060V130 9999 FEW010 SCT028 24/23 Q1005 NOSIG

VMMC Flight Activity (Flightaware)

Listeners: 2 out of 1746 total

Macau Tower: 118.000

VTBS Approach (East) (Archives)
Bangkok, Thailand

Feed Status: UP
Listen in your browser - HTML5 player(in browser, HTML5)
Click here to listen with your own player(launches your MP3 player)

VTBS 222030Z 21004KT 9999 FEW020 26/22 Q1002 NOSIG

VTBS Flight Activity (Flightaware)

Listeners: 0 out of 1746 total

Bangkok Approach (East): 122.350

VTBS Approach 119.1 (Archives)
Bangkok, Thailand

Feed Status: UP
Listen in your browser - HTML5 player(in browser, HTML5)
Click here to listen with your own player(launches your MP3 player)

VTBS 222030Z 21004KT 9999 FEW020 26/22 Q1002 NOSIG

VTBS Flight Activity (Flightaware)

Listeners: 0 out of 1746 total

Bangkok Approach: 119.100

VTBS Approach 119.4 (Archives)
Bangkok, Thailand

Feed Status: UP
Listen in your browser - HTML5 player(in browser, HTML5)
Click here to listen with your own player(launches your MP3 player)

VTBS 222030Z 21004KT 9999 FEW020 26/22 Q1002 NOSIG

VTBS Flight Activity (Flightaware)

Listeners: 0 out of 1746 total

Bangkok Approach: 119.400

VTBS Approach 120.3 (Archives)
Bangkok, Thailand

Feed Status: UP
Listen in your browser - HTML5 player(in browser, HTML5)
Click here to listen with your own player(launches your MP3 player)

VTBS 222030Z 21004KT 9999 FEW020 26/22 Q1002 NOSIG

VTBS Flight Activity (Flightaware)

Listeners: 0 out of 1746 total

Bangkok Approach: 120.300

VTBS Approach/Arrival (Archives)
Bangkok, Thailand

Feed Status: UP
Listen in your browser - HTML5 player(in browser, HTML5)
Click here to listen with your own player(launches your MP3 player)

VTBS 222030Z 21004KT 9999 FEW020 26/22 Q1002 NOSIG

VTBS Flight Activity (Flightaware)

Listeners: 0 out of 1746 total

Bangkok Approach: 124.350
Bangkok Approach: 125.200
Bangkok Approach: 126.300
Bangkok Approach (North): 128.950
Bangkok Arrival (VTBD): 133.000

VTBS Arrival 121.1 (Archives)
Bangkok, Thailand

Feed Status: UP
Listen in your browser - HTML5 player(in browser, HTML5)
Click here to listen with your own player(launches your MP3 player)

VTBS 222030Z 21004KT 9999 FEW020 26/22 Q1002 NOSIG

VTBS Flight Activity (Flightaware)

Listeners: 0 out of 1746 total

Bangkok Arrival: 121.100

VTBS ATIS (Archives)
Bangkok, Thailand

Feed Status: UP
Listen in your browser - HTML5 player(in browser, HTML5)
Click here to listen with your own player(launches your MP3 player)

VTBS 222030Z 21004KT 9999 FEW020 26/22 Q1002 NOSIG

VTBS Flight Activity (Flightaware)

Listeners: 0 out of 1746 total

Bangkok D-ATIS: 127.650

VTBS Departure (Archives)
Bangkok, Thailand

Feed Status: UP
Listen in your browser - HTML5 player(in browser, HTML5)
Click here to listen with your own player(launches your MP3 player)

VTBS 222030Z 21004KT 9999 FEW020 26/22 Q1002 NOSIG

VTBS Flight Activity (Flightaware)

Listeners: 0 out of 1746 total

Bangkok Departure: 119.250

VTBS Ground (All) (Archives)
Bangkok, Thailand

Feed Status: UP
Listen in your browser - HTML5 player(in browser, HTML5)
Click here to listen with your own player(launches your MP3 player)

VTBS 222030Z 21004KT 9999 FEW020 26/22 Q1002 NOSIG

VTBS Flight Activity (Flightaware)

Listeners: 0 out of 1746 total

Bangkok Ground (East): 121.650
Bangkok Ground (Main): 121.750
Bangkok Ground (West): 121.950

VTBS Ground (East) (Archives)
Bangkok, Thailand

Feed Status: UP
Listen in your browser - HTML5 player(in browser, HTML5)
Click here to listen with your own player(launches your MP3 player)

VTBS 222030Z 21004KT 9999 FEW020 26/22 Q1002 NOSIG

VTBS Flight Activity (Flightaware)

Listeners: 0 out of 1746 total

Bangkok Ground (East): 121.650

VTBS Ground (Main) (Archives)
Bangkok, Thailand

Feed Status: UP
Listen in your browser - HTML5 player(in browser, HTML5)
Click here to listen with your own player(launches your MP3 player)

VTBS 222030Z 21004KT 9999 FEW020 26/22 Q1002 NOSIG

VTBS Flight Activity (Flightaware)

Listeners: 0 out of 1746 total

Bangkok Ground (Main): 121.750

VTBS Ground (West) (Archives)
Bangkok, Thailand

Feed Status: UP
Listen in your browser - HTML5 player(in browser, HTML5)
Click here to listen with your own player(launches your MP3 player)

VTBS 222030Z 21004KT 9999 FEW020 26/22 Q1002 NOSIG

VTBS Flight Activity (Flightaware)

Listeners: 0 out of 1746 total

Bangkok Ground (West): 121.950

VTBS Tower (Archives)
Bangkok, Thailand

Feed Status: UP
Listen in your browser - HTML5 player(in browser, HTML5)
Click here to listen with your own player(launches your MP3 player)

VTBS 222030Z 21004KT 9999 FEW020 26/22 Q1002 NOSIG

VTBS Flight Activity (Flightaware)

Listeners: 0 out of 1746 total

Bangkok Tower (Rwy 01L/19R): 119.000
Bangkok Tower (Rwy 01R/19L): 118.200

VTBS Tower (Rwy 01L/19R) (Archives)
Bangkok, Thailand

Feed Status: UP
Listen in your browser - HTML5 player(in browser, HTML5)
Click here to listen with your own player(launches your MP3 player)

VTBS 222030Z 21004KT 9999 FEW020 26/22 Q1002 NOSIG

VTBS Flight Activity (Flightaware)

Listeners: 0 out of 1746 total

Bangkok Tower (Rwy 01L/19R): 119.000

VTBS Tower (Rwy 01R/19L) (Archives)
Bangkok, Thailand

Feed Status: UP
Listen in your browser - HTML5 player(in browser, HTML5)
Click here to listen with your own player(launches your MP3 player)

VTBS 222030Z 21004KT 9999 FEW020 26/22 Q1002 NOSIG

VTBS Flight Activity (Flightaware)

Listeners: 0 out of 1746 total

Bangkok Tower (Rwy 01R/19L): 118.200

VTSS Approach (Archives)
Songkhla, Thailand

Feed Status: UP
Listen in your browser - HTML5 player(in browser, HTML5)
Click here to listen with your own player(launches your MP3 player)

VTSS 222030Z 00000KT 9999 FEW020 BKN100 27/25 Q1006 NOSIG

VTSS Flight Activity (Flightaware)

Listeners: 0 out of 1746 total

Hat Yai Approach: 126.700

WAHH Approach
Yogyakarta, Indonesia

Feed Status: DOWN
Offline since: 2019-01-09 17:03:03 UTC

Adisutjipto Approach: 123.400

WBKK Gnd/Twr/Radar/Control (Archives)
Kota Kinabalu, Malaysia

Feed Status: UP
Listen in your browser - HTML5 player(in browser, HTML5)
Click here to listen with your own player(launches your MP3 player)

WBKK 222030Z 10005KT 9999 FEW014 25/23 Q1006 NOSIG


Listeners: 3 out of 1746 total

Kinabalu Director: 119.100
Kinabalu Ground: 121.600
Kinabalu Radar: 126.100
Kinabalu Radar: 132.450
Kinabalu Radar: 128.300
Kinabalu Tower: 118.300

WBKS Approach (Archives)
Sandakan, Malaysia

Feed Status: UP
Listen in your browser - HTML5 player(in browser, HTML5)
Click here to listen with your own player(launches your MP3 player)

WBKS 222000Z VRB01KT 9000 FEW016 25/24 Q1007


Listeners: 2 out of 1746 total

Sandakan Approach/Departure: 123.200

WBKS ATIS (Archives)
Sandakan, Malaysia

Feed Status: UP
Listen in your browser - HTML5 player(in browser, HTML5)
Click here to listen with your own player(launches your MP3 player)

WBKS 222000Z VRB01KT 9000 FEW016 25/24 Q1007


Listeners: 1 out of 1746 total

Sandakan ATIS: 128.200

WBKS Emergency/Guard (Archives)
Sandakan, Malaysia

Feed Status: UP
Listen in your browser - HTML5 player(in browser, HTML5)
Click here to listen with your own player(launches your MP3 player)

WBKS 222000Z VRB01KT 9000 FEW016 25/24 Q1007


Listeners: 1 out of 1746 total

Emergency/Guard: 121.500

WBKS Gnd/Twr/App/Guard (Archives)
Sandakan, Malaysia

Feed Status: UP
Listen in your browser - HTML5 player(in browser, HTML5)
Click here to listen with your own player(launches your MP3 player)

WBKS 222000Z VRB01KT 9000 FEW016 25/24 Q1007


Listeners: 1 out of 1746 total

Emergency/Guard: 121.500
Sandakan Approach/Departure: 123.200
Sandakan Ground: 121.900
Sandakan Tower: 122.050

WBKS Ground (Archives)
Sandakan, Malaysia

Feed Status: UP
Listen in your browser - HTML5 player(in browser, HTML5)
Click here to listen with your own player(launches your MP3 player)

WBKS 222000Z VRB01KT 9000 FEW016 25/24 Q1007


Listeners: 1 out of 1746 total

Sandakan Ground: 121.900

WBKS Tower (Archives)
Sandakan, Malaysia

Feed Status: UP
Listen in your browser - HTML5 player(in browser, HTML5)
Click here to listen with your own player(launches your MP3 player)

WBKS 222000Z VRB01KT 9000 FEW016 25/24 Q1007


Listeners: 1 out of 1746 total

Sandakan Tower: 122.050

WMKB Radar (Archives)
Penang, Malaysia

Feed Status: UP
Listen in your browser - HTML5 player(in browser, HTML5)
Click here to listen with your own player(launches your MP3 player)

WMKB 222000Z VRB02KT 8000 FEW024 26/25 Q1006 NOSIG


Listeners: 1 out of 1746 total

Butterworth Radar: 125.800

YADG CTAF (Archives)
Sellicks Hill, South Australia, Australia

Feed Status: UP
Listen in your browser - HTML5 player(in browser, HTML5)
Click here to listen with your own player(launches your MP3 player)

YADG Flight Activity (Flightaware)

Listeners: 0 out of 1746 total

Aldinga CTAF: 127.150

YBAF Gnd/Twr #2 (Archives)
Brisbane, Queensland, Australia

Feed Status: UP
Listen in your browser - HTML5 player(in browser, HTML5)
Click here to listen with your own player(launches your MP3 player)

YBAF Flight Activity (Flightaware)

Listeners: 0 out of 1746 total

Brisbane Ground: 119.900
Brisbane Tower (North): 123.600
Brisbane Tower/CTAF (South): 118.100

YBAS Tower/Center (Archives)
Alice Springs, Northern Territory, Australia

Feed Status: UP
Listen in your browser - HTML5 player(in browser, HTML5)
Click here to listen with your own player(launches your MP3 player)

YBAS 222030Z AUTO 00000KT 9999 // NCD 07/03 Q1019 RF00.0/000.0

YBAS Flight Activity (Flightaware)

Listeners: 1 out of 1746 total

Alice Tower/CTAF: 118.300
Melbourne Center (above FL280): 128.850
Melbourne Center (below FL280): 119.800

Brisbane Center (128.6/YSSY) (Archives)
Brisbane, Queensland, Australia

Feed Status: UP
Listen in your browser - HTML5 player(in browser, HTML5)
Click here to listen with your own player(launches your MP3 player)

YSSY 222030Z 26006KT 9999 VCSH FEW012 SCT030 BKN110 13/12 Q1028

YSSY Flight Activity (Flightaware)

Listeners: 0 out of 1746 total

Brisbane Center: 128.600

YBBN Center (Archives)
Brisbane, Queensland, Australia

Feed Status: UP
Listen in your browser - HTML5 player(in browser, HTML5)
Click here to listen with your own player(launches your MP3 player)

YBBN 222030Z 21008KT 9999 VCSH FEW026 BKN038 BKN072 15/14 Q1021

YBBN Flight Activity (Flightaware)

Listeners: 1 out of 1746 total

Brisbane Center (East): 132.850
Brisbane Center (North): 123.000
Brisbane Center (South): 128.150
Brisbane Center (West): 134.300

YBBN Twr/App/Center (Archives)
Brisbane, Queensland, Australia

Feed Status: UP
Listen in your browser - HTML5 player(in browser, HTML5)
Click here to listen with your own player(launches your MP3 player)

YBBN 222030Z 21008KT 9999 VCSH FEW026 BKN038 BKN072 15/14 Q1021

YBBN Flight Activity (Flightaware)

Listeners: 1 out of 1746 total

Brisbane Center (East): 134.300
Brisbane Center (West): 135.600
YBBN Approach North-West: 124.700
YBBN Approach South-East: 125.600
YBBN Tower 01L/19R (Northern Runway): 118.000
YBBN Tower 01R/19L (Southern Runway): 120.500

YBBN Twr/App/Dep
Brisbane, Queensland, Australia

Feed Status: DOWN
Offline since: 2022-05-22 21:14:06 UTC

YBBN 222030Z 21008KT 9999 VCSH FEW026 BKN038 BKN072 15/14 Q1021

Brisbane Approach: 123.500
Brisbane Approach/Departure (North): 124.700
Brisbane Approach/Departure (South): 125.600
Brisbane Departure: 128.300
Brisbane Departure: 133.450
Brisbane Tower: 120.500

YBCG Approach (Archives)
Gold Coast City, Queensland, Australia

Feed Status: UP
Listen in your browser - HTML5 player(in browser, HTML5)
Click here to listen with your own player(launches your MP3 player)

YBCG 222030Z AUTO 21007KT 9999 // SCT048 SCT056 SCT067 16/15 Q1022

YBCG Flight Activity (Flightaware)

Listeners: 0 out of 1746 total

Brisbane Approach: 123.500

YBCG Area CTAF (Archives)
Gold Coast City, Queensland, Australia

Feed Status: UP
Listen in your browser - HTML5 player(in browser, HTML5)
Click here to listen with your own player(launches your MP3 player)

YBCG 222030Z AUTO 21007KT 9999 // SCT048 SCT056 SCT067 16/15 Q1022

YBCG Flight Activity (Flightaware)

Listeners: 0 out of 1746 total

Gold Coast Area CTAF: 126.700

YBCG Brisbane Centre (Archives)
Gold Coast City, Queensland, Australia

Feed Status: UP
Listen in your browser - HTML5 player(in browser, HTML5)
Click here to listen with your own player(launches your MP3 player)

YBCG 222030Z AUTO 21007KT 9999 // SCT048 SCT056 SCT067 16/15 Q1022

YBCG Flight Activity (Flightaware)

Listeners: 2 out of 1746 total

Brisbane Centre/Radar: 119.500

YBCG Ground (Archives)
Gold Coast City, Queensland, Australia

Feed Status: UP
Listen in your browser - HTML5 player(in browser, HTML5)
Click here to listen with your own player(launches your MP3 player)

YBCG 222030Z AUTO 21007KT 9999 // SCT048 SCT056 SCT067 16/15 Q1022

YBCG Flight Activity (Flightaware)

Listeners: 0 out of 1746 total

Gold Coast Ground: 121.800

YBCG Ground/Tower (Archives)
Gold Coast City, Queensland, Australia

Feed Status: UP
Listen in your browser - HTML5 player(in browser, HTML5)
Click here to listen with your own player(launches your MP3 player)

YBCG 222030Z AUTO 21007KT 9999 // SCT048 SCT056 SCT067 16/15 Q1022

YBCG Flight Activity (Flightaware)

Listeners: 0 out of 1746 total

Gold Coast Ground: 121.800
Gold Coast Tower: 118.700

YBCG Tower (Archives)
Gold Coast City, Queensland, Australia

Feed Status: UP
Listen in your browser - HTML5 player(in browser, HTML5)
Click here to listen with your own player(launches your MP3 player)

YBCG 222030Z AUTO 21007KT 9999 // SCT048 SCT056 SCT067 16/15 Q1022

YBCG Flight Activity (Flightaware)

Listeners: 0 out of 1746 total

Gold Coast Tower: 118.700

YBCS App/Dep #1 (Archives)
Cairns, Queensland, Australia

Feed Status: UP
Listen in your browser - HTML5 player(in browser, HTML5)
Click here to listen with your own player(launches your MP3 player)

YBCS 222030Z AUTO 17007KT 9999 // SCT051 SCT060 23/19 Q1013

YBCS Flight Activity (Flightaware)

Listeners: 0 out of 1746 total

Cairns Approach/Departure: 118.400

YBCS App/Dep #2 (Archives)
Cairns, Queensland, Australia

Feed Status: UP
Listen in your browser - HTML5 player(in browser, HTML5)
Click here to listen with your own player(launches your MP3 player)

YBCS 222030Z AUTO 17007KT 9999 // SCT051 SCT060 23/19 Q1013

YBCS Flight Activity (Flightaware)

Listeners: 0 out of 1746 total

Cairns Approach/Departure: 126.100

YBCS App/Dep (all) (Archives)
Cairns, Queensland, Australia

Feed Status: UP
Listen in your browser - HTML5 player(in browser, HTML5)
Click here to listen with your own player(launches your MP3 player)

YBCS 222030Z AUTO 17007KT 9999 // SCT051 SCT060 23/19 Q1013

YBCS Flight Activity (Flightaware)

Listeners: 0 out of 1746 total

Cairns Approach/Departure: 126.100
Cairns Approach/Departure: 118.400

YBCS Brisbane Centre (Archives)
Cairns, Queensland, Australia

Feed Status: UP
Listen in your browser - HTML5 player(in browser, HTML5)
Click here to listen with your own player(launches your MP3 player)

YBCS 222030Z AUTO 17007KT 9999 // SCT051 SCT060 23/19 Q1013

YBCS Flight Activity (Flightaware)

Listeners: 1 out of 1746 total

Brisbane Centre: 121.200

YBCS Emergency/Guard (Archives)
Cairns, Queensland, Australia

Feed Status: UP
Listen in your browser - HTML5 player(in browser, HTML5)
Click here to listen with your own player(launches your MP3 player)

YBCS 222030Z AUTO 17007KT 9999 // SCT051 SCT060 23/19 Q1013

YBCS Flight Activity (Flightaware)

Listeners: 0 out of 1746 total

Emergency/Guard: 121.500

YBCS Ground (Archives)
Cairns, Queensland, Australia

Feed Status: UP
Listen in your browser - HTML5 player(in browser, HTML5)
Click here to listen with your own player(launches your MP3 player)

YBCS 222030Z AUTO 17007KT 9999 // SCT051 SCT060 23/19 Q1013

YBCS Flight Activity (Flightaware)

Listeners: 0 out of 1746 total

Cairns Ground: 121.700

YBCS Ground/Tower (Archives)
Cairns, Queensland, Australia

Feed Status: UP
Listen in your browser - HTML5 player(in browser, HTML5)
Click here to listen with your own player(launches your MP3 player)

YBCS 222030Z AUTO 17007KT 9999 // SCT051 SCT060 23/19 Q1013

YBCS Flight Activity (Flightaware)

Listeners: 0 out of 1746 total

Cairns Ground: 121.700
Cairns Tower: 124.900

YBCS Tower (Archives)
Cairns, Queensland, Australia

Feed Status: UP
Listen in your browser - HTML5 player(in browser, HTML5)
Click here to listen with your own player(launches your MP3 player)

YBCS 222030Z AUTO 17007KT 9999 // SCT051 SCT060 23/19 Q1013

YBCS Flight Activity (Flightaware)

Listeners: 0 out of 1746 total

Cairns Tower: 124.900

YBCV CTAF/Brisbane Center (Archives)
Charleville, Queensland, Australia

Feed Status: UP
Listen in your browser - HTML5 player(in browser, HTML5)
Click here to listen with your own player(launches your MP3 player)


YBCV Flight Activity (Flightaware)

Listeners: 1 out of 1746 total

Brisbane Center: 124.800
Charleville CTAF/UNICOM: 126.700

YBDG Center (Archives)
Bendigo, Victoria, Australia

Feed Status: UP
Listen in your browser - HTML5 player(in browser, HTML5)
Click here to listen with your own player(launches your MP3 player)

YBDG Flight Activity (Flightaware)

Listeners: 0 out of 1746 total

Melbourne Center: 126.800

YBDG CTAF (Archives)
Bendigo, Victoria, Australia

Feed Status: UP
Listen in your browser - HTML5 player(in browser, HTML5)
Click here to listen with your own player(launches your MP3 player)

YBDG Flight Activity (Flightaware)

Listeners: 0 out of 1746 total

Bendigo CTAF: 119.300

YBOK Del/Gnd/Twr/App (Archives)
Oakey, Queensland, Australia

Feed Status: UP
Listen in your browser - HTML5 player(in browser, HTML5)
Click here to listen with your own player(launches your MP3 player)

YBOK Flight Activity (Flightaware)

Listeners: 0 out of 1746 total

Brisbane Center/FSS: 121.200
Oakey Approach: 125.400
Oakey Approach: 123.700
Oakey Approach (Final): 135.850
Oakey Clearance Delivery: 133.350
Oakey CTAF (+YTWB/YBWW): 127.650
Oakey Ground: 121.900
Oakey Tower: 120.100

YBSS CTAF (Archives)
Bacchus Marsh, Victoria, Australia

Feed Status: UP
Listen in your browser - HTML5 player(in browser, HTML5)
Click here to listen with your own player(launches your MP3 player)

YBSS Flight Activity (Flightaware)

Listeners: 0 out of 1746 total

Bacchus Marsh CTAF: 118.800

YBSS Glider 122.5 (Archives)
Bacchus Marsh, Victoria, Australia

Feed Status: UP
Listen in your browser - HTML5 player(in browser, HTML5)
Click here to listen with your own player(launches your MP3 player)

YBSS Flight Activity (Flightaware)

Listeners: 0 out of 1746 total

Bacchus Marsh Glider Chat: 122.500

YBSS Glider 122.7 (Archives)
Bacchus Marsh, Victoria, Australia

Feed Status: UP
Listen in your browser - HTML5 player(in browser, HTML5)
Click here to listen with your own player(launches your MP3 player)

YBSS Flight Activity (Flightaware)

Listeners: 0 out of 1746 total

Bacchus Marsh Glider Chat: 122.700

YBSS Glider 122.9 (Archives)
Bacchus Marsh, Victoria, Australia

Feed Status: UP
Listen in your browser - HTML5 player(in browser, HTML5)
Click here to listen with your own player(launches your MP3 player)

YBSS Flight Activity (Flightaware)

Listeners: 0 out of 1746 total

Bacchus Marsh Glider Chat: 122.900

YBTL Approach/Departure (Archives)
Townsville, Queensland, Australia

Feed Status: UP
Listen in your browser - HTML5 player(in browser, HTML5)
Click here to listen with your own player(launches your MP3 player)

YBTL 222030Z AUTO 22003KT 9999 // OVC105 21/18 Q1015

YBTL Flight Activity (Flightaware)

Listeners: 0 out of 1746 total

Townsville Approach/Departure: 126.800

YBTL ATIS (Archives)
Townsville, Queensland, Australia

Feed Status: UP
Listen in your browser - HTML5 player(in browser, HTML5)
Click here to listen with your own player(launches your MP3 player)

YBTL 222030Z AUTO 22003KT 9999 // OVC105 21/18 Q1015

YBTL Flight Activity (Flightaware)

Listeners: 0 out of 1746 total

Townsville ATIS: 133.500

YBTL Brisbane Center (Archives)
Townsville, Queensland, Australia

Feed Status: UP
Listen in your browser - HTML5 player(in browser, HTML5)
Click here to listen with your own player(launches your MP3 player)

YBTL 222030Z AUTO 22003KT 9999 // OVC105 21/18 Q1015

YBTL Flight Activity (Flightaware)

Listeners: 1 out of 1746 total

Brisbane Center: 120.550

YBTL Clearance Delivery (Archives)
Townsville, Queensland, Australia

Feed Status: UP
Listen in your browser - HTML5 player(in browser, HTML5)
Click here to listen with your own player(launches your MP3 player)

YBTL 222030Z AUTO 22003KT 9999 // OVC105 21/18 Q1015

YBTL Flight Activity (Flightaware)

Listeners: 0 out of 1746 total

Townsville Clearance Delivery: 128.100

YBTL Ground (Archives)
Townsville, Queensland, Australia

Feed Status: UP
Listen in your browser - HTML5 player(in browser, HTML5)
Click here to listen with your own player(launches your MP3 player)

YBTL 222030Z AUTO 22003KT 9999 // OVC105 21/18 Q1015

YBTL Flight Activity (Flightaware)

Listeners: 0 out of 1746 total

Townsville Ground: 119.450

YBTL Tower (Archives)
Townsville, Queensland, Australia

Feed Status: UP
Listen in your browser - HTML5 player(in browser, HTML5)
Click here to listen with your own player(launches your MP3 player)

YBTL 222030Z AUTO 22003KT 9999 // OVC105 21/18 Q1015

YBTL Flight Activity (Flightaware)

Listeners: 0 out of 1746 total

Townsville Tower: 118.300

YGAW CTAF (Archives)
Gawler, South Australia, Australia

Feed Status: UP
Listen in your browser - HTML5 player(in browser, HTML5)
Click here to listen with your own player(launches your MP3 player)


YGAW Flight Activity (Flightaware)

Listeners: 0 out of 1746 total

Gawler CTAF: 126.550

YGLA CTAF (Archives)
Gladstone, Queensland, Australia

Feed Status: UP
Listen in your browser - HTML5 player(in browser, HTML5)
Click here to listen with your own player(launches your MP3 player)

YGLA 222030Z AUTO 15009KT 8000 -SHRA SCT019 BKN054 OVC063 19/15 Q1018

YGLA Flight Activity (Flightaware)

Listeners: 0 out of 1746 total

Gladstone CTF/Multicom: 118.800

YGTH AWIS (Archives)
Griffith, New South Wales, Australia

Feed Status: UP
Listen in your browser - HTML5 player(in browser, HTML5)
Click here to listen with your own player(launches your MP3 player)


YGTH Flight Activity (Flightaware)

Listeners: 0 out of 1746 total

Griffith AWIS Weather: 132.950

YGTH CTAF (Archives)
Griffith, New South Wales, Australia

Feed Status: UP
Listen in your browser - HTML5 player(in browser, HTML5)
Click here to listen with your own player(launches your MP3 player)


YGTH Flight Activity (Flightaware)

Listeners: 0 out of 1746 total

Griffith CTAF: 126.550

YIVL CTAF/Center (Archives)
Inverell, New South Wales, Australia

Feed Status: UP
Listen in your browser - HTML5 player(in browser, HTML5)
Click here to listen with your own player(launches your MP3 player)

YIVL Flight Activity (Flightaware)

Listeners: 0 out of 1746 total

Brisbane Center: 132.350
Brisbane Center: 127.100
Brisbane Center: 130.900
Brisbane Center (high alt SE Inverell): 130.100
Brisbane Center (high alt): 133.000
Brisbane Center (NE Inverell): 134.200
Brisbane Center (North and East Inverell): 127.200
Brisbane Center (North Inverell high alt): 135.600
Brisbane Center (North Inverell): 121.200
Brisbane Center (SE Inverell): 125.750
Inverell CTAF: 126.700
Tamworth Tower: 119.400

YMAV Del/App (Archives)
Avalon, Victoria, Australia

Feed Status: UP
Listen in your browser - HTML5 player(in browser, HTML5)
Click here to listen with your own player(launches your MP3 player)

YMAV 222100Z AUTO 00000KT 8000 // OVC007 06/06 Q1029 RF00.0/000.2

YMAV Flight Activity (Flightaware)

Listeners: 2 out of 1746 total

Avalon Clearance Delivery: 120.100
Melbourne Approach/Departure: 133.550

YMHB Gnd/Twr/Centre (Archives)
Cambridge, Tasmania, Australia

Feed Status: UP
Listen in your browser - HTML5 player(in browser, HTML5)
Click here to listen with your own player(launches your MP3 player)

YMHB 222030Z 31010KT 9999 BKN027 09/06 Q1031

YMHB Flight Activity (Flightaware)

Listeners: 0 out of 1746 total

Hobart Ground: 121.700
Hobart Tower: 118.100
Melbourne Centre: 125.550

YMHB Twr/Centre/Misc (Archives)
Cambridge, Tasmania, Australia

Feed Status: UP
Listen in your browser - HTML5 player(in browser, HTML5)
Click here to listen with your own player(launches your MP3 player)

YMHB 222030Z 31010KT 9999 BKN027 09/06 Q1031

YMHB Flight Activity (Flightaware)

Listeners: 0 out of 1746 total

Air to Air: 123.450
Area CTAF: 126.700
Helicopter Resources Company: 126.400
Hobart Tower: 118.100
Jetstar Company: 130.925
Launceston Tower: 118.700
Melbourne Centre: 123.800
Melbourne Centre: 125.550
Qantas Company: 129.500
Rotor Lift Company: 131.600
Virgin Company: 130.350

YMIA CTAF (Archives)
Mildura, Victoria, Australia

Feed Status: UP
Listen in your browser - HTML5 player(in browser, HTML5)
Click here to listen with your own player(launches your MP3 player)


YMIA Flight Activity (Flightaware)

Listeners: 0 out of 1746 total

Mildura CTAF: 118.800

YMIA Melbourne Center (Archives)
Mildura, Victoria, Australia

Feed Status: UP
Listen in your browser - HTML5 player(in browser, HTML5)
Click here to listen with your own player(launches your MP3 player)


YMIA Flight Activity (Flightaware)

Listeners: 0 out of 1746 total

Melbourne Center: 122.100

YMML Twr/App/Center (Archives)
Melbourne, Victoria, Australia

Feed Status: UP
Listen in your browser - HTML5 player(in browser, HTML5)
Click here to listen with your own player(launches your MP3 player)

YMML 222043Z 36005KT 0900 FG BKN002 07/07 Q1029 RF00/0/000/0

YMML Flight Activity (Flightaware)

Listeners: 3 out of 1746 total

Air Ambulance: 132.750
DSE & Other Company: 119.100
Essendon Tower: 125.100
Inter-Pilot: 123.450
Jetstar Company: 130.925
Melbourne ACD: 127.200
Melbourne Approach: 132.000
Melbourne Centre: 130.300
Melbourne Centre: 128.500
Melbourne Centre: 126.800
Melbourne Centre: 125.800
Melbourne Centre: 125.700
Melbourne Centre: 125.200
Melbourne Centre: 123.750
Melbourne Centre: 122.400
Melbourne Departure: 118.900
Melbourne Departure: 129.400
Melbourne Tower: 120.500
Moorabbin Tower (East): 118.100
Moorabbin Tower (West): 123.000
Police Air Wing: 131.600
Qantas Company: 130.850
Qantas Company: 129.500
Rex Company: 126.450
Royal Victorian Aero Club Company: 128.700
Royal Victorian Aero Club Company: 133.400

YPAD Del/Gnd/Twr/App (Archives)
Adelaide, South Australia, Australia

Feed Status: UP
Listen in your browser - HTML5 player(in browser, HTML5)
Click here to listen with your own player(launches your MP3 player)

YPAD 222030Z 04007KT CAVOK 14/09 Q1024

YPAD Flight Activity (Flightaware)

Listeners: 2 out of 1746 total

Adelaide Approach (East of Adelaide): 118.200
Adelaide Approach (East of Adelaide): 130.450
Adelaide Approach (Kangaroo Island): 123.050
Adelaide Approach (North of Adelaide): 128.600
Adelaide Approach (West of Adelaide): 124.200
Adelaide Clearance Delivery: 126.100
Adelaide Ground: 121.700
Adelaide Tower: 120.500

YPAD Gnd/Twr/App/Center (Archives)
Adelaide, South Australia, Australia

Feed Status: UP
Listen in your browser - HTML5 player(in browser, HTML5)
Click here to listen with your own player(launches your MP3 player)

YPAD 222030Z 04007KT CAVOK 14/09 Q1024

YPAD Flight Activity (Flightaware)

Listeners: 3 out of 1746 total

Adelaide Approach (East of Adelaide): 118.200
Adelaide Approach (East of Adelaide): 130.450
Adelaide Approach (Kangaroo Island): 123.050
Adelaide Approach (North of Adelaide): 128.600
Adelaide Approach (West of Adelaide): 124.200
Adelaide Clearance Delivery: 126.100
Adelaide Ground: 121.700
Adelaide Tower: 120.500
Flight Watch: 135.750
Melbourne Centre: 124.300
Melbourne Centre ( East of Adelaide): 125.300
Melbourne Centre ( Pt Augusta, Pt Pirie, Whyalla): 123.900
Melbourne Centre (Mildura): 122.100
Melbourne Centre (North of Adelaide): 122.400
Melbourne Centre (Pt Lincoln): 125.900
Melbourne Centre (West of Adelaide ): 127.050

YPDN Gnd/Twr/App/Dep (Archives)
Darwin, Northern Territory, Australia

Feed Status: UP
Listen in your browser - HTML5 player(in browser, HTML5)
Click here to listen with your own player(launches your MP3 player)

YPDN 222030Z 16006KT CAVOK 24/16 Q1011

YPDN Flight Activity (Flightaware)

Listeners: 2 out of 1746 total

Darwin Approach: 134.100
Darwin Arrival: 125.200
Darwin Departure: 119.550
Darwin Ground: 121.800
Darwin Tower: 133.100

YPJT Gnd/Twr (Archives)
Perth, Western Australia, Australia

Feed Status: UP
Listen in your browser - HTML5 player(in browser, HTML5)
Click here to listen with your own player(launches your MP3 player)

YPJT 222030Z AUTO 02007KT 9999 // SCT044 SCT055 BKN064 14/14 Q1003

YPJT Flight Activity (Flightaware)

Listeners: 0 out of 1746 total

Jandakot Ground: 124.300
Jandakot Tower: 119.400
Jandakot Tower/CTAF: 118.100

YPJT Perth Center (Archives)
Perth, Western Australia, Australia

Feed Status: UP
Listen in your browser - HTML5 player(in browser, HTML5)
Click here to listen with your own player(launches your MP3 player)

YPJT 222030Z AUTO 02007KT 9999 // SCT044 SCT055 BKN064 14/14 Q1003

YPJT Flight Activity (Flightaware)

Listeners: 0 out of 1746 total

Perth Center: 135.250

YPMQ CTAF (Archives)
Port Macquarie, New South Wales, Australia

Feed Status: UP
Listen in your browser - HTML5 player(in browser, HTML5)
Click here to listen with your own player(launches your MP3 player)

YPMQ Flight Activity (Flightaware)

Listeners: 0 out of 1746 total

Port Macquarie CTAF/Multicom: 118.100

YPPH Approach #1 (Archives)
Perth, Western Australia, Australia

Feed Status: UP
Listen in your browser - HTML5 player(in browser, HTML5)
Click here to listen with your own player(launches your MP3 player)

YPPH 222030Z 36011KT 290V020 5000 SHRA SCT008 BKN030 BKN060 14/13 Q1003 RESHRA

YPPH Flight Activity (Flightaware)

Listeners: 0 out of 1746 total

Perth Approach: 123.600

YPPH Approach #2 (Archives)
Perth, Western Australia, Australia

Feed Status: UP
Listen in your browser - HTML5 player(in browser, HTML5)
Click here to listen with your own player(launches your MP3 player)

YPPH 222030Z 36011KT 290V020 5000 SHRA SCT008 BKN030 BKN060 14/13 Q1003 RESHRA

YPPH Flight Activity (Flightaware)

Listeners: 0 out of 1746 total

Perth Approach: 123.600

YPPH Departure (Archives)
Perth, Western Australia, Australia

Feed Status: UP
Listen in your browser - HTML5 player(in browser, HTML5)
Click here to listen with your own player(launches your MP3 player)

YPPH 222030Z 36011KT 290V020 5000 SHRA SCT008 BKN030 BKN060 14/13 Q1003 RESHRA

YPPH Flight Activity (Flightaware)

Listeners: 1 out of 1746 total

Perth Departure: 118.700

YPPH Ground (Archives)
Perth, Western Australia, Australia

Feed Status: UP
Listen in your browser - HTML5 player(in browser, HTML5)
Click here to listen with your own player(launches your MP3 player)

YPPH 222030Z 36011KT 290V020 5000 SHRA SCT008 BKN030 BKN060 14/13 Q1003 RESHRA

YPPH Flight Activity (Flightaware)

Listeners: 0 out of 1746 total

Perth Ground: 121.700

YPPH Tower #1 (Archives)
Perth, Western Australia, Australia

Feed Status: UP
Listen in your browser - HTML5 player(in browser, HTML5)
Click here to listen with your own player(launches your MP3 player)

YPPH 222030Z 36011KT 290V020 5000 SHRA SCT008 BKN030 BKN060 14/13 Q1003 RESHRA

YPPH Flight Activity (Flightaware)

Listeners: 1 out of 1746 total

Perth Tower: 127.400

YPPH Tower #2 (Archives)
Perth, Western Australia, Australia

Feed Status: UP
Listen in your browser - HTML5 player(in browser, HTML5)
Click here to listen with your own player(launches your MP3 player)

YPPH 222030Z 36011KT 290V020 5000 SHRA SCT008 BKN030 BKN060 14/13 Q1003 RESHRA

YPPH Flight Activity (Flightaware)

Listeners: 0 out of 1746 total

Perth Tower: 127.400

YRYW 122.5
Raywood, Victoria, Australia

Feed Status: DOWN
Offline since: 2022-05-22 21:10:05 UTC



YRYW 122.7
Raywood, Victoria, Australia

Feed Status: DOWN
Offline since: 2022-05-22 19:40:06 UTC



YRYW 122.9
Raywood, Victoria, Australia

Feed Status: DOWN
Offline since: 2022-05-22 18:20:22 UTC



YRYW CTAF
Raywood, Victoria, Australia

Feed Status: DOWN
Offline since: 2022-05-22 18:20:22 UTC


Raywood CTAF: 119.300

YSBK ATIS (Archives)
Bankstown, New South Wales, Australia

Feed Status: UP
Listen in your browser - HTML5 player(in browser, HTML5)
Click here to listen with your own player(launches your MP3 player)

YSBK Flight Activity (Flightaware)

Listeners: 0 out of 1746 total

Bankstown ATIS: 120.900

YSBK Tower (Archives)
Bankstown, New South Wales, Australia

Feed Status: UP
Listen in your browser - HTML5 player(in browser, HTML5)
Click here to listen with your own player(launches your MP3 player)

YSBK Flight Activity (Flightaware)

Listeners: 0 out of 1746 total

Bankstown Tower: 132.800

Melbourne Center (124.1) (Archives)
Canberra, Australian Capital Territory, Australia

Feed Status: UP
Listen in your browser - HTML5 player(in browser, HTML5)
Click here to listen with your own player(launches your MP3 player)

YSCB 222030Z AUTO 13001KT 9999 // NCD 04/03 Q1029

YSCB Flight Activity (Flightaware)

Listeners: 0 out of 1746 total

Melbourne Center: 124.100

Melbourne Center (128.4) (Archives)
Canberra, Australian Capital Territory, Australia

Feed Status: UP
Listen in your browser - HTML5 player(in browser, HTML5)
Click here to listen with your own player(launches your MP3 player)

YSCB 222030Z AUTO 13001KT 9999 // NCD 04/03 Q1029

YSCB Flight Activity (Flightaware)

Listeners: 0 out of 1746 total

Melbourne Center: 128.400

YSCB App/Dep (Archives)
Canberra, Australian Capital Territory, Australia

Feed Status: UP
Listen in your browser - HTML5 player(in browser, HTML5)
Click here to listen with your own player(launches your MP3 player)

YSCB 222030Z AUTO 13001KT 9999 // NCD 04/03 Q1029

YSCB Flight Activity (Flightaware)

Listeners: 0 out of 1746 total

Canberra Approach/Departure (East): 124.500
Canberra Approach/Departure (West): 125.900

YSCB App/Dep (East) (Archives)
Canberra, Australian Capital Territory, Australia

Feed Status: UP
Listen in your browser - HTML5 player(in browser, HTML5)
Click here to listen with your own player(launches your MP3 player)

YSCB 222030Z AUTO 13001KT 9999 // NCD 04/03 Q1029

YSCB Flight Activity (Flightaware)

Listeners: 0 out of 1746 total

Canberra Approach/Departure (East): 124.500

YSCB App/Dep (West) (Archives)
Canberra, Australian Capital Territory, Australia

Feed Status: UP
Listen in your browser - HTML5 player(in browser, HTML5)
Click here to listen with your own player(launches your MP3 player)

YSCB 222030Z AUTO 13001KT 9999 // NCD 04/03 Q1029

YSCB Flight Activity (Flightaware)

Listeners: 0 out of 1746 total

Canberra Approach/Departure (West): 125.900

YSCB ATIS (Archives)
Canberra, Australian Capital Territory, Australia

Feed Status: UP
Listen in your browser - HTML5 player(in browser, HTML5)
Click here to listen with your own player(launches your MP3 player)

YSCB 222030Z AUTO 13001KT 9999 // NCD 04/03 Q1029

YSCB Flight Activity (Flightaware)

Listeners: 0 out of 1746 total

Canberra ATIS: 127.450

YSCB Tower (Archives)
Canberra, Australian Capital Territory, Australia

Feed Status: UP
Listen in your browser - HTML5 player(in browser, HTML5)
Click here to listen with your own player(launches your MP3 player)

YSCB 222030Z AUTO 13001KT 9999 // NCD 04/03 Q1029

YSCB Flight Activity (Flightaware)

Listeners: 0 out of 1746 total

Canberra Tower: 118.700

YSCB Twr/App/Dep (Archives)
Canberra, Australian Capital Territory, Australia

Feed Status: UP
Listen in your browser - HTML5 player(in browser, HTML5)
Click here to listen with your own player(launches your MP3 player)

YSCB 222030Z AUTO 13001KT 9999 // NCD 04/03 Q1029

YSCB Flight Activity (Flightaware)

Listeners: 0 out of 1746 total

Canberra Approach/Departure (East): 124.500
Canberra Approach/Departure (West): 125.900
Canberra Tower: 118.700

YSCN Tower/CTAF (Archives)
Camden, New South Wales, Australia

Feed Status: UP
Listen in your browser - HTML5 player(in browser, HTML5)
Click here to listen with your own player(launches your MP3 player)

YSCN Flight Activity (Flightaware)

Listeners: 0 out of 1746 total

Camden Tower/CTAF: 120.100

YSNW Gnd/CTAF/App/Center
Nowra, New South Wales, Australia

Feed Status: DOWN
Offline since: 2022-01-31 23:44:05 UTC


Enroute: 132.300
Nowra Approach: 123.500
Nowra CTAF: 118.850
Nowra Ground: 135.850

Brisbane Center (124.625/YSSY) (Archives)
Sydney, New South Wales, Australia

Feed Status: UP
Listen in your browser - HTML5 player(in browser, HTML5)
Click here to listen with your own player(launches your MP3 player)

YSSY 222030Z 26006KT 9999 VCSH FEW012 SCT030 BKN110 13/12 Q1028

YSSY Flight Activity (Flightaware)

Listeners: 0 out of 1746 total

Brisbane Center: 124.625

Brisbane Center (124.95/YSSY) (Archives)
Sydney, New South Wales, Australia

Feed Status: UP
Listen in your browser - HTML5 player(in browser, HTML5)
Click here to listen with your own player(launches your MP3 player)

YSSY 222030Z 26006KT 9999 VCSH FEW012 SCT030 BKN110 13/12 Q1028

YSSY Flight Activity (Flightaware)

Listeners: 2 out of 1746 total

Brisbane Center: 124.950

Brisbane Center (125.0/YSSY) (Archives)
Sydney, New South Wales, Australia

Feed Status: UP
Listen in your browser - HTML5 player(in browser, HTML5)
Click here to listen with your own player(launches your MP3 player)

YSSY 222030Z 26006KT 9999 VCSH FEW012 SCT030 BKN110 13/12 Q1028

YSSY Flight Activity (Flightaware)

Listeners: 0 out of 1746 total

Brisbane Center: 125.000

Brisbane Center (128.6/YSSY) (Archives)
Sydney, New South Wales, Australia

Feed Status: UP
Listen in your browser - HTML5 player(in browser, HTML5)
Click here to listen with your own player(launches your MP3 player)

YSSY 222030Z 26006KT 9999 VCSH FEW012 SCT030 BKN110 13/12 Q1028

YSSY Flight Activity (Flightaware)

Listeners: 0 out of 1746 total

Brisbane Center: 128.600

YSSY Approach (North/East) (Archives)
Sydney, New South Wales, Australia

Feed Status: UP
Listen in your browser - HTML5 player(in browser, HTML5)
Click here to listen with your own player(launches your MP3 player)

YSSY 222030Z 26006KT 9999 VCSH FEW012 SCT030 BKN110 13/12 Q1028

YSSY Flight Activity (Flightaware)

Listeners: 1 out of 1746 total

Sydney Approach (North/East): 124.400

YSSY Approach (South) (Archives)
Sydney, New South Wales, Australia

Feed Status: UP
Listen in your browser - HTML5 player(in browser, HTML5)
Click here to listen with your own player(launches your MP3 player)

YSSY 222030Z 26006KT 9999 VCSH FEW012 SCT030 BKN110 13/12 Q1028

YSSY Flight Activity (Flightaware)

Listeners: 0 out of 1746 total

Sydney Approach (South/West): 128.300

YSSY ATIS (Archives)
Sydney, New South Wales, Australia

Feed Status: UP
Listen in your browser - HTML5 player(in browser, HTML5)
Click here to listen with your own player(launches your MP3 player)

YSSY 222030Z 26006KT 9999 VCSH FEW012 SCT030 BKN110 13/12 Q1028

YSSY Flight Activity (Flightaware)

Listeners: 0 out of 1746 total

Sydney ATIS: 118.550

YSSY Center (South/West) (Archives)
Sydney, New South Wales, Australia

Feed Status: UP
Listen in your browser - HTML5 player(in browser, HTML5)
Click here to listen with your own player(launches your MP3 player)

YSSY 222030Z 26006KT 9999 VCSH FEW012 SCT030 BKN110 13/12 Q1028

YSSY Flight Activity (Flightaware)

Listeners: 1 out of 1746 total

Sydney Center: 124.550

YSSY Del/Gnd (Archives)
Sydney, New South Wales, Australia

Feed Status: UP
Listen in your browser - HTML5 player(in browser, HTML5)
Click here to listen with your own player(launches your MP3 player)

YSSY 222030Z 26006KT 9999 VCSH FEW012 SCT030 BKN110 13/12 Q1028

YSSY Flight Activity (Flightaware)

Listeners: 2 out of 1746 total

Sydney Clearance Delivery: 133.800
Sydney Ground (East of Rwys 16R/34L): 121.700
Sydney Ground (West of Rwys 16R/34L): 126.500

YSSY Departure (North/East) (Archives)
Sydney, New South Wales, Australia

Feed Status: UP
Listen in your browser - HTML5 player(in browser, HTML5)
Click here to listen with your own player(launches your MP3 player)

YSSY 222030Z 26006KT 9999 VCSH FEW012 SCT030 BKN110 13/12 Q1028

YSSY Flight Activity (Flightaware)

Listeners: 0 out of 1746 total

Sydney Departure (North/East): 123.000

YSSY Departure (South/West) (Archives)
Sydney, New South Wales, Australia

Feed Status: UP
Listen in your browser - HTML5 player(in browser, HTML5)
Click here to listen with your own player(launches your MP3 player)

YSSY 222030Z 26006KT 9999 VCSH FEW012 SCT030 BKN110 13/12 Q1028

YSSY Flight Activity (Flightaware)

Listeners: 0 out of 1746 total

Sydney Departure (Rte S, W and NW): 129.700

YSSY Director (Both)
Sydney, New South Wales, Australia

Feed Status: DOWN
Offline since: 2020-04-14 09:59:06 UTC

YSSY 222030Z 26006KT 9999 VCSH FEW012 SCT030 BKN110 13/12 Q1028

Sydney Director (East): 125.300
Sydney Director (West): 126.100

YSSY Director (East) (Archives)
Sydney, New South Wales, Australia

Feed Status: UP
Listen in your browser - HTML5 player(in browser, HTML5)
Click here to listen with your own player(launches your MP3 player)

YSSY 222030Z 26006KT 9999 VCSH FEW012 SCT030 BKN110 13/12 Q1028

YSSY Flight Activity (Flightaware)

Listeners: 7 out of 1746 total

Sydney Director (East): 125.300

YSSY Tower (Both) (Archives)
Sydney, New South Wales, Australia

Feed Status: UP
Listen in your browser - HTML5 player(in browser, HTML5)
Click here to listen with your own player(launches your MP3 player)

YSSY 222030Z 26006KT 9999 VCSH FEW012 SCT030 BKN110 13/12 Q1028

YSSY Flight Activity (Flightaware)

Listeners: 2 out of 1746 total

Sydney Tower (Rwy 16L/34R): 124.700
Sydney Tower (Rwy 16R/34L, Rwy 07/25): 120.500

YSSY Tower (Rwy 16L/34R) (Archives)
Sydney, New South Wales, Australia

Feed Status: UP
Listen in your browser - HTML5 player(in browser, HTML5)
Click here to listen with your own player(launches your MP3 player)

YSSY 222030Z 26006KT 9999 VCSH FEW012 SCT030 BKN110 13/12 Q1028

YSSY Flight Activity (Flightaware)

Listeners: 0 out of 1746 total

Sydney Tower (Rwy 16L/34R): 124.700

YSSY Tower (Rwys 16R/34L,7/25) (Archives)
Sydney, New South Wales, Australia

Feed Status: UP
Listen in your browser - HTML5 player(in browser, HTML5)
Click here to listen with your own player(launches your MP3 player)

YSSY 222030Z 26006KT 9999 VCSH FEW012 SCT030 BKN110 13/12 Q1028

YSSY Flight Activity (Flightaware)

Listeners: 1 out of 1746 total

Sydney Tower (Rwy 16R/34L, Rwy 07/25): 120.500

YWBN CTAF/Center (Archives)
Wedderburn, New South Wales, Australia

Feed Status: UP
Listen in your browser - HTML5 player(in browser, HTML5)
Click here to listen with your own player(launches your MP3 player)

YWBN Flight Activity (Flightaware)

Listeners: 0 out of 1746 total

Sydney Center: 124.550
Wedderburn CTAF/Multicom: 122.550

ZBAA Tower
Beijing, China

Feed Status: DOWN
Offline since: 2022-02-24 16:29:40 UTC

ZBAA 222030Z 08003MPS CAVOK 21/16 Q1006 NOSIG

Beijing Tower (Rwy 01/19): 118.600